[[{"header":{"parameterUnit":"m.s-1","parameterCategory":1,"la1":30.6,"la2":28.766,"lo1":-90.7593,"lo2":-88.6598,"dy":0.0162,"dx":0.0183,"nx":116,"ny":114,"refTime":"2023-08-25T00:00:00:Z","depth":0,"parameterNumber":2,"parameterNumberName":"U-component_of_WINDS"},"data":[0.0,0.0,0.0,0.0,0.0,0.0,0.0,0.0,0.0,0.0,0.0,0.0,0.0,0.0,0.0,0.0,0.0,0.0,0.0,0.0,0.0,0.0,0.0,0.0,0.0,0.0,0.0,0.0,0.0,0.0,0.0,0.0,0.0,0.0,0.0,0.0,0.0,0.0,0.0,0.0,0.0,0.0,0.0,0.0,0.0,0.0,0.0,0.0,0.0,0.0,0.0,0.0,0.0,0.0,0.0,0.0,0.0,0.0,0.0,0.0,0.0,0.0,0.0,0.0,0.0,0.0,0.0,0.0,0.0,0.0,0.0,0.0,0.0,0.0,0.0,0.0,0.0,0.0,0.0,0.0,0.0,0.0,0.0,0.0,0.0,0.0,0.0,0.0,0.0,0.0,0.0,0.0,0.0,0.0,0.0,0.0,0.0,0.0,0.0,0.0,0.0,0.0,0.0,0.0,0.0,0.0,0.0,0.0,0.0,0.0,0.0,0.0,0.0,0.0,0.0,0.0,0.0,0.0,0.0,0.0,0.0,0.0,0.0,0.0,0.0,0.0,0.0,0.0,0.0,0.0,0.0,0.0,0.0,0.0,0.0,0.0,0.0,0.0,0.0,0.0,0.0,0.0,0.0,0.0,0.0,0.0,0.0,0.0,0.0,0.0,0.0,0.0,0.0,0.0,0.0,0.0,0.0,0.0,0.0,0.0,0.0,0.0,0.0,0.0,0.0,0.0,0.0,0.0,0.0,0.0,0.0,0.0,0.0,0.0,0.0,0.0,0.0,0.0,0.0,0.0,0.0,0.0,0.0,0.0,0.0,0.0,0.0,0.0,0.0,0.0,0.0,0.0,0.0,0.0,0.0,0.0,0.0,0.0,0.0,0.0,0.0,0.0,0.0,0.0,0.0,0.0,0.0,0.0,0.0,0.0,0.0,0.0,0.0,0.0,0.0,0.0,0.0,0.0,0.0,0.0,0.0,0.0,0.0,0.0,0.0,0.0,0.0,0.0,0.0,0.0,0.0,0.0,0.0,0.0,0.0,0.0,0.0,0.0,0.0,0.0,0.0,0.0,0.0,0.0,0.0,0.0,0.0,0.0,0.0,0.0,0.0,0.0,0.0,0.0,0.0,0.0,0.0,0.0,0.0,0.0,0.0,0.0,0.0,0.0,0.0,0.0,0.0,0.0,0.0,0.0,0.0,0.0,0.0,0.0,0.0,0.0,0.0,0.0,0.0,0.0,0.0,0.0,0.0,0.0,0.0,0.0,0.0,0.0,0.0,0.0,0.0,0.0,0.0,0.0,0.0,0.0,0.0,0.0,0.0,0.0,0.0,0.0,0.0,0.0,0.0,0.0,0.0,0.0,0.0,0.0,0.0,0.0,0.0,0.0,0.0,0.0,0.0,0.0,0.0,0.0,0.0,0.0,0.0,0.0,0.0,0.0,0.0,0.0,0.0,0.0,0.0,0.0,0.0,0.0,0.0,0.0,0.0,0.0,0.0,0.0,0.0,0.0,0.0,0.0,0.0,0.0,0.0,0.0,0.0,0.0,0.0,0.0,0.0,0.0,0.0,0.0,0.0,0.0,0.0,0.0,0.0,0.0,0.0,0.0,0.0,0.0,0.0,0.0,0.0,0.0,0.0,0.0,0.0,0.0,0.0,0.0,0.0,0.0,0.0,0.0,0.0,0.0,0.0,0.0,0.0,0.0,0.0,0.0,0.0,0.0,0.0,0.0,0.0,0.0,0.0,0.0,0.0,0.0,0.0,0.0,0.0,0.0,0.0,0.0,0.0,0.0,0.0,0.0,0.0,0.0,0.0,0.0,0.0,0.0,0.0,0.0,0.0,0.0,0.0,0.0,0.0,0.0,0.0,0.0,0.0,0.0,0.0,0.0,0.0,0.0,0.0,0.0,0.0,0.0,0.0,0.0,0.0,0.0,0.0,0.0,0.0,0.0,0.0,0.0,0.0,0.0,0.0,0.0,0.0,0.0,0.0,0.0,0.0,0.0,0.0,0.0,0.0,0.0,0.0,0.0,0.0,0.0,0.0,0.0,0.0,0.0,0.0,0.0,0.0,0.0,0.0,0.0,0.0,0.0,0.0,0.0,0.0,0.0,0.0,0.0,0.0,0.0,0.0,0.0,0.0,0.0,0.0,0.0,0.0,0.0,0.0,0.0,0.0,0.0,0.0,0.0,0.0,0.0,0.0,0.0,0.0,0.0,0.0,0.0,0.0,0.0,0.0,0.0,0.0,0.0,0.0,0.0,0.0,0.0,0.0,0.0,0.0,0.0,0.0,0.0,0.0,0.0,0.0,0.0,0.0,0.0,0.0,0.0,0.0,0.0,0.0,0.0,0.0,0.0,0.0,0.0,0.0,0.0,0.0,0.0,0.0,0.0,0.0,0.0,0.0,0.0,0.0,0.0,0.0,0.0,0.0,0.0,0.0,0.0,0.0,0.0,0.0,0.0,0.0,0.0,0.0,0.0,0.0,0.0,0.0,0.0,0.0,0.0,0.0,0.0,0.0,0.0,0.0,0.0,0.0,0.0,0.0,0.0,0.0,0.0,0.0,0.0,0.0,0.0,0.0,0.0,0.0,0.0,0.0,0.0,0.0,0.0,0.0,0.0,0.0,0.0,0.0,0.0,0.0,0.0,0.0,0.0,0.0,0.0,0.0,0.0,0.0,0.0,0.0,0.0,0.0,0.0,0.0,0.0,0.0,0.0,0.0,0.0,0.0,0.0,0.0,0.0,0.0,0.0,0.0,0.0,0.0,0.0,0.0,0.0,0.0,0.0,0.0,0.0,0.0,0.0,0.0,0.0,0.0,0.0,0.0,0.0,0.0,0.0,0.0,0.0,0.0,0.0,0.0,0.0,0.0,0.0,0.0,0.0,0.0,0.0,0.0,0.0,0.0,0.0,0.0,0.0,0.0,0.0,0.0,0.0,0.0,0.0,0.0,0.0,0.0,0.0,0.0,0.0,0.0,0.0,0.0,0.0,0.0,0.0,0.0,0.0,0.0,0.0,0.0,0.0,0.0,0.0,0.0,0.0,0.0,0.0,0.0,0.0,0.0,0.0,0.0,0.0,0.0,0.0,0.0,0.0,0.0,0.0,0.0,0.0,0.0,0.0,0.0,0.0,0.0,0.0,0.0,0.0,0.0,0.0,0.0,0.0,0.0,0.0,0.0,0.0,0.0,0.0,0.0,0.0,0.0,0.0,0.0,0.0,0.0,0.0,0.0,0.0,0.0,0.0,0.0,0.0,0.0,0.0,0.0,0.0,0.0,0.0,0.0,0.0,0.0,0.0,0.0,0.0,0.0,0.0,0.0,0.0,0.0,0.0,0.0,0.0,0.0,0.0,0.0,0.0,0.0,0.0,0.0,0.0,0.0,0.0,0.0,0.0,0.0,0.0,0.0,0.0,0.0,0.0,0.0,0.0,0.0,0.0,0.0,0.0,0.0,0.0,0.0,0.0,0.0,0.0,0.0,0.0,0.0,0.0,0.0,0.0,0.0,0.0,0.0,0.0,0.0,0.0,0.0,0.0,0.0,0.0,0.0,0.0,0.0,0.0,0.0,0.0,0.0,0.0,0.0,0.0,0.0,0.0,0.0,0.0,0.0,0.0,0.0,0.0,0.0,0.0,0.0,0.0,0.0,0.0,0.0,0.0,0.0,0.0,0.0,0.0,0.0,0.0,0.0,0.0,0.0,0.0,0.0,0.0,0.0,0.0,0.0,0.0,0.0,0.0,0.0,0.0,0.0,0.0,0.0,0.0,0.0,0.0,0.0,0.0,0.0,0.0,0.0,0.0,0.0,0.0,0.0,0.0,0.0,0.0,0.0,0.0,0.0,0.0,0.0,0.0,0.0,0.0,0.0,0.0,0.0,0.0,0.0,0.0,0.0,0.0,0.0,0.0,0.0,0.0,0.0,0.0,0.0,0.0,0.0,0.0,0.0,0.0,0.0,0.0,0.0,0.0,0.0,0.0,0.0,0.0,0.0,0.0,0.0,0.0,0.0,0.0,0.0,0.0,0.0,0.0,0.0,0.0,0.0,0.0,0.0,0.0,0.0,0.0,0.0,0.0,0.0,0.0,0.0,0.0,0.0,0.0,0.0,0.0,0.0,0.0,0.0,0.0,0.0,0.0,0.0,0.0,0.0,0.0,0.0,0.0,0.0,0.0,0.0,0.0,0.0,0.0,0.0,0.0,0.0,0.0,0.0,0.0,0.0,0.0,0.0,0.0,0.0,0.0,0.0,0.0,0.0,0.0,0.0,0.0,0.0,0.0,0.0,0.0,0.0,0.0,0.0,0.0,0.0,0.0,0.0,0.0,0.0,0.0,0.0,0.0,0.0,0.0,0.0,0.0,0.0,0.0,0.0,0.0,0.0,0.0,0.0,0.0,0.0,0.0,0.0,0.0,0.0,0.0,0.0,0.0,0.0,0.0,0.0,0.0,0.0,0.0,0.0,0.0,0.0,0.0,0.0,0.0,0.0,0.0,0.0,0.0,0.0,0.0,0.0,0.0,0.0,0.0,0.0,0.0,0.0,0.0,0.0,0.0,0.0,0.0,0.0,0.0,0.0,0.0,0.0,0.0,0.0,0.0,0.0,0.0,0.0,0.0,0.0,0.0,0.0,0.0,0.0,0.0,0.0,0.0,0.0,0.0,0.0,0.0,0.0,0.0,0.0,0.0,0.0,0.0,0.0,0.0,0.0,0.0,0.0,0.0,0.0,0.0,0.0,0.0,0.0,0.0,0.0,0.0,0.0,0.0,0.0,0.0,0.0,0.0,0.0,0.0,0.0,0.0,0.0,0.0,0.0,0.0,0.0,0.0,0.0,0.0,0.0,0.0,0.0,0.0,0.0,0.0,0.0,0.0,0.0,0.0,0.0,0.0,0.0,0.0,0.0,0.0,0.0,0.0,0.0,0.0,0.0,0.0,0.0,0.0,0.0,0.0,0.0,0.0,0.0,0.0,0.0,0.0,0.0,0.0,0.0,0.0,0.0,0.0,0.0,0.0,0.0,0.0,0.0,0.0,0.0,0.0,0.0,0.0,0.0,0.0,0.0,0.0,0.0,0.0,0.0,0.0,0.0,0.0,0.0,0.0,0.0,0.0,0.0,0.0,0.0,0.0,0.0,0.0,0.0,0.0,0.0,0.0,0.0,0.0,0.0,0.0,0.0,0.0,0.0,0.0,0.0,0.0,0.0,0.0,0.0,0.0,0.0,0.0,0.0,0.0,0.0,0.0,0.0,0.0,0.0,0.0,0.0,0.0,0.0,0.0,0.0,0.0,0.0,0.0,0.0,0.0,0.0,0.0,0.0,0.0,0.0,0.0,0.0,0.0,0.0,0.0,0.0,0.0,0.0,0.0,0.0,0.0,0.0,0.0,0.0,0.0,0.0,0.0,0.0,0.0,0.0,0.0,0.0,0.0,0.0,0.0,0.0,0.0,0.0,0.0,0.0,0.0,0.0,0.0,0.0,0.0,0.0,0.0,0.0,0.0,0.0,0.0,0.0,0.0,0.0,0.0,0.0,0.0,0.0,0.0,0.0,0.0,0.0,0.0,0.0,0.0,0.0,0.0,0.0,0.0,0.0,0.0,0.0,0.0,0.0,0.0,0.0,0.0,0.0,0.0,0.0,0.0,0.0,0.0,0.0,0.0,0.0,0.0,0.0,0.0,0.0,0.0,0.0,0.0,0.0,0.0,0.0,0.0,0.0,0.0,0.0,0.0,0.0,0.0,0.0,0.0,0.0,0.0,0.0,0.0,0.0,0.0,0.0,0.0,0.0,0.0,0.0,0.0,0.0,0.0,0.0,0.0,0.0,0.0,0.0,0.0,0.0,0.0,0.0,0.0,0.0,0.0,0.0,0.0,0.0,0.0,0.0,0.0,0.0,0.0,0.0,0.0,0.0,0.0,0.0,0.0,0.0,0.0,0.0,0.0,0.0,0.0,0.0,0.0,0.0,0.0,0.0,0.0,0.0,0.0,0.0,0.0,0.0,0.0,0.0,0.0,0.0,0.0,0.0,0.0,0.0,0.0,0.0,0.0,0.0,0.0,0.0,0.0,0.0,0.0,0.0,0.0,0.0,0.0,2.5768,0.0,0.0,0.0,0.0,0.0,0.0,0.0,0.0,0.0,0.0,0.0,0.0,0.0,0.0,0.0,0.0,0.0,0.0,0.0,0.0,0.0,0.0,0.0,0.0,0.0,0.0,0.0,0.0,0.0,0.0,0.0,0.0,0.0,0.0,0.0,0.0,0.0,0.0,0.0,2.7212,2.5374,2.2005,2.0705,2.3175,2.8709,0.0,0.0,0.0,0.0,0.0,0.0,0.0,0.0,0.0,0.0,0.0,0.0,0.0,0.0,0.0,0.0,0.0,0.0,0.0,0.0,0.0,0.0,0.0,0.0,0.0,0.0,0.0,0.0,0.0,0.0,0.0,0.0,0.0,0.0,0.0,0.0,0.0,0.0,0.0,0.0,0.0,0.0,0.0,0.0,0.0,0.0,0.0,0.0,0.0,0.0,0.0,0.0,0.0,0.0,0.0,0.0,0.0,0.0,0.0,0.0,0.0,0.0,0.0,0.0,0.0,0.0,0.0,0.0,0.0,0.0,0.0,2.4612,0.0,0.0,0.0,0.0,0.0,0.0,0.0,0.0,0.0,0.0,0.0,0.0,0.0,0.0,0.0,0.0,0.0,0.0,0.0,0.0,0.0,0.0,0.0,0.0,2.8019,2.9136,2.8717,0.0,0.0,0.0,0.0,0.0,0.0,0.0,0.0,2.5891,2.6983,2.8151,2.6098,2.1349,1.4101,1.2162,1.598,2.4608,2.6794,0.0,0.0,0.0,0.0,0.0,0.0,0.0,0.0,0.0,0.0,0.0,0.0,0.0,0.0,0.0,0.0,0.0,0.0,0.0,0.0,0.0,0.0,0.0,0.0,0.0,0.0,0.0,0.0,0.0,0.0,0.0,0.0,0.0,0.0,0.0,0.0,0.0,0.0,0.0,0.0,0.0,0.0,0.0,0.0,0.0,0.0,0.0,0.0,0.0,0.0,0.0,0.0,0.0,0.0,0.0,0.0,0.0,0.0,0.0,0.0,0.0,0.0,0.0,0.6601,0.6683,0.8342,0.7278,0.8778,1.229,1.6517,1.9399,2.1203,2.096,0.0,0.0,0.0,0.0,0.0,0.0,0.0,0.0,0.0,0.0,0.0,0.0,0.0,0.0,0.0,0.0,0.0,0.0,0.0,0.0,0.0,2.7822,2.8682,3.0791,3.0061,2.9175,0.0,0.0,0.0,0.0,0.0,0.0,2.5072,2.6502,2.7599,2.8356,2.0021,1.0888,0.129,0.2434,0.4403,0.7364,1.5572,1.986,2.0984,0.0,0.0,0.0,0.0,0.0,0.0,0.0,0.0,0.0,0.0,0.0,0.0,0.0,0.0,0.0,0.0,0.0,0.0,0.0,0.0,0.0,0.0,0.0,0.0,0.0,0.0,0.0,0.0,0.0,0.0,0.0,0.0,0.0,0.0,0.0,0.0,0.0,0.0,0.0,0.0,0.0,3.0318,3.3578,0.0,0.0,0.0,0.0,0.0,0.0,0.0,0.0,0.0,0.0,0.0,0.0,0.0,0.0062,-0.0207,-0.1431,-0.1286,0.0253,-0.1427,-0.1572,-0.0282,-0.0468,-0.0189,0.0482,0.3789,0.0,1.5487,1.7381,0.0,0.0,0.0,0.0,0.0,0.0,0.0,0.0,0.0,0.0,0.0,0.0,0.0,0.0,0.0,0.0,0.0,0.0,0.0,0.0,0.0,2.7967,2.871,3.0624,3.0121,2.9439,2.8842,0.0,0.0,0.0,0.0,2.6167,2.6388,2.7157,2.5072,1.9962,0.6629,-0.2327,-0.7001,-0.7617,-0.7077,-0.5339,0.0623,0.7385,1.4374,1.6265,0.0,0.0,0.0,0.0,0.0,0.0,0.0,0.0,0.0,0.0,0.0,0.0,0.0,0.0,0.0,0.0,0.0,0.0,0.0,0.0,0.0,0.0,0.0,0.0,0.0,0.0,0.0,0.0,0.0,0.0,0.0,0.0,0.0,0.0,0.0,0.0,0.0,0.0,0.0,2.5168,2.2315,2.8249,2.1603,1.8165,0.0,0.0,0.0,0.0,0.0,0.0,0.0,0.0,0.0,-0.6172,-0.9525,-1.1346,-1.1461,-1.276,-1.24,-1.0442,-1.1109,-1.0801,-0.9609,-0.8886,-0.8464,-0.8035,-0.3919,-0.0096,0.3697,0.9749,1.3341,1.5294,0.0,0.0,0.0,0.0,2.2192,2.287,0.0,0.0,0.0,0.0,0.0,0.0,0.0,0.0,0.0,0.0,0.0,0.0,2.7865,2.8049,2.8741,3.049,2.9869,2.9212,2.8772,2.7888,0.0,0.0,2.6536,2.6516,2.7212,2.5052,1.7863,0.5524,-0.6182,-1.3316,-1.6028,-1.709,-1.6614,-1.4706,-1.1713,-0.3961,0.6945,0.9449,1.117,1.2751,0.0,0.0,0.0,0.0,0.0,0.0,0.0,0.0,0.0,0.0,0.0,0.0,0.0,0.0,0.0,0.0,0.0,0.0,0.0,0.0,0.0,0.0,0.0,0.0,0.0,0.0,0.0,0.0,0.0,0.0,0.0,0.0,0.0,0.0,0.0,0.0,0.0,2.1454,1.3602,1.5689,0.9616,0.6911,0.0,0.0,0.0,0.0,0.0,0.0,-0.4845,-1.0444,-1.432,-1.6043,-1.9639,-2.1377,-2.0915,-2.1996,-2.1076,-1.8328,-1.8328,-1.7439,-1.5872,-1.4965,-1.3944,-1.2569,-0.922,-0.7082,-0.5285,0.2928,0.8081,1.0791,1.2188,1.4365,1.6838,1.772,1.7755,1.7669,0.0,0.0,0.0,0.0,0.0,0.0,0.0,0.0,0.0,0.0,0.0,2.6103,2.7983,2.8139,2.8975,3.1157,2.9643,2.8333,2.7815,2.6595,2.5673,2.5162,2.6017,2.6567,2.6719,1.8143,0.3964,-1.5849,-1.5082,-1.9333,-2.8144,-2.556,-2.2776,-1.9943,-1.8212,-1.1748,-0.2171,-0.0528,0.195,0.5222,1.0323,0.0,0.0,0.0,0.0,0.0,0.0,0.0,0.0,0.0,0.0,0.0,0.0,0.0,0.0,0.0,0.0,0.0,0.0,0.0,0.0,0.0,0.0,0.0,0.0,0.0,0.0,0.0,0.0,0.0,0.0,0.0,0.0,0.0,0.0,0.0,0.0,0.0,0.0,-0.6713,-0.5436,0.0,0.0,0.0,0.0,-0.0761,-0.7562,-1.3443,-1.7451,-2.2936,-2.6991,-2.9372,-2.9328,-2.8227,-2.6157,-2.6191,-2.4346,-2.056,-2.056,-1.9129,-1.6551,-1.6764,-1.4813,-1.1421,-1.2183,-1.064,-0.7058,-0.0762,0.3127,0.5125,0.5351,0.787,1.1509,1.1698,1.1653,1.1825,0.0,0.0,0.0,0.0,0.0,0.0,0.0,0.0,0.0,2.5486,2.5976,2.6771,2.8005,2.8071,2.8488,2.9631,2.7713,2.6015,2.5045,2.4381,2.402,2.4092,2.5003,2.3128,1.8,0.4166,-0.7444,-1.6558,-2.2259,-2.6135,-2.8075,-2.5999,-2.3489,-2.0665,-1.9863,-1.6464,-1.1207,-0.959,-0.5838,-0.0711,0.2403,0.6259,0.0,0.0,0.0,0.0,0.0,0.0,0.0,0.0,0.0,0.0,0.0,0.0,0.0,0.0,0.0,0.0,0.0,0.0,0.0,0.0,0.0,0.0,0.0,0.0,0.0,0.0,0.0,0.0,0.0,0.0,0.0,0.0,0.0,0.0,0.0,0.0,0.0,-0.934,-1.4661,0.0,-1.0797,-0.7808,-0.7306,-1.0187,-1.5172,-2.0257,-2.5166,-2.7997,-2.9302,-2.8903,-2.8756,-2.7344,-2.4638,-2.4557,-2.3135,-2.0413,-2.0413,-1.9479,-1.7897,-1.7148,-1.6145,-1.4705,-1.2768,-1.1203,-0.9722,-0.5965,-0.2551,0.0469,0.1569,0.3455,0.5471,0.5406,0.5402,0.5639,0.0,0.0,0.0,0.0,0.0,0.0,0.0,0.0,2.5427,2.5453,2.6178,2.6914,2.7582,2.7793,2.784,2.7665,2.577,2.3905,2.2274,2.1904,2.1994,2.2626,2.2212,1.7372,0.7514,-0.5459,-1.5041,-2.1028,-2.7073,-2.9006,-2.7005,-2.509,-2.2801,-2.0322,-1.964,-1.7969,-1.5567,-1.4313,-1.0935,-0.6407,-0.3832,-0.0,0.4574,0.0,0.0,0.0,0.0,0.0,0.0,0.0,0.0,0.0,0.0,0.0,0.0,0.0,0.0,0.0,0.0,0.0,0.0,0.0,0.0,0.0,0.0,0.0,0.0,0.0,0.0,0.0,0.0,0.0,0.0,0.0,0.0,0.0,0.0,0.3341,-0.7604,-1.1703,-2.1665,-2.5081,-1.7272,-1.563,-1.6063,-1.8645,-2.1969,-2.5493,-2.9131,-2.9749,-2.9263,-2.7653,-2.7324,-2.5738,-2.2979,-2.2835,-2.1706,-1.9503,-1.9362,-1.8708,-1.7544,-1.6522,-1.5552,-1.4583,-1.1838,-1.0309,-0.9786,-0.8022,-0.5882,-0.3577,-0.2597,-0.1664,-0.0822,-0.0991,-0.0885,-0.0605,0.0,0.0,0.0,0.0,0.0,0.0,0.0,2.522,2.5398,2.5407,2.597,2.6486,2.6766,2.7299,2.7029,2.5521,2.3998,2.2062,1.9618,1.9252,1.9549,2.0558,1.7505,0.9629,-0.358,-0.9886,-1.8767,-3.0519,-2.9202,-2.7644,-2.5789,-2.3298,-2.1016,-1.906,-1.775,-1.6349,-1.4887,-1.437,-1.3352,-1.1746,-0.8275,-0.5615,-0.3071,0.0,0.0,0.0,0.0,0.0,0.0,0.0,0.0,0.0,0.0,0.0,0.0,0.0,0.0,0.0,0.0,0.0,0.0,0.0,0.0,0.0,0.0,0.0,0.0,0.0,0.0,0.0,0.0,0.0,0.0,0.0,0.0,0.0,1.6043,0.1672,-1.01,-1.5644,-2.664,-3.1485,-2.5663,-2.59,-2.6193,-2.5745,-2.7933,-2.928,-2.9286,-2.8415,-2.7481,-2.6378,-2.5474,-2.3953,-2.1732,-2.15,-2.0183,-1.7946,-1.7573,-1.6756,-1.5538,-1.4709,-1.296,-1.0534,-0.9696,-0.852,-0.7129,-0.6987,-0.6929,-0.6956,-0.7241,-0.7282,-0.7091,-0.7078,-0.6974,-0.6803,0.0,0.0,0.0,0.0,0.0,0.0,0.0,2.521,2.5456,2.5407,2.5553,2.5904,2.6448,2.6139,2.5602,2.4887,2.2393,2.0257,1.8731,1.7715,1.7723,1.897,1.3975,0.6591,-0.3184,-1.474,-2.2535,-2.6335,-2.6048,-2.4743,-2.2555,-2.074,-1.8883,-1.6998,-1.6175,-1.5033,-1.3691,-1.3048,-1.222,-1.1333,-0.9732,-0.7851,-0.5733,0.0,0.0,0.0,0.0,0.0,0.0,0.0,0.0,0.0,0.0,0.0,0.0,0.0,0.0,0.0,0.0,0.0,0.0,0.0,0.0,0.0,0.0,0.0,0.0,0.0,0.0,0.0,0.0,0.0,0.0,0.0,1.4183,1.0137,0.5317,-0.3508,-1.3412,-2.3923,-2.9544,-3.0731,-2.6052,-2.4366,-2.3665,-2.4102,-2.4294,-2.4582,-2.5103,-2.4297,-2.3047,-2.1385,-2.1267,-2.0322,-1.8312,-1.8206,-1.7586,-1.6329,-1.6071,-1.496,-1.3256,-1.2985,-1.2037,-1.0529,-0.9463,-0.8761,-0.8352,-0.7329,-0.6929,-0.6926,-0.6895,-0.6932,-0.69,-0.6871,-0.6732,-0.6576,0.0,0.0,0.0,0.0,0.0,0.0,0.0,2.5177,2.5393,2.5258,2.5207,2.5333,2.5703,2.53,2.4637,2.3642,2.1584,1.9702,1.8198,1.7427,1.7169,1.7495,1.0607,0.3611,-0.3223,-1.5142,-2.1827,-2.302,-2.3,-2.2086,-2.0294,-1.8345,-1.6738,-1.5537,-1.4335,-1.3255,-1.223,-1.1622,-1.0739,-0.973,-0.9228,-0.85,-0.7418,-0.5681,-0.4329,-0.2981,-0.0,0.1451,0.2397,0.5254,0.0,0.0,0.0,0.0,0.0,0.0,0.0,0.0,0.0,0.0,0.0,0.0,0.0,0.0,0.0,0.0,0.0,0.0,0.0,0.0,0.0,0.0,0.0,0.0,0.2206,-0.1525,-0.6443,-1.0586,-1.6785,-2.6575,-2.9528,-2.8831,-2.3953,-2.1936,-2.0978,-2.0992,-2.0967,-2.0997,-2.1127,-2.0646,-1.9696,-1.8101,-1.8451,-1.7828,-1.6229,-1.6078,-1.5382,-1.4172,-1.3865,-1.2896,-1.1488,-1.108,-1.0474,0.0,-0.8591,-0.8111,-0.7889,-0.7119,-0.6797,0.0,0.0,0.0,0.0,0.0,-0.6549,-0.6454,0.0,0.0,0.0,0.0,0.0,0.0,0.0,2.5139,2.5294,2.4993,2.4824,2.471,2.4704,2.4675,2.3978,2.2351,2.1376,2.004,1.8041,1.7933,1.7374,1.6074,0.8094,0.1415,-0.3473,-1.2561,-1.819,-1.9984,-1.9979,-1.9461,-1.8317,-1.6033,-1.4665,-1.408,-1.2314,-1.115,-1.0562,-0.9959,-0.9016,-0.7753,-0.7642,-0.787,-0.8127,-0.7395,-0.7128,-0.6716,-0.4186,-0.3424,-0.3285,-0.0269,0.0,0.0,0.0,0.0,0.0,0.0,0.0,0.0,0.0,0.0,0.0,0.0,0.0,0.0,0.0,0.0,0.0,0.0,0.0,0.0,0.0,0.0,0.0,0.0,-0.9348,-1.2258,-1.8184,-1.8574,-2.0143,-2.5182,-2.7069,-2.5687,-1.9975,-1.8602,-1.7751,-1.6953,-1.7599,-1.7839,-1.7295,0.0,0.0,0.0,0.0,-1.5772,-1.4692,-1.4408,-1.3412,-1.1869,-1.1503,-1.0935,-1.0198,-0.9266,-0.8734,-0.8417,-0.7462,-0.6943,-0.6698,-0.6681,-0.6583,-0.6464,-0.6617,-0.6664,-0.6637,-0.6515,-0.6451,-0.6403,0.0,0.0,0.0,0.0,0.0,0.0,0.0,2.5139,2.5221,2.474,2.4049,2.3753,2.4109,2.3768,2.3347,2.2945,2.1909,2.0507,1.8714,1.8489,1.7159,1.4378,0.8961,0.3015,-0.3294,-1.0033,-1.4118,-1.5521,-1.6532,-1.6203,-1.455,-1.3683,-1.2462,-1.098,-1.0201,-0.9352,-0.85,-0.79,-0.7559,-0.7347,-0.695,-0.6933,-0.7137,-0.7004,-0.7024,-0.7058,-0.6621,-0.6554,-0.6594,-0.6241,-0.3067,0.0795,0.1159,0.4572,0.0,0.0,0.0,0.0,0.0,0.0,0.0,0.0,0.0,0.0,0.0,0.0,0.0,0.0,0.0,0.0,0.0,0.0,0.0,-2.1245,-2.3887,-2.5392,-2.6166,-2.4725,-2.3222,-2.2177,-2.2073,-2.0108,-1.5042,-1.3489,-1.2824,-1.298,-1.2972,-1.3026,-1.3215,-1.323,-1.2813,-1.1832,-1.2107,-1.1731,-1.0768,-1.0718,-1.0679,-1.0689,0.0,0.0,-0.9021,-0.8647,-0.8002,-0.7076,-0.6857,-0.6753,-0.6692,-0.6566,-0.643,-0.6315,-0.6461,-0.6444,-0.6356,-0.6441,-0.6318,-0.6112,0.0,0.0,0.0,0.0,0.0,0.0,0.0,2.5169,2.5195,2.4764,2.3975,2.3645,2.419,2.3768,2.3531,2.3686,2.2603,2.1685,2.1236,1.9502,1.7441,1.5049,0.9736,0.4238,-0.1396,-0.7197,-1.0605,-1.1504,-1.2436,-1.2407,-1.1535,-1.0606,-0.9858,-0.9177,-0.8613,-0.8035,-0.7502,-0.7233,-0.6909,-0.6503,-0.6287,-0.6294,-0.6656,-0.6793,-0.7017,-0.7153,-0.7348,-0.743,-0.7594,-0.7919,-0.6319,-0.3696,-0.0919,0.2443,0.6022,0.0,0.0,0.0,0.0,0.0,0.0,0.0,0.0,0.0,0.0,0.0,0.0,0.0,0.0,-0.8696,-1.301,0.0,-2.6627,-3.1132,-3.2686,-3.29,-3.172,-2.764,-2.3566,-2.039,-1.8814,-1.6539,-1.2749,-1.1237,-1.0302,-0.9801,-0.9664,-0.9919,-1.0627,-1.0718,-1.0507,-1.0007,-1.0242,-1.0146,-0.9703,-0.9703,-0.9572,-0.9299,-0.9011,-0.8386,-0.7596,-0.7593,-0.7222,-0.659,-0.6668,-0.6617,-0.6474,-0.6396,-0.6325,-0.6345,-0.6339,-0.6322,-0.6271,-0.6339,-0.6224,-0.603,0.0,0.0,0.0,0.0,0.0,0.0,0.0,0.0,2.5191,2.4816,2.4208,2.3971,2.4413,2.4135,2.3998,2.4282,2.3327,2.2999,2.3682,2.0659,1.816,1.6493,1.0913,0.5753,0.1211,-0.3793,-0.6844,-0.7889,-0.8615,-0.9015,-0.8985,-0.8178,-0.7877,-0.7932,-0.7449,-0.7044,-0.6644,-0.6387,-0.5885,-0.5269,-0.5269,-0.547,-0.5681,-0.6068,-0.6519,-0.7129,-0.7272,-0.7116,-0.7012,-0.7656,-0.723,-0.5474,-0.0093,0.2997,0.5039,0.6969,0.9212,0.0,0.0,0.0,0.0,0.0,0.0,0.0,0.0,0.6696,0.0939,-0.0362,-0.9708,-1.7971,-1.9463,-2.7695,-3.4896,-3.6816,-3.6974,-3.6142,-3.4036,-2.8049,-2.2462,-1.8628,-1.618,-1.3668,-1.0809,-0.9223,-0.7877,-0.6795,-0.7134,-0.7834,-0.8689,-0.8699,-0.8699,-0.8699,-0.8937,-0.9023,-0.9018,-0.9018,-0.8649,-0.7899,-0.7703,-0.7236,-0.6485,-0.6576,-0.6556,-0.6444,-0.6569,-0.6488,-0.6268,-0.6268,-0.6328,-0.6307,-0.6331,-0.6304,-0.6256,-0.6207,-0.6118,-0.5983,0.0,0.0,0.0,0.0,0.0,0.0,0.0,0.0,0.0,2.4693,2.4601,2.4509,2.434,2.4468,2.4534,2.4398,2.4045,2.3912,2.4143,2.1674,1.9411,1.769,1.306,0.8457,0.3877,0.0696,-0.217,-0.49,-0.6265,-0.6961,-0.6972,-0.8049,-0.7932,-0.6818,-0.7026,-0.6375,-0.5054,-0.3723,-0.3274,-0.3424,-0.3424,-0.3435,-0.3461,-0.3473,-0.5037,-0.7094,-0.7114,-0.579,-0.4406,-0.6524,-0.4389,-0.0,0.5379,0.7053,0.7279,0.8584,0.8911,0.9122,1.0774,1.4052,1.7405,1.9165,1.5426,1.0368,0.0,-0.0424,-0.7599,-1.3021,-1.8403,-2.3058,-2.6316,-2.9528,-3.2541,-3.5297,-3.5511,-3.4067,-3.0425,-2.5394,-2.0391,-1.5743,-1.3461,-1.0803,-0.7002,-0.4745,-0.3388,-0.3236,-0.524,-0.65,-0.6595,-0.6599,-0.6599,-0.6599,-0.6691,-0.6695,-0.6684,-0.6684,-0.667,-0.6708,-0.6588,-0.6527,-0.6582,-0.639,-0.6329,-0.6315,-0.6332,-0.6322,-0.6291,-0.6291,-0.6297,-0.6273,-0.6307,-0.6187,-0.6033,-0.601,-0.5959,-0.581,0.0,0.0,0.0,0.0,0.0,0.0,0.0,0.0,0.0,0.0,2.4896,2.4891,2.4772,2.4968,2.5041,2.4873,2.4542,2.4721,2.5597,2.2779,2.0746,1.9929,1.6228,1.2144,0.7778,0.5315,0.3202,0.1502,-0.0484,-0.1678,-0.213,-0.2649,-0.2815,-0.2642,-0.2693,-0.2382,-0.182,-0.125,-0.0304,0.0795,0.0795,0.0802,0.0813,0.0821,-0.0,-0.1356,-0.2715,-0.2568,0.0,-0.106,0.0445,0.2697,0.6386,0.7369,0.727,0.7667,0.7712,0.7366,0.6573,0.6596,0.72,0.8329,0.6077,0.2695,-0.0268,-0.6034,-1.1704,-1.5033,-1.8687,-2.1964,-2.3982,-2.627,-2.8375,-3.0069,-3.0394,-2.9535,-2.6754,-2.2261,-1.8202,-1.5523,-1.2512,-0.9096,-0.5352,-0.4833,-0.4801,-0.4791,-0.3426,-0.313,-0.4384,-0.4462,-0.4462,-0.4462,-0.4462,-0.446,-0.4457,-0.5649,-0.6315,-0.6366,-0.6315,-0.5677,-0.4525,-0.4482,-0.4462,-0.4462,-0.4462,-0.4462,-0.4462,-0.4462,-0.4404,-0.4468,-0.4432,-0.5113,-0.6154,-0.606,-0.5881,-0.5671,0.0,0.0,0.0,0.0,0.0,0.0,0.0,0.0,0.0,0.0,2.5318,2.5206,2.5203,2.5313,2.5356,2.5235,2.4927,2.5203,2.6298,2.3705,2.2089,2.1905,1.8759,1.5409,1.194,0.9712,0.7961,0.6765,0.5552,0.4674,0.4128,0.3556,0.2988,0.2557,0.2952,0.3054,0.3015,0.2355,0.2974,0.4491,0.4613,0.4658,0.4536,0.4564,0.472,0.4522,0.1587,0.0925,0.1869,0.4365,0.5097,0.5336,0.7474,0.808,0.7771,0.739,0.7046,0.627,0.3816,0.1265,-0.0691,-0.1207,-0.2324,-0.3706,-0.5847,-0.9383,-1.2649,-1.4032,-1.6364,-1.8476,-1.9484,-2.1548,-2.3385,-2.425,-2.4636,-2.4112,-2.2139,-1.8615,-1.569,-1.4083,-1.104,-0.7714,-0.4376,-0.3301,-0.285,-0.2843,-0.0549,0.0234,-0.1325,-0.1402,-0.1402,-0.1402,-0.1402,-0.148,-0.1635,-0.32,-0.438,-0.5171,-0.5335,-0.494,-0.3917,-0.2815,-0.2267,-0.2267,-0.2267,-0.2267,-0.2266,-0.225,-0.2214,-0.2315,-0.284,-0.4408,-0.619,-0.5498,-0.5415,-0.5665,0.0,0.0,0.0,0.0,0.0,0.0,0.0,0.0,0.0,0.0,0.0,0.0,0.0,2.5446,2.537,2.5302,2.5158,2.5201,2.552,2.4273,2.3415,2.3154,2.0067,1.7619,1.6035,1.3718,1.1522,0.9482,1.104,1.1768,1.1735,0.9315,0.8313,0.8575,0.9476,0.9903,0.9748,0.7477,0.6515,0.6678,0.7225,0.731,0.7028,0.6994,0.8074,0.8935,0.4522,0.4303,0.6387,0.8457,0.8796,0.8685,1.0257,1.0358,0.9723,0.8624,0.756,0.6105,0.3728,0.1316,-0.1524,-0.5783,-0.7034,-0.7714,-0.944,-0.9731,-1.0032,-1.1467,-1.2411,-1.3317,-1.4427,-1.6095,-1.7655,-1.8583,-1.8788,-1.8021,-1.594,-1.4574,-1.2725,-1.0028,-0.8215,-0.6213,-0.3884,0.2163,0.5888,0.5885,0.413,0.2966,0.2888,0.2888,0.2888,0.2888,0.2888,0.2572,0.1943,0.1865,0.0466,-0.2255,-0.2885,-0.4233,-0.6087,-0.1963,-0.0079,-0.0079,-0.0079,-0.0079,-0.0078,-0.0077,-0.0075,-0.0292,-0.2332,-0.4396,-0.6071,-0.3958,-0.4276,-0.5745,0.0,0.0,0.0,0.0,0.0,0.0,0.0,0.0,0.0,0.0,0.0,0.0,0.0,0.0,0.0,0.0,2.5926,2.6502,2.7187,2.6447,2.583,2.5455,2.3572,2.1556,1.9562,1.8439,1.6987,1.5092,1.5332,1.4924,1.3947,1.2623,1.1981,1.2011,1.181,1.2084,1.27,1.1008,1.0611,1.0888,1.0265,1.0519,1.1133,1.0555,1.1343,1.2441,0.0,0.9163,0.8997,0.9358,0.932,0.93,0.9917,0.9897,0.9577,0.9118,0.7736,0.5993,0.4089,0.1776,-0.1321,-0.5918,-0.7273,-0.7674,-0.8287,-0.8348,-0.8419,-0.8847,-1.0706,-1.1916,-1.1107,-1.1725,-1.2706,-1.3618,-1.4048,-1.4079,-1.387,-1.207,-1.1174,-1.2433,-0.6573,-0.272,-0.3554,0.0,0.0,0.2401,0.4172,0.5227,0.5217,0.5221,0.5254,0.5254,0.5254,0.5096,0.4854,0.4854,0.438,0.3435,0.1793,0.0623,-0.0,0.1406,0.2033,0.1955,0.0627,-0.0,-0.0,-0.0,-0.0,-0.0073,-0.0787,-0.1461,-0.2225,-0.2852,-0.4102,-0.5355,0.0,0.0,0.0,0.0,0.0,0.0,0.0,0.0,0.0,0.0,0.0,0.0,0.0,0.0,0.0,0.0,0.0,2.7203,2.8081,2.7745,2.7354,2.7003,2.5923,2.4544,2.2875,2.2086,2.1163,2.0021,1.9442,1.8745,1.7935,1.7259,1.6927,1.6807,1.593,1.6021,1.6813,1.5385,1.4964,1.5268,1.411,1.3809,1.403,1.3802,1.4317,0.0,1.4629,1.3945,1.301,1.1462,1.0983,1.1088,1.1498,1.1212,1.0611,0.9959,0.8637,0.6798,0.4227,0.185,-0.0696,-0.3765,-0.539,-0.5918,-0.5108,-0.491,-0.4901,-0.493,-0.646,-0.7566,-0.6991,-0.7584,-0.8535,-0.9604,-1.0713,-1.1554,-1.1688,-0.9789,-0.9271,-1.1348,-0.3213,0.2548,0.268,0.2565,0.0,0.1606,0.4918,0.6788,0.6418,0.698,0.7049,0.6359,0.6972,0.72,0.6817,0.72,0.7042,0.6264,0.4929,0.4226,0.4226,0.4226,0.4226,0.4146,0.2715,0.1314,-0.0,-0.0,-0.0,-0.0,-0.0,-0.0,-0.0135,-0.148,-0.1817,-0.1749,0.0,0.0,0.0,0.0,0.0,0.0,0.0,0.0,0.0,0.0,0.0,0.0,0.0,0.0,0.0,0.0,0.0,0.0,2.8223,2.8252,2.8113,2.7873,2.7206,2.6598,2.6053,2.4892,2.4227,2.4108,2.3585,2.3465,2.3659,2.307,2.2824,2.2887,2.1834,2.1646,2.2058,2.0449,1.9701,1.9669,1.8555,1.7171,1.5963,1.696,1.7296,1.7235,1.8106,1.8625,1.8359,1.5013,1.3777,1.392,1.4846,1.4167,1.267,1.1156,1.0035,0.8375,0.4386,0.17,-0.0,-0.0,-0.1557,-0.2517,-0.0177,0.0355,0.0357,0.0182,0.0176,-0.0346,-0.2214,-0.3747,-0.5196,-0.6433,-0.8748,-1.0073,-0.9238,-0.7729,-0.6673,-0.6398,0.1527,0.8891,1.3461,0.978,0.6212,0.4155,0.0,0.7849,0.6729,0.8353,0.8394,0.6479,0.8295,0.8827,0.7842,0.8836,0.8362,0.643,0.6416,0.6447,0.6369,0.6369,0.6366,0.6274,0.5983,0.3703,0.03,0.0214,0.014,0.014,0.0136,0.0135,0.0135,0.0135,0.2288,0.4314,0.0,0.0,0.0,0.0,0.0,0.0,0.0,0.0,0.0,0.0,0.0,0.0,0.0,0.0,0.0,0.0,0.0,0.0,2.9238,2.9744,3.0029,3.001,3.0131,2.9912,2.9304,2.946,2.9047,2.7994,2.7954,2.7646,2.7149,2.6046,2.5716,2.6,2.5373,2.548,2.6076,2.4752,2.4406,2.4556,2.2881,2.2475,2.2886,2.2505,2.3117,2.3973,2.257,2.2389,2.2173,1.8567,1.656,1.56,1.5213,1.3803,1.219,1.1113,0.9682,0.8121,0.5949,0.2778,-0.0,-0.0,0.1886,0.3919,0.453,0.499,0.5282,0.5211,0.5212,0.4094,0.0266,-0.0885,-0.1925,-0.378,-0.6106,-0.7711,-0.764,-0.4235,-0.0659,0.2479,0.5183,0.7799,1.0595,0.9137,0.8357,0.0,1.0145,1.0146,0.9057,0.9419,0.9153,0.8157,0.866,0.8808,0.8517,0.906,0.89,0.8134,0.8387,0.8174,0.7411,0.7411,0.6962,0.6095,0.5992,0.5312,0.4101,0.2617,0.2024,0.202,0.2034,0.2011,0.2011,0.2011,0.2614,0.3286,0.0,0.0,0.0,0.0,0.0,0.0,0.0,0.0,0.0,0.0,0.0,0.0,0.0,0.0,0.0,0.0,0.0,0.0,0.0,3.079,3.1235,3.1289,3.181,3.1901,3.1469,3.1699,3.1265,3.0198,3.0525,3.0343,2.9764,2.9361,2.9345,2.9596,2.891,2.9182,3.0122,2.883,2.862,0.0,0.0,2.731,2.7266,2.6881,2.7091,2.7365,2.6297,2.5675,2.4959,2.2344,1.9788,1.7513,1.6597,1.5166,1.3435,1.1446,0.9824,0.8376,0.6665,0.3997,0.1577,0.1615,0.3222,0.5331,0.7093,0.7595,0.782,0.8158,0.826,0.7348,0.3964,0.2626,0.1491,-0.0256,-0.1473,-0.2601,-0.3824,-0.0898,0.2919,0.7101,0.7492,0.8393,1.0833,1.029,1.0398,1.1934,1.1647,1.0972,0.9943,1.0506,1.0218,0.8875,0.9668,1.0056,0.9947,0.9834,0.9669,0.9529,0.9335,0.8993,0.8466,0.8466,0.8098,0.7463,0.0,0.6603,0.5633,0.4375,0.3903,0.391,0.3917,0.3892,0.3892,0.3892,0.3889,0.409,0.0,0.0,0.0,0.0,0.0,0.0,0.0,0.0,0.0,0.0,0.0,0.0,0.0,0.0,0.0,0.0,0.0,0.0,0.0,0.0,3.2116,3.2233,3.2863,3.3155,3.3031,3.2746,3.2294,3.166,3.2145,3.2176,3.1864,3.2494,3.2812,3.2844,3.2085,3.2497,3.3647,3.2368,3.2342,3.3005,3.2527,3.1465,3.0263,0.0,3.0013,2.9219,2.9254,2.8351,2.6897,2.5921,2.2921,1.9428,1.8362,1.6975,1.5041,1.2022,1.0207,0.8733,0.6799,0.5197,0.4005,0.4089,0.3847,0.4525,0.8054,0.8796,0.8968,0.9776,1.0014,0.9609,0.7914,0.6263,0.4692,0.3531,0.3761,0.3422,0.1634,0.2791,0.5235,0.9096,0.9067,0.9736,1.2393,1.2001,1.2116,1.3218,1.2359,1.1306,1.0375,1.1593,1.1321,0.9197,1.0824,1.163,1.1369,1.0833,1.0605,1.0504,0.9994,0.9599,0.9523,0.9523,0.9427,0.9231,0.0,0.0,0.6054,0.5862,0.5767,0.5719,0.5719,0.5719,0.5719,0.5719,0.5778,0.5903,0.0,0.0,0.0,0.0,0.0,0.0,0.0,0.0,0.0,0.0,2.7199,2.7552,0.0,0.0,0.0,0.0,0.0,0.0,0.0,0.0,0.0,3.4013,3.4179,3.4417,3.4768,3.4719,3.4494,3.4099,3.4186,3.4192,3.4134,3.3889,3.3766,3.377,3.3629,3.4054,3.4871,3.4479,3.478,3.5433,3.4791,3.4117,3.3499,3.3524,0.0,0.0,3.1342,2.9645,2.7941,2.7734,2.4747,2.0776,1.9386,1.6881,1.4132,1.2777,1.059,0.8218,0.669,0.6222,0.6182,0.6399,0.6229,0.6488,0.8209,0.8958,0.968,1.0976,1.1095,1.0911,1.0526,0.8283,0.6554,0.6708,0.6595,0.6997,0.8535,0.8147,0.838,1.0379,0.9751,0.9687,1.1023,1.174,1.2648,0.0,1.4347,1.3859,1.2408,1.2335,1.1906,1.095,1.106,1.1122,1.1069,1.1457,1.1526,1.1227,1.1604,1.1316,1.0565,1.0565,1.0005,0.916,0.9083,0.0,0.7918,0.7913,0.7726,0.7582,0.7582,0.7582,0.7582,0.7582,0.7577,0.7577,0.0,0.0,0.0,0.0,0.0,0.0,0.0,2.8586,2.8797,2.869,2.8245,2.8756,3.0852,3.1083,3.1448,0.0,0.0,0.0,0.0,0.0,0.0,0.0,0.0,0.0,3.5435,3.53,3.4913,3.4327,0.0,3.4468,3.4035,3.4269,3.4373,3.437,3.4364,3.4825,3.5531,3.4993,3.5489,3.656,3.5808,3.5606,3.5793,0.0,0.0,0.0,3.2839,3.1298,2.9706,2.9493,2.7097,2.3817,2.1644,1.8866,1.6283,1.4976,1.2735,1.0515,0.9812,0.9157,0.8647,0.8752,0.8678,0.9,1.0514,1.101,1.1566,1.3154,1.3499,1.3341,1.2687,1.1646,1.0646,1.0234,1.0258,1.0719,1.1741,1.1295,1.1112,1.1856,1.1677,1.1704,1.2265,1.3194,1.4057,1.4686,1.4806,1.4696,1.4268,1.3588,1.3005,1.2453,1.2183,1.2165,1.233,1.2818,1.3066,1.3142,1.357,1.3578,1.3048,1.2551,1.2324,1.2226,1.1592,0.0,1.0989,1.0618,1.0233,0.9886,0.942,0.9544,0.9814,0.8916,0.8776,0.8995,0.0,0.0,0.0,0.0,0.0,0.0,0.0,2.888,2.9303,2.8975,2.9033,2.9833,3.1795,3.1968,3.2301,0.0,0.0,0.0,0.0,0.0,0.0,0.0,0.0,0.0,0.0,0.0,0.0,3.462,3.4956,0.0,0.0,0.0,0.0,0.0,3.4888,3.5228,3.5943,3.5262,3.5883,0.0,0.0,3.6859,0.0,0.0,0.0,0.0,0.0,3.3173,3.18,3.1442,2.9833,2.7523,2.5022,2.2132,1.9394,1.79,1.579,1.3775,1.3628,1.2184,1.082,1.0767,1.0601,1.0869,1.2546,1.2956,1.3561,1.5518,1.5994,1.5914,1.5267,1.4971,1.458,1.3593,1.3629,1.3748,1.3824,1.3677,1.3642,1.378,1.3926,1.4034,1.4027,1.495,1.5483,1.5329,1.5121,0.0,1.5133,1.4361,1.3769,1.3418,1.3129,1.3215,1.3716,1.3941,1.433,1.4687,1.506,1.5275,1.527,1.4418,1.4497,1.5254,1.4206,0.0,0.0,1.3072,1.2613,1.2173,1.1362,1.1504,1.1933,1.05,1.02,1.0555,0.0,0.0,0.0,0.0,0.0,0.0,0.0,2.8868,2.9098,2.8214,2.8687,3.0094,3.2704,3.2865,3.3141,0.0,0.0,0.0,0.0,0.0,0.0,0.0,0.0,0.0,0.0,0.0,0.0,3.6628,3.656,0.0,0.0,0.0,0.0,0.0,0.0,3.551,3.6235,3.5922,0.0,0.0,0.0,0.0,0.0,0.0,0.0,0.0,0.0,3.5081,3.4022,3.3973,3.2997,3.1573,3.0188,2.6582,2.2622,2.1377,1.9312,1.7276,1.6641,1.4296,1.1983,1.1846,1.1156,1.0869,1.2546,1.3474,1.4778,1.7605,1.7967,1.8018,1.9069,1.7489,1.6061,1.6067,1.5322,1.5173,1.6357,1.5947,1.5783,1.6452,1.5979,1.5437,1.5125,1.593,1.6276,1.5842,1.6281,0.0,1.3687,1.3516,1.3443,1.341,1.3129,1.3339,1.4032,1.4065,1.433,1.4687,1.506,1.54,1.5707,1.524,1.5336,1.5698,1.5199,0.0,0.0,1.4536,1.4329,1.4024,1.35,1.3322,1.333,1.2825,1.2642,1.2728,0.0,0.0,0.0,0.0,0.0,0.0,2.8411,2.9171,2.964,2.8775,2.9225,3.0513,3.2782,3.343,3.4045,3.4968,0.0,0.0,0.0,0.0,0.0,0.0,0.0,0.0,0.0,0.0,3.6911,3.7738,3.7661,0.0,0.0,0.0,0.0,0.0,0.0,3.5987,3.5822,3.6043,0.0,0.0,0.0,0.0,0.0,0.0,0.0,0.0,0.0,0.0,3.5348,3.5352,3.4745,3.3707,3.2595,3.0769,2.8373,2.5227,2.2291,2.0116,2.0232,1.8267,1.6137,1.6093,1.5152,1.4496,1.552,1.6186,1.7062,1.8692,1.9239,1.9792,2.0767,1.9501,1.8581,1.9413,1.8829,1.8626,1.9813,1.9745,1.9364,1.8835,1.9033,1.8656,1.7315,1.7937,1.813,1.741,1.7528,0.0,1.6006,1.5378,1.4876,1.4629,1.4524,1.4726,1.5285,1.5542,1.5872,1.6342,1.6917,1.7183,1.711,1.6617,1.6944,1.7879,1.7139,0.0,0.0,1.793,1.7708,1.7516,1.7195,1.7124,1.7109,1.5747,1.5297,1.5207,0.0,0.0,0.0,0.0,0.0,3.0306,2.873,2.9543,3.0051,2.9206,2.9939,3.1179,3.2872,3.4234,3.5288,3.5974,3.6435,0.0,0.0,0.0,0.0,0.0,0.0,0.0,0.0,0.0,3.7808,3.8672,3.8353,3.8392,0.0,0.0,3.7815,3.745,0.0,0.0,0.0,0.0,0.0,0.0,0.0,0.0,0.0,0.0,0.0,0.0,0.0,0.0,0.0,0.0,0.0,3.4903,3.4201,3.3445,3.2108,2.821,2.5165,2.3179,2.3283,2.1534,1.9646,1.9353,1.8369,1.7517,1.775,1.8252,1.896,1.9921,2.0762,2.1549,2.2367,2.1872,2.1632,2.2352,2.2128,2.2135,2.2808,2.2775,2.2284,2.1198,2.1539,2.116,1.9274,1.9222,1.9112,1.8657,1.8295,0.0,1.7918,1.7062,1.629,1.5843,1.5736,1.5956,1.6504,1.692,1.7433,1.807,1.8822,1.9087,1.8914,1.8449,1.8831,1.9809,1.9023,0.0,0.0,2.021,2.0053,1.9946,1.9587,1.9598,1.9576,1.808,1.7451,1.7185,0.0,0.0,0.0,0.0,0.0,0.0,2.9527,3.0017,3.0158,2.9223,3.068,3.2151,3.3099,3.546,3.6964,3.6968,3.681,0.0,0.0,0.0,0.0,0.0,0.0,0.0,0.0,0.0,3.8719,3.9599,3.8658,3.8984,4.0431,3.8777,3.8464,3.9196,0.0,0.0,0.0,0.0,0.0,0.0,0.0,0.0,0.0,0.0,0.0,0.0,0.0,0.0,0.0,0.0,0.0,0.0,0.0,3.4287,3.2593,3.0022,2.8135,2.6735,2.5598,2.3628,2.1645,2.0641,1.9868,1.9129,1.8256,1.8834,2.0028,2.1748,2.2539,2.3237,2.4177,2.4915,2.5136,2.4502,2.4929,2.5289,2.5065,2.4698,2.4165,2.3525,2.3149,2.2284,2.0736,1.9197,1.8612,1.9333,0.0,0.0,1.8661,1.8015,1.7355,1.681,1.6565,1.6821,1.749,1.7819,1.8577,1.9705,2.0292,2.0783,2.1141,2.075,2.0794,0.0,0.0,0.0,0.0,2.0579,2.0579,2.0534,2.0093,1.9902,1.9845,1.9422,1.8938,1.8416,0.0,0.0,0.0,0.0,0.0,0.0,0.0,2.9911,3.0016,2.9193,3.0554,3.1773,3.2266,3.513,3.7003,3.7006,3.7963,0.0,0.0,0.0,0.0,0.0,0.0,0.0,0.0,0.0,3.8734,3.9593,3.8759,3.8858,3.9865,3.9258,3.9108,3.9339,3.8738,3.82,0.0,0.0,0.0,0.0,0.0,0.0,4.0354,0.0,0.0,0.0,0.0,0.0,0.0,0.0,0.0,0.0,0.0,0.0,0.0,3.2424,3.0477,2.8653,2.7398,2.606,2.4716,2.347,2.2219,2.1162,2.0436,2.1079,2.2042,2.2502,2.401,2.5303,2.5457,2.5766,2.607,2.6251,2.577,2.5791,2.6955,2.7054,2.6665,2.5652,2.4302,2.3075,2.2063,0.0,2.1017,2.0412,0.0,0.0,1.9475,1.9254,1.859,1.7398,1.728,1.7357,1.7578,1.7997,1.8559,1.9287,2.0124,2.0604,2.0826,2.0928,2.1243,0.0,0.0,0.0,0.0,2.2153,2.1886,2.128,2.1837,2.1885,2.1475,2.1185,2.0745,2.0252,0.0,0.0,0.0,0.0,0.0,0.0,0.0,3.0017,2.9992,2.9644,3.1018,3.2131,3.2362,3.5227,3.7228,3.7502,3.873,0.0,0.0,0.0,0.0,0.0,0.0,0.0,3.8633,3.9035,3.9195,3.9101,3.8637,3.8644,3.9108,3.8659,3.8965,3.9858,3.9123,3.8753,0.0,0.0,0.0,0.0,0.0,0.0,4.0562,0.0,0.0,0.0,0.0,0.0,0.0,0.0,0.0,0.0,0.0,0.0,0.0,0.0,3.2456,3.0982,2.9127,2.8159,2.7215,2.5616,2.4625,2.3786,2.2486,2.2917,2.3533,2.3514,2.4812,2.5967,2.5988,2.6458,2.7011,2.7604,2.7112,2.7146,2.8586,2.8654,2.8082,2.6813,2.5082,2.3688,0.0,2.2517,2.1944,2.1188,0.0,0.0,2.0207,1.9952,1.9371,1.8447,1.8167,1.8032,1.8125,1.879,1.9391,2.0018,2.0976,2.1467,2.1553,2.1806,2.1993,0.0,0.0,0.0,0.0,2.3196,2.2959,2.2171,2.3145,2.3149,2.2602,2.2384,2.2043,2.1546,0.0,0.0,0.0,0.0,0.0,0.0,0.0,3.027,3.0123,3.0381,3.1877,3.2995,3.3175,3.5648,3.7574,3.8242,0.0,0.0,0.0,0.0,0.0,0.0,0.0,0.0,3.9461,4.0235,3.9857,3.83,3.8301,3.828,3.821,3.7392,3.8299,4.0543,3.8854,3.8614,3.9504,0.0,0.0,0.0,0.0,0.0,0.0,0.0,0.0,0.0,0.0,0.0,0.0,0.0,0.0,0.0,0.0,0.0,0.0,0.0,0.0,0.0,0.0,2.9911,2.919,2.7145,2.6947,2.6686,2.4506,2.4258,0.0,2.4638,2.5059,2.5621,2.6118,2.7143,2.8125,2.8704,2.8948,2.9361,3.012,2.9735,2.884,2.7363,2.5592,2.4166,2.3423,2.2415,2.1708,0.0,0.0,0.0,2.0779,2.0143,1.9812,1.985,1.915,1.8867,1.9033,1.9928,2.0738,2.1443,2.251,2.2965,2.2965,2.304,2.2836,0.0,0.0,0.0,0.0,2.3825,2.3917,2.3242,2.3989,2.3826,2.3198,2.3138,2.2752,2.2318,0.0,0.0,0.0,0.0,0.0,0.0,0.0,0.0,0.0,0.0,3.1949,3.3093,3.3184,3.5615,3.7262,0.0,0.0,0.0,0.0,0.0,0.0,0.0,0.0,0.0,4.0215,3.9342,3.8684,3.8299,3.7802,3.7543,3.7539,3.7824,3.8656,3.9841,3.9253,3.9522,4.0402,4.0593,0.0,0.0,0.0,0.0,0.0,0.0,0.0,0.0,3.77,3.6449,0.0,0.0,0.0,0.0,0.0,0.0,0.0,0.0,3.492,3.4639,3.3348,0.0,3.093,2.8854,2.8388,2.7871,0.0,2.5459,2.5629,2.4619,2.5678,2.7109,2.8068,2.9204,3.0368,3.1477,3.1774,3.2185,3.3067,3.201,3.0606,2.9137,2.6812,2.4684,2.2996,2.2614,2.2032,0.0,0.0,2.0729,2.0803,2.0184,2.0054,2.0534,1.9888,1.9581,1.9623,1.9843,2.0254,2.092,2.1543,2.1882,2.1895,2.2749,2.2836,0.0,0.0,0.0,2.3267,2.4595,2.4777,2.4176,2.4279,2.4176,2.3943,2.3305,2.299,2.2902,0.0,0.0,0.0,0.0,0.0,0.0,0.0,0.0,0.0,0.0,0.0,0.0,0.0,0.0,0.0,0.0,0.0,0.0,0.0,0.0,0.0,0.0,0.0,3.9027,3.9915,3.9588,3.8839,3.7697,3.7775,3.7424,3.6727,3.7389,3.8384,3.961,3.9869,4.0275,4.075,4.0984,4.1055,0.0,4.0976,0.0,0.0,0.0,0.0,0.0,3.688,3.5616,0.0,3.4043,3.3057,3.2098,0.0,0.0,0.0,0.0,3.4812,3.5264,3.4697,3.3666,3.2362,3.0728,2.9802,2.8874,2.73,2.6595,2.6012,2.4999,2.5831,2.6989,2.7805,2.9386,3.1029,3.263,3.357,3.4215,3.4528,3.2747,3.0879,2.9428,2.698,2.4768,0.0,2.2732,0.0,0.0,0.0,2.0713,2.0751,2.0416,2.0449,2.0819,2.0722,2.037,1.9798,2.0062,2.0351,2.0731,2.123,2.1493,2.1506,2.2108,2.2369,0.0,0.0,0.0,2.4001,2.5033,2.5266,2.4887,2.4888,2.4804,2.4724,2.3943,2.3662,2.359,0.0,0.0,0.0,0.0,0.0,0.0,0.0,0.0,0.0,0.0,0.0,0.0,0.0,0.0,0.0,0.0,0.0,0.0,0.0,0.0,0.0,0.0,3.8652,3.9099,3.9092,3.9777,3.9077,3.6986,3.7946,3.7636,3.6211,3.7016,3.817,3.9591,4.0292,4.0681,4.0809,4.1082,4.1191,4.1191,4.1183,0.0,0.0,0.0,0.0,0.0,0.0,0.0,0.0,3.3199,3.205,3.0643,3.0767,0.0,0.0,0.0,0.0,0.0,3.5128,3.4567,3.3736,3.2534,3.127,3.0108,2.927,2.7784,2.6439,2.5837,2.5894,2.6422,2.7607,2.9231,3.116,3.352,3.509,3.5939,3.5726,3.3335,3.104,2.9426,2.6902,0.0,2.346,0.0,0.0,0.0,0.0,2.0602,2.0676,2.0682,2.0695,2.0792,2.1186,2.0954,1.9965,2.0447,2.0633,2.0592,2.1104,2.1317,2.1242,2.1516,2.1902,0.0,0.0,0.0,2.457,2.5206,2.554,2.5586,2.5526,2.554,2.5453,2.4738,2.4452,2.4394,0.0,0.0,0.0,0.0,0.0,0.0,0.0,0.0,0.0,0.0,0.0,0.0,0.0,0.0,0.0,0.0,0.0,0.0,0.0,0.0,0.0,3.7107,3.781,3.8204,3.82,3.7728,3.73,3.692,3.7912,3.7929,3.7055,3.8521,3.9247,3.9369,3.9662,4.0166,4.0809,4.1082,4.1191,4.119,4.1073,0.0,0.0,0.0,0.0,0.0,0.0,0.0,0.0,3.3219,3.2085,3.0801,3.1541,0.0,0.0,0.0,0.0,0.0,3.4505,3.5239,3.5607,3.3825,3.302,3.219,3.027,2.9121,2.8235,2.7308,2.6615,2.7382,3.1349,3.1396,3.2214,3.6473,3.7595,3.8131,3.878,3.6022,3.3136,3.1099,0.0,2.5281,2.3347,0.0,0.0,0.0,0.0,2.0117,2.0659,2.0168,2.0116,2.0684,2.0295,2.0288,2.0656,2.0735,2.0488,1.9936,2.0514,2.0539,2.0087,2.1611,2.206,0.0,0.0,2.4412,2.4562,2.5291,2.5883,2.6361,2.5727,2.5816,2.6229,2.5508,2.5231,2.5231,0.0,0.0,0.0,0.0,0.0,0.0,0.0,0.0,0.0,0.0,0.0,0.0,0.0,0.0,0.0,0.0,0.0,0.0,0.0,0.0,3.7841,3.6935,3.7031,3.7146,3.7291,3.7416,3.7305,3.6901,3.7395,3.7207,3.6428,3.8035,3.92,3.995,4.0123,4.043,4.0809,4.1004,4.1085,4.109,0.0,0.0,0.0,0.0,0.0,0.0,0.0,0.0,0.0,0.0,3.167,3.0714,3.1166,0.0,0.0,0.0,0.0,0.0,3.374,3.4041,3.4289,3.3826,3.3605,3.3073,3.1501,3.0176,2.9091,2.8365,2.7937,2.8483,3.1111,3.2073,3.3931,3.8451,3.9305,3.9266,3.8931,3.6443,3.375,0.0,0.0,2.5995,0.0,0.0,0.0,0.0,0.0,0.0,2.0139,2.0203,2.0372,2.0705,2.0758,2.0983,2.129,2.1314,2.1124,2.0805,2.0412,2.0451,2.0818,2.1336,2.1958,2.2762,0.0,2.4471,2.5066,2.5072,2.5465,2.6016,2.5697,2.5933,2.6513,2.6154,2.5728,2.5398,0.0,0.0,0.0,0.0,0.0,0.0,0.0,0.0,0.0,0.0,0.0,0.0,0.0,0.0,0.0,0.0,0.0,0.0,0.0,3.7552,3.7272,3.6539,3.6198,3.6139,3.6406,3.6953,3.7015,3.657,3.6781,3.6637,3.62,3.7417,3.8761,4.0117,4.0258,4.0488,4.082,4.0938,4.1,4.0985,0.0,0.0,0.0,0.0,0.0,0.0,0.0,0.0,0.0,0.0,0.0,0.0,0.0,0.0,0.0,3.1816,3.2383,3.2986,3.2932,3.2986,3.316,3.3689,3.3689,3.3405,3.2857,3.1559,3.0398,3.0173,3.0011,3.0207,3.112,3.3159,3.5799,3.9129,3.9821,3.9514,3.8304,3.6093,3.3595,3.0846,2.8521,0.0,0.0,0.0,0.0,0.0,0.0,0.0,1.9874,2.0257,2.0483,2.0483,2.1126,2.1454,2.1454,2.1614,2.169,2.1697,2.0706,2.0756,2.1697,2.1403,2.2048,2.3461,2.3615,2.4231,2.5106,2.4777,2.4881,2.542,2.5719,2.6243,2.6822,2.6806,2.6283,2.5673,0.0,0.0,0.0,0.0,0.0,0.0,0.0,0.0,0.0,0.0,0.0,0.0,0.0,0.0,0.0,0.0,0.0,0.0,0.0,3.5412,3.5651,3.5354,3.5255,3.5305,3.557,3.5169,3.5151,3.5589,3.6232,3.6896,3.756,3.7674,3.8194,3.9011,3.91,3.9749,4.0805,4.0949,4.1,4.0985,4.085,0.0,0.0,0.0,0.0,0.0,0.0,0.0,0.0,0.0,0.0,0.0,0.0,0.0,3.0706,3.0797,3.1426,3.2087,3.2094,3.3188,3.4275,3.3968,3.3468,3.3308,3.4366,3.3775,3.3172,3.3694,3.3199,3.2887,3.3761,3.5824,3.7489,3.7739,3.8411,3.8594,3.768,0.0,3.2779,3.0332,2.7834,0.0,0.0,0.0,0.0,0.0,0.0,0.0,2.0246,1.9955,1.975,1.975,2.0423,2.0774,2.078,2.1393,2.169,2.1697,2.1602,2.1602,2.1697,2.23,2.2632,2.2812,2.3349,2.3656,2.3789,2.4373,2.4612,2.4776,2.6033,2.6916,2.75,2.7494,2.7034,2.651,0.0,0.0,0.0,0.0,0.0,0.0,0.0,0.0,0.0,0.0,0.0,0.0,0.0,0.0,0.0,0.0,0.0,0.0,0.0,3.4601,3.4849,3.5135,3.4948,3.4767,3.4578,3.4648,3.4793,3.4999,3.5424,3.6363,3.775,3.7622,3.8309,3.9643,3.9678,4.0087,4.0727,4.0832,4.0858,4.0801,4.0808,4.0504,0.0,0.0,0.0,0.0,0.0,0.0,0.0,0.0,3.0698,3.0448,3.0487,3.0527,3.0549,3.0614,3.0907,3.1172,3.1142,3.2402,3.3677,3.3416,3.3853,3.4376,3.4418,3.3942,3.3491,3.3577,3.3654,3.3827,3.4169,3.6087,3.7273,3.6323,3.7192,3.7602,3.6415,3.4319,3.2084,2.9776,0.0,0.0,0.0,0.0,0.0,0.0,0.0,0.0,2.0764,2.033,2.0054,2.0054,2.0481,2.0917,2.1321,2.1999,2.2526,2.2891,2.2072,2.2132,2.2891,2.2785,2.292,2.3275,2.3508,2.3595,2.3625,2.3879,2.4238,2.4716,2.6078,2.6991,2.7625,2.7625,2.7408,2.7203,0.0,0.0,0.0,0.0,0.0,0.0,0.0,0.0,0.0,0.0,0.0,0.0,0.0,0.0,0.0,0.0,0.0,0.0,3.3436,3.3678,3.4011,3.4543,3.4383,3.4026,3.3409,3.3828,3.4184,3.4475,3.4903,3.5744,3.6982,3.7262,3.7928,3.8918,3.9335,3.968,3.9965,3.9995,4.0134,4.0357,4.0424,4.0489,0.0,0.0,0.0,0.0,0.0,0.0,0.0,0.0,3.0497,3.0286,3.0324,3.04,3.0487,3.0564,3.0626,3.0668,3.0682,3.1765,3.2917,3.306,3.4013,3.4846,3.4585,3.4409,3.4275,3.4095,3.3941,3.4066,3.4566,3.5684,3.6104,3.4888,3.5685,3.5851,3.4134,3.2403,3.0557,2.8444,0.0,0.0,0.0,0.0,0.0,0.0,0.0,0.0,0.0,2.0748,2.0449,2.0299,2.067,2.0948,2.1066,2.2128,2.2787,2.2996,2.2509,2.2741,2.361,2.3157,2.3187,2.3595,2.3595,2.3595,2.361,2.3834,2.4328,2.5031,2.5929,2.6677,2.729,2.755,2.7625,2.7595,0.0,0.0,0.0,0.0,0.0,0.0,0.0,0.0,0.0,0.0,0.0,0.0,0.0,0.0,0.0,0.0,0.0,0.0,3.1696,3.2449,3.3042,3.3382,3.3399,3.2985,3.211,3.2451,3.3068,3.3995,3.4749,3.5136,3.5242,3.6506,3.6799,3.6382,3.7707,3.8287,3.8293,3.8293,3.8793,3.9591,3.9669,4.0085,4.0504,0.0,0.0,0.0,0.0,0.0,0.0,0.0,3.0719,2.9999,2.9999,3.0182,3.0417,3.0564,3.0602,3.0656,3.0843,3.1445,3.2233,3.3102,3.3808,3.4468,3.507,3.5566,3.5893,3.5892,3.4476,3.3687,3.5188,3.488,3.4166,3.3466,3.3802,3.3276,3.0737,2.9455,2.8089,0.0,0.0,0.0,0.0,0.0,0.0,0.0,0.0,0.0,0.0,2.1213,2.0797,2.0348,2.098,2.0778,1.9741,2.1719,2.2353,2.1724,2.2996,2.3595,2.3595,2.3595,2.3595,2.3595,2.3595,2.3595,2.3655,2.4343,2.5016,2.56,2.5615,2.6004,2.6662,2.737,2.761,2.7505,0.0,0.0,0.0,0.0,0.0,0.0,0.0,0.0,0.0,0.0,0.0,0.0,0.0,0.0,0.0,0.0,0.0,0.0,3.1395,3.1826,3.2384,3.3089,3.3294,3.2966,3.2055,3.231,3.2863,3.3728,3.4662,3.5427,3.6045,3.6192,3.647,3.6876,3.7284,3.7601,3.7838,3.8156,3.8397,3.8555,3.8709,3.9232,3.9723,0.0,0.0,0.0,0.0,0.0,0.0,0.0,0.0,0.0,3.0125,3.0481,3.0967,3.0566,3.0965,3.139,3.0838,3.2251,3.3795,3.3409,3.4828,3.615,3.543,3.5318,3.5496,3.6058,3.5299,3.4411,3.4031,3.4106,3.3459,3.105,3.1149,3.1044,2.9679,2.8192,0.0,0.0,0.0,0.0,0.0,0.0,0.0,0.0,0.0,0.0,0.0,2.1675,2.1368,2.1228,2.1596,2.149,2.0829,2.2355,2.2859,2.2398,2.3206,2.3595,2.3595,2.3595,2.3595,2.3595,2.3595,2.3595,2.3655,2.4343,2.4701,2.4956,2.5435,2.5734,2.5974,2.6632,2.6587,2.6228,0.0,0.0,0.0,0.0,0.0,0.0,0.0,0.0,0.0,0.0,2.9644,2.9755,0.0,0.0,0.0,0.0,0.0,0.0,0.0,3.103,3.1474,3.2139,3.2334,3.2253,3.1935,3.2038,3.2664,3.3761,3.4651,3.5458,3.6122,3.5968,3.6037,3.6309,3.6421,3.6535,3.6645,3.6605,3.7,3.7647,3.7514,3.8122,3.8965,0.0,0.0,0.0,0.0,0.0,0.0,0.0,0.0,0.0,3.0731,3.0949,3.1306,3.065,3.1109,3.1751,3.1255,3.2825,3.4485,3.3918,3.5198,3.6403,3.5629,3.5311,3.5246,3.5531,3.4894,3.4041,3.3182,3.3121,3.2434,3.0086,2.9798,2.9467,2.8275,2.6948,0.0,0.0,0.0,0.0,0.0,0.0,0.0,0.0,0.0,0.0,0.0,2.2032,2.1927,2.2024,2.2199,2.2226,2.2047,2.3127,2.3553,2.331,2.3727,2.3921,2.3921,2.3681,2.3595,2.3595,2.3595,2.3595,2.3625,2.4044,2.4223,2.4283,2.4956,2.5211,2.53,2.5959,2.5959,2.563,0.0,0.0,0.0,0.0,0.0,0.0,0.0,0.0,0.0,0.0,2.955,2.9702,0.0,0.0,0.0,0.0,0.0,0.0,0.0,3.0208,3.0485,3.0829,3.0841,3.1119,3.1691,3.1728,3.2447,3.3901,3.4742,3.5337,3.5695,3.5779,3.5532,3.5072,3.5293,3.5277,3.5057,3.4318,3.5044,3.668,3.6016,3.6727,3.8093,3.7191,0.0,0.0,0.0,0.0,0.0,0.0,0.0,0.0,3.1653,3.1651,3.1712,3.0861,3.1277,3.2016,3.1926,3.3223,3.4598,3.452,3.5108,3.5702,3.57,3.5509,3.5189,3.4606,3.3808,3.3064,3.2603,3.2,3.1162,3.0009,2.927,2.8283,2.6697,2.5813,0.0,0.0,0.0,0.0,0.0,0.0,0.0,0.0,0.0,0.0,0.0,2.231,2.2442,2.276,2.2777,2.2932,2.3262,2.3919,2.4253,0.0,2.4383,2.4471,2.4471,2.3879,2.3595,2.3595,2.3595,2.3595,2.3595,2.3595,2.3595,2.3655,2.4283,2.4492,2.4567,2.527,2.548,2.5345,0.0,0.0,0.0,0.0,0.0,0.0,0.0,0.0,0.0,0.0,0.0,0.0,0.0,0.0,0.0,0.0,0.0,0.0,0.0,2.9814,3.0013,3.0346,3.0341,3.0502,3.084,3.1672,3.2439,3.3149,3.4719,3.5546,3.5606,3.522,3.4946,3.4793,3.4566,3.4465,3.4381,3.406,3.4196,3.4599,3.4095,3.4936,3.6339,3.4744,3.4996,0.0,0.0,0.0,0.0,0.0,0.0,0.0,3.2308,3.2802,3.3111,3.1821,3.2545,3.3481,3.2177,3.3595,3.529,3.466,3.5105,3.5705,3.5693,3.5731,3.5524,3.4686,3.4272,3.3625,3.223,3.1117,2.9985,2.8572,2.7534,2.6584,2.5696,2.5418,0.0,0.0,0.0,0.0,0.0,0.0,0.0,0.0,0.0,0.0,2.2293,2.231,2.2603,2.3224,2.324,2.341,2.3753,2.4357,2.4525,0.0,2.4754,2.5028,2.4989,2.4032,2.3595,2.3595,2.3595,2.3595,2.3595,2.3595,2.3595,2.361,2.3759,2.3819,2.3909,2.4582,2.4492,2.4088,0.0,0.0,0.0,0.0,0.0,0.0,0.0,0.0,0.0,0.0,0.0,0.0,0.0,0.0,0.0,0.0,0.0,0.0,0.0,0.0,2.9747,2.9803,2.9803,3.0109,3.0783,3.1336,3.2292,3.367,3.4617,3.5263,3.5644,3.5207,3.4883,3.4674,3.4357,3.42,3.4149,3.3412,3.3442,3.3925,3.3027,3.35,3.4592,3.3652,3.3854,3.4529,3.3549,0.0,0.0,0.0,0.0,0.0,0.0,0.0,3.2651,3.1924,3.2333,3.2923,3.2302,3.3421,3.4806,3.4817,3.5249,3.5659,3.5698,3.5795,3.5517,3.4198,3.3832,3.3242,3.1534,3.0349,2.9231,2.8091,2.6998,2.607,2.5379,2.5214,0.0,0.0,0.0,0.0,0.0,0.0,0.0,0.0,0.0,2.2989,2.2527,2.25,2.292,2.3913,2.3917,2.4349,2.523,2.5564,2.5594,2.5419,2.553,2.5297,2.4776,2.4225,2.3837,2.3595,2.3595,2.3595,2.3595,2.3595,2.3595,2.3595,2.3595,2.3595,2.364,2.3999,2.3909,2.3655,0.0,0.0,0.0,0.0,0.0,0.0,0.0,0.0,0.0,0.0,0.0,0.0,0.0,0.0,0.0,0.0,0.0,0.0,0.0,0.0,0.0,2.9531,2.9554,2.9993,3.0957,3.1265,3.2352,3.4268,3.4563,3.504,3.5683,3.5372,3.5051,3.4715,3.4338,3.4152,3.4054,3.2691,3.2732,3.357,3.2235,3.2254,3.3074,3.2921,3.2936,3.3041,3.2876,3.2817,3.2823,3.2812,0.0,0.0,0.0,0.0,3.1891,3.1737,3.1795,3.1969,3.2214,3.2994,3.3999,3.5119,3.5451,3.5542,3.5628,3.5757,3.5361,3.3646,3.3248,3.2688,3.0921,2.966,2.8659,2.8005,2.6852,2.5862,2.531,2.5096,0.0,0.0,0.0,0.0,0.0,0.0,0.0,0.0,0.0,2.3414,2.2746,2.2695,2.3192,2.4286,2.4438,2.5135,2.6488,2.664,2.6691,2.6691,2.6297,2.5598,2.4672,2.4672,2.4348,2.3709,2.3638,2.3724,2.3879,2.3681,2.3638,2.3709,2.3638,2.3595,2.3595,2.3595,2.3681,2.3767,0.0,0.0,0.0,0.0,0.0,0.0,0.0,0.0,0.0,0.0,2.8988,2.9709,0.0,0.0,0.0,0.0,0.0,0.0,2.859,0.0,0.0,3.0076,3.0106,3.035,3.0904,3.2345,3.3157,3.3295,3.4727,3.5537,3.57,3.5427,3.5117,3.4775,3.4367,3.4068,3.3758,3.2405,3.2088,3.2321,3.0975,3.1133,3.2092,3.1322,3.1518,3.2087,3.1437,3.1095,3.1081,3.1802,3.2018,0.0,0.0,0.0,3.2602,3.191,3.2199,3.2545,3.1694,3.2438,3.3885,3.5696,3.567,3.5226,3.5465,3.5603,3.5174,3.3543,3.3244,3.2745,3.0925,2.9098,2.7887,2.7909,2.6257,2.5015,2.503,2.4917,0.0,0.0,0.0,0.0,0.0,0.0,0.0,0.0,2.3692,2.3414,2.2746,2.2695,2.2968,2.3541,2.4154,2.4881,2.5744,2.6387,2.6691,2.6691,2.6624,2.6332,2.5779,2.5779,2.5259,2.4266,2.3794,2.4116,2.4894,2.3991,2.3879,2.4225,2.3794,2.3595,2.3595,2.3595,2.3879,2.4266,0.0,0.0,0.0,0.0,0.0,0.0,0.0,0.0,0.0,0.0,0.0,2.9209,0.0,0.0,0.0,2.9621,2.9314,2.9026,2.876,2.8902,2.9177,2.9496,2.9965,3.0153,3.0054,3.1223,3.1877,3.1976,3.3323,3.4303,3.4929,3.5324,3.5359,3.5012,3.464,3.4311,3.3926,3.2437,3.1946,3.2071,3.0746,3.06,3.1122,3.0733,3.0842,3.1172,3.0846,3.0755,3.0818,3.112,3.1534,3.1965,3.2242,0.0,0.0,0.0,3.1527,3.136,3.1713,3.258,3.3753,3.5243,3.5455,3.5354,3.546,3.5565,3.513,3.3523,3.3253,3.2748,3.0928,2.91,2.7887,2.7909,2.6168,2.4842,2.4986,2.4795,0.0,0.0,0.0,0.0,0.0,0.0,0.0,0.0,2.3976,2.3774,2.33,2.3069,2.3206,2.3659,2.3816,2.4441,2.5592,2.593,2.6285,2.6691,2.6691,2.6436,2.6013,2.6013,2.5577,2.4831,2.4592,2.4736,2.5182,2.4712,2.4632,2.4816,2.4592,2.4511,2.4511,2.4511,2.4672,2.4918,0.0,0.0,0.0,0.0,0.0,0.0,0.0,0.0,0.0,0.0,0.0,0.0,0.0,0.0,0.0,0.0,2.9491,2.927,2.9021,2.8994,2.9085,2.9287,2.9874,3.0056,2.9709,3.0493,3.0958,3.1075,3.2065,3.302,3.3903,3.4612,3.4839,3.467,3.448,3.4143,3.3583,3.2028,3.1619,3.1845,3.0585,3.0374,3.0814,3.058,3.0669,3.0911,3.0948,3.1045,3.1164,3.13,3.1625,3.1992,3.1896,3.168,0.0,0.0,0.0,3.0216,3.1504,3.226,3.3015,3.4337,3.4863,3.5144,3.5435,3.5545,3.5185,3.3766,3.3371,3.2789,3.1211,2.9516,2.833,2.8236,2.6511,2.5205,2.526,2.481,0.0,0.0,0.0,0.0,0.0,0.0,0.0,0.0,2.419,2.4036,2.3714,2.3459,2.34,2.3596,2.3545,2.4092,2.5304,2.5693,2.6167,2.6691,2.6691,2.6521,2.6191,2.6191,2.5944,2.5561,2.5297,2.5335,2.5561,2.5297,2.5297,2.5373,2.5259,2.5221,2.5221,2.5221,2.5297,2.5492,0.0,0.0,0.0,0.0,0.0,0.0,0.0,0.0,0.0,0.0,0.0,0.0,2.8563,2.8925,2.9082,2.8883,2.8619,2.8615,2.8984,2.8994,2.9342,3.0112,3.0186,0.0,3.0528,3.1334,3.1499,3.1013,3.1824,3.2428,3.2775,3.2821,3.2982,3.3229,3.3525,3.3125,3.2127,3.0816,3.0684,3.1251,3.0175,3.0537,3.1634,3.0818,3.1017,3.1753,3.1874,3.1889,3.1966,3.2785,3.2589,3.1975,3.184,3.1244,3.0574,0.0,0.0,0.0,3.0752,3.0864,3.1173,3.3014,3.3691,3.4159,3.5254,3.5493,3.5262,3.4428,3.3684,3.2922,3.2007,3.0451,2.9291,2.914,2.7496,2.6154,2.5981,2.5107,0.0,0.0,0.0,0.0,0.0,0.0,0.0,0.0,2.419,2.4036,2.3714,2.3692,2.3387,2.2773,2.35,2.4082,2.4557,2.593,2.6657,2.6691,2.6691,2.6691,2.6657,2.6657,2.6657,2.6573,2.5635,2.5746,2.6539,2.5598,2.5503,2.5888,2.5411,2.5221,2.5221,2.5221,2.554,2.5977,0.0,0.0,0.0,0.0,0.0,0.0,0.0,0.0,0.0,0.0,0.0,0.0,0.0,2.9004,2.9393,2.9211,2.8693,2.8448,2.8597,2.8412,2.8513,2.9025,2.9541,2.9728,2.9576,3.0378,3.0424,2.9718,3.0689,3.1337,3.1682,3.2423,3.26,3.2279,3.2628,3.2536,3.209,3.0761,3.075,3.1541,3.0637,3.0979,3.1922,3.1264,3.1602,3.2395,3.2058,3.2304,3.2932,3.3793,3.3917,3.3558,3.2948,3.2516,3.1965,3.0585,3.0052,3.0083,3.0934,3.1097,3.1381,3.2749,3.358,3.4155,3.457,3.5103,3.5262,3.4466,3.3698,3.2957,3.2114,3.0552,2.9358,2.9228,2.756,2.6263,2.6198,2.5328,0.0,0.0,0.0,0.0,0.0,0.0,0.0,0.0,0.0,2.4151,2.4016,2.3816,2.35,2.3045,2.3076,2.356,2.4506,2.5947,2.6691,2.6691,2.6691,2.6691,2.6691,2.6691,2.6691,2.6691,2.6315,2.635,2.6657,2.6315,2.628,2.6436,2.6245,2.6158,2.6158,2.6158,2.628,2.652,0.0,0.0,0.0,0.0,0.0,0.0,0.0,0.0,0.0,2.5063,0.0,0.0,0.0,0.0,2.9551,2.9235,2.87,2.835,2.8237,2.802,2.7992,2.8237,2.8855,2.9083,2.8804,2.9302,2.932,2.8804,2.9504,3.0052,3.0452,3.1385,3.1668,3.1378,3.1551,3.1569,3.1389,3.0268,3.0461,3.1456,3.0849,3.1385,3.2487,3.1922,3.2297,3.3096,3.2814,3.3135,3.3833,3.4681,3.4793,3.4443,3.3558,3.2823,3.2006,3.0561,3.0075,3.0132,3.0719,3.0852,3.1168,3.2478,3.3083,3.3506,3.4064,3.4641,3.4897,3.4384,3.3915,3.3373,3.2561,3.1247,3.0144,2.9743,2.8325,2.7236,2.716,2.6083,0.0,0.0,0.0,0.0,0.0,0.0,0.0,0.0,0.0,0.0,2.4593,2.4142,2.3671,2.3212,2.3135,2.3423,2.4133,2.5338,2.6082,2.6336,2.6336,2.6454,2.6691,2.6691,2.6691,2.6691,2.6691,2.6691,2.6691,2.6691,2.6691,2.6691,2.6691,2.6691,2.6691,2.6691,2.686,2.7148,0.0,0.0,0.0,0.0,0.0,0.0,0.0,0.0,2.5299,2.4373,0.0,0.0,0.0,0.0,0.0,2.8782,2.8481,2.8201,2.7926,2.7869,2.7869,2.7897,2.821,2.8378,2.8389,2.8404,2.8404,2.8389,2.8404,2.8633,2.9094,2.9626,3.0075,3.0443,3.0321,3.0139,2.9931,2.9277,2.9755,3.0904,3.0706,3.1738,3.3334,3.2759,3.3051,3.3856,3.4176,3.4404,3.4642,3.5463,3.5256,3.448,3.3526,3.1987,3.0525,3.0456,3.0247,3.0032,0.0,0.0,0.0,3.2161,3.2158,3.216,3.3795,3.418,3.4199,3.4199,3.4359,3.4243,3.339,3.2567,3.1716,3.079,2.9829,2.9116,2.8861,2.7389,0.0,0.0,0.0,0.0,0.0,0.0,0.0,0.0,2.5421,2.5439,2.5403,2.4649,2.3933,2.3271,2.365,2.3732,2.3422,2.415,2.4847,2.5575,2.5592,2.5981,2.6657,2.6674,2.6691,2.6691,2.6691,2.6691,2.6691,2.6691,2.6691,2.6691,2.6691,2.6691,2.6691,2.6691,2.7182,2.7789,0.0,0.0,0.0,0.0,0.0,2.6376,2.5608,2.4782,2.4447,0.0,0.0,0.0,2.7155,2.7665,2.7807,2.7402,2.703,2.7109,2.7862,2.7365,2.7303,2.7869,2.801,2.8147,2.8386,2.8394,2.8394,2.8404,2.8394,2.8567,2.8876,2.8929,2.9104,2.9337,2.9303,2.9252,2.9206,2.927,3.0064,3.1256,3.1204,3.2207,3.366,3.3293,3.36,3.4241,3.4285,3.4633,3.5235,3.6287,3.6145,3.5372,3.4437,3.2904,3.1436,3.1371,3.1296,3.1085,3.0452,0.0,0.0,0.0,0.0,0.0,3.3141,3.3737,3.4199,3.4199,3.4359,3.4429,3.4175,3.3057,3.2022,3.167,3.0269,2.9152,2.9037,2.8123,0.0,0.0,0.0,0.0,0.0,0.0,0.0,0.0,2.5933,2.6007,2.5439,2.496,2.4621,2.4446,2.4102,2.3843,2.376,2.4254,2.4594,2.4797,2.5355,2.571,2.593,2.6454,2.6691,2.6691,2.6691,2.6691,2.6691,2.6691,2.6691,2.6691,2.6691,2.6691,2.6691,2.6691,2.7182,2.7789,0.0,0.0,0.0,0.0,0.0,2.6263,2.5574,2.4499,2.4058,0.0,0.0,0.0,2.7861,2.7664,2.7386,2.728,2.6883,2.6866,2.7361,2.6971,2.6906,2.7378,2.756,2.7816,2.819,2.8049,2.801,2.82,2.8192,2.8296,2.8554,2.8933,2.9036,2.896,2.9412,2.9353,2.8975,2.9382,3.0144,3.1099,3.1305,3.2238,3.3469,3.3464,3.3803,3.4207,3.3959,3.383,3.3955,3.532,3.5506,3.5059,3.4569,3.3462,3.2263,3.1833,3.1698,3.1583,3.1083,3.1314,3.1872,3.2564,0.0,0.0,3.2814,3.3026,3.316,0.0,3.3576,3.3846,3.3468,3.3018,3.2557,3.2079,3.1365,3.0588,2.9798,2.8929,0.0,0.0,0.0,0.0,0.0,2.6951,2.6906,2.645,2.6833,2.6741,2.5933,2.5403,2.5034,2.4883,2.4189,2.3741,2.3614,2.3838,2.407,2.4257,2.4701,2.5156,2.5625,2.6048,2.6404,2.6691,2.6691,2.6691,2.6691,2.6691,2.6691,2.6691,2.6691,2.6691,2.6691,2.6691,2.7385,2.8298,0.0,0.0,2.6519,2.6364,2.6469,2.6435,2.61,2.4612,2.379,0.0,2.4949,2.6023,2.802,2.7828,2.7583,2.7624,2.7317,2.7029,2.6841,2.6758,2.6758,2.6889,2.721,2.7531,2.7879,2.7561,2.7513,2.7809,2.7871,2.7994,2.8188,2.9175,2.9342,2.8871,2.9952,2.9866,2.8937,2.9537,3.011,3.0679,3.1199,3.2053,3.3035,3.3298,3.3489,3.3574,3.3081,3.2214,3.1592,3.3232,3.3735,3.3745,3.4146,3.3735,3.2923,3.209,3.1852,3.1814,3.1718,3.1775,3.2218,3.3795,3.3006,0.0,3.2737,3.2275,3.1679,0.0,3.243,3.2909,3.1938,3.2508,3.2851,3.2012,3.2452,3.2377,3.086,2.991,0.0,0.0,0.0,0.0,2.7196,2.7668,2.7941,2.7805,2.7787,2.753,2.6906,2.6098,2.5518,2.524,2.44,2.3782,2.3401,2.3354,2.3503,2.3813,2.389,2.4488,2.5537,2.5575,2.5998,2.6691,2.6691,2.6691,2.6691,2.6691,2.6691,2.6691,2.6691,2.6691,2.6691,2.6691,2.7672,2.9011,0.0,2.5591,2.5711,2.5897,2.5079,2.4251,2.3874,2.2758,2.2346,2.3437,2.5798,2.7391,2.7349,2.7256,2.6901,2.6113,2.5973,2.6433,2.7584,2.7051,2.7098,2.8012,2.788,2.7823,2.7901,2.7805,2.7654,2.7417,2.7742,2.7908,2.7966,2.8452,2.8341,2.7762,2.8942,2.904,2.833,2.9379,3.0213,3.0885,3.1251,3.2099,3.3073,3.2346,3.1732,3.1186,3.0539,3.0057,2.9962,3.1316,3.1412,3.1322,3.347,3.3618,3.3,3.2865,3.2744,3.2526,3.1891,3.2179,3.291,3.393,3.343,0.0,3.2852,3.2275,3.1506,0.0,3.2013,3.2713,3.1134,3.1139,3.1328,3.1133,3.1102,3.1216,3.1488,3.1345,3.0829,0.0,0.0,0.0,2.8949,2.9016,2.8727,2.7864,2.7787,2.8007,2.8521,2.7769,2.7288,2.7244,2.62,2.5298,2.4599,2.429,2.3872,2.334,2.3702,2.4337,2.5148,2.5448,2.5998,2.6691,2.6691,2.6691,2.6691,2.6691,2.6691,2.6691,2.6691,2.6691,2.6691,2.6691,2.7672,2.9011,2.5546,2.5739,2.5756,2.533,2.3784,2.2575,2.2562,2.0849,2.0289,2.2267,2.5336,2.7424,2.7643,2.7415,2.7013,2.6502,2.6051,2.6317,2.7512,2.6864,2.6918,2.8112,2.7395,2.7262,2.7897,2.7517,2.7303,2.7303,2.7707,2.7897,2.7908,2.8695,2.8659,2.801,2.9314,2.943,2.8704,2.9644,3.0377,3.0904,3.1048,3.1546,3.2156,3.1209,3.048,2.9796,2.8524,2.8106,2.831,2.911,2.9809,3.0791,3.3033,3.3656,3.3483,3.3157,3.3033,3.2904,3.248,3.2622,3.3103,3.3968,3.3545,0.0,0.0,3.1948,3.1064,3.109,3.153,3.1653,3.0801,3.1133,3.1543,3.1543,3.1734,3.1891,3.1862,3.2102,3.193,0.0,0.0,0.0,2.9769,2.9513,2.9122,2.8452,2.8411,2.8576,2.8975,2.8246,2.7787,2.7787,2.6867,2.6162,2.5739,2.5172,2.482,2.4622,2.4058,2.4539,2.589,2.5488,2.5911,2.7004,2.6791,2.6691,2.6691,2.6691,2.6691,2.6691,2.6691,2.6691,2.6691,2.6691,2.7672,2.9011,2.558,2.5886,2.5835,2.481,2.2805,2.1373,2.1476,1.9433,1.8973,2.1969,2.4991,2.6887,2.6974,2.6995,2.6602,2.5642,2.5599,2.599,2.7009,2.6467,2.6655,2.7946,2.6749,2.6596,2.7765,2.7066,2.6824,2.7178,2.7648,2.7897,2.7926,2.9142,2.9257,2.8552,2.997,3.0079,2.9273,2.9989,3.0652,3.1201,3.0791,3.0812,3.0982,2.9851,2.9121,2.8458,2.6477,2.589,2.615,2.6654,2.8099,3.0021,3.201,3.3074,3.3509,3.2908,3.2791,3.2837,3.2793,3.273,3.2891,3.3757,3.3449,3.2929,0.0,0.0,0.0,3.1436,3.1163,3.0723,3.0278,0.0,0.0,0.0,0.0,0.0,0.0,3.2622,0.0,3.1583,0.0,0.0,0.0,3.0055,2.9839,2.9554,2.955,2.9527,2.9457,2.8705,2.8246,2.8246,2.7475,2.6998,2.6833,2.619,2.5884,2.5955,2.4729,2.4944,2.6366,2.5439,2.5709,2.684,2.6601,2.6488,2.6505,2.6723,2.6791,2.6691,2.6691,2.6691,2.6691,2.6691,2.7672,2.9011,2.5504,2.5374,2.508,2.4531,2.2639,2.0898,1.9973,1.9155,2.0066,2.4185,2.6243,2.6103,2.2975,2.4441,2.3942,1.9669,2.2251,2.4746,2.6149,2.6158,2.6755,2.828,2.6788,2.639,2.7348,2.6819,2.6606,2.6791,2.753,2.7897,2.7926,2.9142,2.9257,2.8556,2.9972,3.0114,2.9332,3.0014,3.1116,3.2272,3.0652,3.0116,3.0123,2.808,2.7059,2.6341,2.3984,2.2798,2.2543,0.0,2.5289,2.6782,2.9095,3.0786,3.188,3.1783,3.1844,3.1961,3.1942,3.1941,3.2128,3.2923,3.3058,3.3,3.3,0.0,3.2218,3.084,0.0,3.106,2.881,0.0,0.0,0.0,0.0,0.0,3.1923,3.3179,3.3256,3.0833,0.0,0.0,0.0,3.1591,3.1769,3.1499,3.1477,3.1385,3.1134,3.0356,2.9934,2.9934,2.9163,2.8393,2.7658,2.7567,2.6851,2.547,2.5728,2.5546,2.5033,2.5085,2.5149,2.527,2.5581,2.5727,2.581,2.6825,2.7019,2.6691,2.6691,2.6691,2.6691,2.6691,2.7672,2.9011,2.5274,2.4812,2.4192,2.3921,2.0674,1.8085,1.8253,1.8032,1.9396,2.357,2.2902,2.0674,1.7214,1.501,1.3009,1.111,1.2113,1.5843,2.2783,2.2604,2.413,2.8383,2.6628,2.6126,2.7401,2.6622,2.6386,2.6691,2.7517,2.7897,2.7926,2.9027,2.9401,2.9252,3.0508,3.095,3.0767,3.1092,3.1518,3.1808,3.0165,2.9306,2.8884,2.7468,2.5543,2.3504,2.2495,2.1702,2.1329,0.0,2.3751,0.0,0.0,2.8932,3.0304,3.0188,3.0936,3.1709,3.1242,3.1448,3.1878,0.0,0.0,0.0,3.2891,0.0,3.1532,0.0,0.0,0.0,0.0,0.0,0.0,0.0,3.2025,0.0,0.0,0.0,3.3166,0.0,0.0,0.0,0.0,0.0,0.0,0.0,3.1325,3.1551,3.0987,3.0912,3.0687,3.021,2.9879,2.931,2.8503,2.8026,2.7695,2.7475,2.6743,2.6439,2.6522,2.5918,2.562,2.5604,2.6033,2.6236,2.6306,2.7262,2.753,2.7396,2.7396,2.7115,2.6691,2.6691,2.7672,2.9011,1.9683,2.1345,2.2877,2.2806,1.8957,1.6082,1.6561,1.5635,1.6296,2.024,1.635,1.2089,0.9128,0.5467,0.2735,0.1433,0.2346,0.7485,1.818,1.8052,2.0545,2.7221,2.5939,2.5413,2.6189,2.5905,2.6068,2.6691,2.7396,2.7783,2.7926,2.8819,2.9398,2.975,3.0666,3.1342,3.1806,3.1877,3.1926,3.1844,3.042,2.8969,2.7576,2.6538,2.4359,2.1863,2.1515,2.0986,2.0571,2.1569,2.2493,0.0,2.5207,2.6977,2.8446,2.8418,2.9649,3.0847,3.0036,0.0,0.0,0.0,0.0,0.0,0.0,0.0,0.0,0.0,0.0,0.0,0.0,0.0,3.1836,3.1836,0.0,3.2923,0.0,3.2697,0.0,0.0,0.0,0.0,0.0,0.0,0.0,3.129,3.2128,3.2381,3.1629,3.1834,3.1644,3.0996,3.0554,3.0037,2.9447,2.8566,2.8319,2.8668,2.7714,2.7218,2.7126,2.6377,2.5798,2.5396,2.5859,2.6162,2.6436,2.7325,2.7769,2.7897,2.7992,2.7771,2.736,2.736,2.8201,2.935,0.5882,1.3374,2.0845,2.0958,1.8309,1.5903,1.5103,1.1456,1.0043,1.3655,0.6363,0.0056,-0.2041,-0.226,-0.4207,-0.9083,-0.4834,0.2346,1.2298,1.294,1.6358,2.4109,2.4479,2.3994,2.2881,2.4414,2.5709,2.6691,2.7115,2.75,2.7926,2.853,2.9122,2.9731,3.0073,3.0828,3.1795,3.187,3.2383,3.3043,3.1891,2.9398,2.6214,0.0,2.3486,2.2223,2.1137,0.0,0.0,2.0513,2.1341,0.0,0.0,0.0,0.0,0.0,0.0,0.0,0.0,0.0,0.0,2.9453,0.0,0.0,0.0,0.0,3.1679,0.0,0.0,0.0,0.0,3.0796,3.0937,3.0937,3.2324,0.0,0.0,0.0,0.0,0.0,0.0,0.0,0.0,0.0,0.0,3.4952,3.4973,3.4718,3.4111,3.3609,3.3216,3.2914,3.1408,3.057,3.0551,2.9488,2.8594,2.7842,2.8594,2.7714,2.5493,2.5909,2.5249,2.3797,2.4206,2.4802,2.564,2.6756,2.7486,2.7926,2.8264,2.8631,2.9024,2.9024,2.9508,3.0274,0.2831,0.3221,0.5366,1.0477,0.8839,0.7595,1.0024,0.8287,0.7052,0.8172,0.116,-0.5547,-0.9764,-1.3573,-1.6152,-1.7014,-1.5972,-1.0312,0.1354,0.5562,1.0354,1.6487,2.1854,2.4119,2.2864,2.5359,2.6681,2.6691,2.7773,2.8165,2.7926,2.8615,2.9144,2.9532,3.0364,3.1336,3.2372,3.199,3.2361,3.3027,3.0897,2.8746,2.6655,0.0,2.3205,2.1549,2.0722,2.0106,0.0,1.9959,2.062,2.144,2.2046,2.3446,2.4852,2.4926,2.6181,0.0,0.0,0.0,2.8291,2.849,0.0,0.0,0.0,0.0,0.0,0.0,0.0,0.0,0.0,3.1245,3.1758,3.1758,3.2676,3.3166,0.0,3.3558,0.0,3.4289,3.4737,3.4949,0.0,0.0,0.0,3.3681,3.4022,3.416,0.0,3.4149,3.3957,3.3293,3.2728,3.1938,3.0885,3.0327,2.9659,2.886,2.896,2.8026,2.6209,2.6362,2.5552,2.4071,2.4732,2.547,2.6309,2.7219,2.7997,2.8651,2.8749,2.9216,2.9761,2.9262,2.9905,3.12,-0.6575,-0.9663,-0.8861,0.1372,0.1487,0.1075,0.3798,0.1749,-0.0053,0.0,-0.7911,-1.4579,-1.7258,-2.1642,-2.3987,-2.3017,-2.2778,-1.7604,-0.5656,-0.2371,0.186,0.8045,1.5033,1.8554,1.8052,2.4003,2.7151,2.7273,2.8076,2.834,2.8075,2.825,2.8713,2.9412,2.9795,3.098,3.262,3.1962,3.228,3.2998,3.0606,2.8758,0.0,0.0,2.3658,2.17,0.0,2.0261,1.9909,1.9909,2.0174,2.0599,2.0943,2.1995,2.3067,2.3165,2.4444,2.5759,2.5404,2.6172,0.0,2.742,2.7969,0.0,2.9512,0.0,2.9148,0.0,0.0,0.0,0.0,3.1201,3.1719,3.168,3.2402,3.3057,0.0,3.339,3.3886,3.5059,3.5378,3.5276,3.4718,3.4661,3.443,3.3872,3.4184,3.4366,0.0,0.0,3.4679,3.4036,3.3694,3.2917,3.159,3.0921,3.0197,2.9392,2.9134,2.8172,2.6612,2.6612,2.5878,2.463,2.4869,2.575,2.7034,2.7273,2.8026,2.8994,2.8994,2.9677,3.0564,3.0098,3.0905,3.2415,-2.1549,-2.4105,-2.082,-0.6677,-0.3965,-0.3649,-0.3371,-0.7581,-1.0697,-1.0372,-2.0056,-2.6249,-2.4302,-2.6174,-2.7394,-2.691,-2.5091,-1.9497,-0.8931,-1.0291,-0.8188,-0.0747,0.5054,0.852,0.9404,2.0756,2.7197,2.8268,2.8047,2.8103,2.8435,2.7561,2.7967,2.9375,2.8481,2.9755,3.2451,3.173,3.2051,3.2905,3.1056,2.9351,2.7811,2.653,2.4655,2.2549,2.1423,2.0715,2.0314,2.0314,2.007,1.9782,2.0193,2.0538,2.0894,2.136,2.2672,2.3875,2.3412,2.45,2.5855,2.6217,0.0,0.0,0.0,0.0,2.8228,0.0,0.0,0.0,0.0,0.0,3.0859,3.0723,3.1543,3.2461,3.3223,3.2541,3.2598,3.4308,3.5032,3.5397,3.5474,3.5468,3.5449,3.5507,3.5493,3.5383,0.0,0.0,3.5422,3.5122,3.4318,3.3494,3.2691,3.1356,3.0294,2.9488,2.9175,2.8172,2.6612,2.6612,2.6153,2.5366,2.4575,2.5603,2.7732,2.6979,2.7585,2.8994,2.8994,2.9989,3.1403,3.1476,3.2485,3.3734,-2.388,-2.6255,-2.6759,-2.327,-1.6665,-1.1515,-1.0597,-1.2692,-1.484,-1.6053,-2.1567,-2.5384,-2.5335,-2.6558,-2.6744,-2.5205,-2.4986,-2.2354,-1.6278,-1.2404,-0.9144,-0.6494,0.4749,1.1043,1.1226,2.3069,2.8768,2.7775,2.8361,2.8725,2.8886,2.759,2.7838,2.9375,2.8481,2.9213,3.1092,3.0586,3.0698,3.1145,3.0535,2.9046,2.7126,0.0,2.4843,2.259,2.1751,2.0943,2.0314,2.0314,2.0212,2.0143,2.028,2.0601,2.1007,2.1393,2.1816,2.2286,2.2847,2.3472,2.4131,2.4752,2.5707,2.6546,0.0,0.0,0.0,0.0,0.0,0.0,0.0,0.0,0.0,3.0719,3.1543,3.2266,3.248,3.2755,3.3359,3.4446,3.402,3.4115,3.5378,3.4911,3.4795,3.5449,3.5493,3.5479,0.0,0.0,0.0,3.5417,3.5187,3.4649,3.3799,3.2664,3.1593,3.0584,2.9694,2.8352,2.6612,2.6612,2.6153,2.5403,2.5182,2.6117,2.7769,2.7585,2.8099,2.8994,2.8994,2.9989,3.1531,3.2742,3.344,3.3853,-2.6906,-2.8368,-2.9796,-3.0615,-2.5216,-2.0169,-1.8364,-1.8826,-1.9929,-2.1517,-2.4224,-2.6176,-2.655,-2.6756,-2.6064,-2.4089,-2.3719,-2.1892,-1.7923,-1.5276,-1.3372,-1.2252,-0.6086,0.0353,0.6831,2.1824,2.8772,2.7075,2.8552,2.9326,2.9326,2.8016,2.8126,2.9355,2.8398,2.8959,3.0594,3.0608,3.0559,3.0492,3.0419,2.9341,0.0,2.6913,2.5463,2.365,2.266,2.1678,2.0862,2.0862,2.0601,2.0314,2.0314,2.0364,2.0465,2.0668,2.0847,2.1176,2.2048,2.2601,2.3088,2.382,2.4756,2.5516,2.5677,2.6568,2.751,0.0,0.0,0.0,0.0,0.0,0.0,3.0736,3.1269,3.1621,3.1621,3.2274,3.3053,3.3939,3.3807,3.4154,3.5451,3.4404,3.416,3.5449,3.5526,0.0,0.0,0.0,0.0,3.5545,3.5141,3.4699,3.4199,3.2766,3.1721,3.1132,3.0039,2.8725,2.7241,2.689,2.6442,2.5897,2.555,2.6321,2.7787,2.7787,2.8282,2.9067,2.9769,3.0595,3.1586,3.3201,3.3807,3.3917,-2.9916,-3.0471,-3.1284,-3.2494,-3.0636,-2.814,0.0,-2.4832,0.0,-2.58,0.0,-2.7368,-2.7246,-2.6373,-2.5057,-2.3235,-2.1787,-1.9547,-1.6161,-1.732,-1.7521,-1.6131,-1.8883,-1.3916,0.0043,1.8403,2.728,2.6227,2.8504,2.9665,2.9782,2.8594,2.854,2.9397,2.8331,2.887,3.0632,3.1009,3.0965,3.0613,3.0425,2.9713,2.8606,2.7263,2.6042,2.4901,2.3723,2.2617,2.1698,2.1685,2.1149,2.0467,2.0416,2.0158,1.9854,1.9782,2.0035,2.0452,2.1147,2.1804,2.2435,2.3132,2.3762,2.4279,2.4567,2.5548,2.6486,2.6716,2.757,2.8444,0.0,0.0,0.0,3.0756,3.0996,3.1035,0.0,3.1641,3.2461,3.3219,3.3922,0.0,3.5476,3.4148,3.391,3.5501,0.0,0.0,0.0,0.0,0.0,3.5532,3.4776,0.0,3.4199,0.0,3.155,3.1291,3.036,2.9285,2.8129,2.7438,2.699,2.6767,2.605,2.6581,2.7952,2.7952,2.8374,2.914,3.076,3.1384,3.1586,3.3201,3.3807,3.3917,-3.1337,-3.2558,-3.3346,-3.4222,-3.2723,-3.1059,-3.0097,-2.7857,-2.6053,-2.5576,-2.6009,-2.609,-2.5371,-2.4068,-2.2863,-2.189,-1.9999,0.0,0.0,0.0,0.0,-1.2282,-1.367,-1.0196,-0.1079,1.4462,2.3431,2.5408,2.7528,2.9184,3.0312,2.854,2.8373,2.9587,2.8521,2.9,3.057,3.0232,0.0,3.1226,3.0001,2.8905,2.7879,2.6849,2.554,2.419,2.3928,2.3249,2.2382,2.2107,2.1707,2.124,2.0959,2.0829,2.0698,2.033,2.0246,2.0333,2.0452,2.1068,2.1786,2.2221,2.3006,2.3741,2.4118,2.5107,2.6033,2.6481,2.7347,2.8105,2.8279,0.0,0.0,0.0,0.0,0.0,0.0,0.0,3.3202,3.3367,3.3457,3.3845,3.4711,3.5014,3.527,3.565,0.0,0.0,0.0,0.0,0.0,0.0,3.5353,0.0,0.0,0.0,3.29,3.1306,3.1108,3.0105,2.8416,2.8265,2.8088,2.7827,2.7698,2.8056,2.8796,2.8796,2.8865,2.914,3.076,3.1384,3.1586,3.3201,3.3807,3.3917,-3.1846,-3.2847,-3.336,-3.3444,-3.2048,0.0,0.0,-2.7724,-2.6381,-2.6396,-2.6312,-2.5987,-2.5232,-2.3123,-2.1487,-2.0766,-1.7831,-1.553,-1.4365,-1.1472,-0.9147,-0.7723,-0.7176,-0.405,0.2179,1.5021,2.2384,2.4007,0.0,3.0071,3.0904,3.0271,3.005,3.0132,2.9477,2.9712,3.0586,0.0,0.0,3.1314,2.9844,2.8704,2.7796,2.6776,2.5615,2.4504,2.4449,2.4063,2.3487,2.2877,2.2399,2.2012,2.1678,2.1442,2.1195,2.0781,2.0483,2.0348,2.0583,2.0959,2.135,2.174,2.2479,2.317,2.3462,2.4245,2.5035,2.5492,2.6093,2.6884,2.7949,2.8925,0.0,0.0,0.0,0.0,0.0,0.0,3.3906,3.3457,3.3761,3.4195,3.46,3.4908,0.0,0.0,0.0,0.0,0.0,0.0,0.0,0.0,0.0,0.0,0.0,0.0,0.0,3.2119,3.1717,3.072,2.9251,2.8411,2.8134,2.8275,2.7825,2.8053,2.876,2.9082,2.9374,2.9751,3.0925,3.1659,3.2173,3.3366,3.4064,3.4541,-3.1784,-3.2293,-3.2487,-3.1807,-3.0432,-2.9072,-2.8103,-2.6773,-2.6077,-2.6688,-2.6056,-2.5302,-2.4708,-2.1861,-1.988,-1.9594,-1.5387,-1.2839,-1.3054,-0.845,-0.4789,-0.258,-0.1004,0.2239,0.7498,1.7111,2.2424,0.0,0.0,0.0,0.0,3.1887,3.1522,3.0439,0.0,0.0,0.0,0.0,3.1162,3.1424,2.9664,2.8589,2.7886,2.6671,2.5721,2.5015,2.4891,2.4712,2.4439,2.3549,2.3069,2.2785,2.246,2.2062,2.1691,2.1336,2.0927,2.0649,2.0926,2.1055,2.1213,2.1521,2.2119,2.2669,2.2891,2.3462,2.4081,2.448,2.4894,2.5751,2.7573,2.8535,0.0,0.0,0.0,0.0,0.0,0.0,3.4101,3.3242,3.4062,3.4551,3.4199,0.0,0.0,0.0,0.0,0.0,0.0,0.0,0.0,0.0,0.0,3.5117,3.5641,0.0,3.3026,0.0,3.2006,3.1124,3.0051,2.8574,2.8251,2.8774,2.7907,2.7988,2.8789,2.9213,2.9749,3.036,3.1097,3.188,3.2706,3.3495,3.4321,3.5119,-3.1171,-3.1162,-3.1076,0.0,0.0,-2.7826,-2.7815,-2.6282,-2.5096,-2.5039,-2.3714,-2.2515,-2.1848,-1.8772,-1.7128,-1.8101,-1.2501,-0.8197,-0.6525,-0.2812,0.0576,0.3348,0.367,0.703,1.4062,1.9378,2.2562,0.0,0.0,3.0449,0.0,0.0,0.0,0.0,0.0,0.0,0.0,3.103,3.1369,3.1895,2.9257,2.8165,2.791,2.6214,2.538,2.507,2.5015,2.4891,2.4647,2.3783,2.3528,2.3544,2.3212,2.2855,2.2521,2.2124,2.174,2.1399,2.1086,2.1275,2.1552,2.1582,2.1986,2.2415,2.2669,2.317,2.364,2.3989,2.4628,2.5492,2.679,2.709,2.7461,0.0,0.0,0.0,0.0,0.0,3.3223,3.2402,3.373,3.4101,3.2578,3.3808,0.0,0.0,3.4523,0.0,0.0,0.0,0.0,3.6883,0.0,3.6445,3.5776,3.4699,0.0,3.1898,3.1775,3.1225,3.0328,2.9387,2.9283,2.9813,2.8994,2.9004,2.9583,2.9456,2.9857,3.0612,3.1194,3.188,3.2706,3.3495,3.4321,3.5119,0.0,0.0,0.0,0.0,0.0,0.0,0.0,-2.5024,-2.4153,-2.329,-2.2455,-2.1389,-2.0037,-1.7563,-1.4816,-1.1855,-0.6225,-0.2409,-0.138,0.2258,0.5784,0.8973,0.9133,1.1239,1.5706,1.9707,2.2768,0.0,0.0,0.0,0.0,0.0,0.0,0.0,0.0,3.0259,3.0674,3.0446,3.0466,3.048,2.8568,2.7574,2.713,2.5956,2.5441,2.5341,2.531,2.516,2.4843,2.4022,2.3671,2.3488,2.3042,2.28,2.2656,2.2522,2.218,2.1799,2.1444,2.1133,2.1039,2.1483,2.1623,2.1762,2.2334,2.2923,2.3392,2.3656,2.4463,2.5407,2.6398,2.6769,2.7187,0.0,0.0,0.0,0.0,0.0,0.0,3.1582,3.2461,3.2734,3.1543,3.2949,0.0,0.0,0.0,0.0,0.0,0.0,0.0,3.7968,0.0,3.6446,3.6635,3.5085,3.3727,3.2576,3.1987,3.1237,3.0359,2.9506,2.9221,2.9468,2.9679,2.9803,2.9877,2.9796,3.0377,3.1347,3.157,3.233,3.3421,3.4229,3.5055,3.5899,-2.5639,0.0,-2.6703,0.0,-2.5387,-2.4831,-2.3695,-2.3101,-2.238,-2.1143,-1.9479,-1.7997,-1.6908,-1.4333,-1.0567,-0.5281,-0.0453,0.2971,0.4568,0.7432,1.0173,1.2626,1.3376,0.0,1.7338,2.0175,2.2899,2.5586,2.8895,0.0,0.0,0.0,0.0,0.0,2.9569,2.9647,2.9686,2.9761,2.9613,2.913,2.7791,2.7034,2.664,2.5811,2.5512,2.5536,2.5522,2.5219,2.472,2.3888,2.331,2.2886,2.2597,2.2593,2.268,2.2541,2.2401,2.2224,2.1895,2.1275,2.0893,2.1611,2.1507,2.138,2.2141,2.2773,2.331,2.3715,2.4398,2.5145,2.588,2.6223,2.662,2.7324,0.0,0.0,0.0,3.112,0.0,3.0918,3.1406,3.1543,3.0957,3.2422,0.0,0.0,0.0,0.0,0.0,0.0,0.0,0.0,0.0,0.0,0.0,3.5088,3.3705,3.3121,3.1922,3.1006,3.0379,2.9756,2.9333,2.914,3.0025,3.0433,3.0486,3.0409,3.1174,3.2385,3.2195,3.2934,3.4148,3.4877,3.5698,3.6546,-2.3173,-2.3686,-2.3918,-2.2505,-2.22,-2.1996,-2.1511,-2.048,-1.9402,-1.8465,-1.3962,-1.1068,-1.171,-0.7978,-0.3693,0.0611,0.3777,0.7433,1.1861,1.2889,1.3465,0.0,0.0,1.7838,1.9996,2.1249,2.3101,2.5504,0.0,0.0,2.9921,0.0,3.0237,2.9066,3.032,2.9981,2.8489,2.9123,2.9027,2.8296,2.6943,2.6581,2.6689,2.583,2.5547,2.5585,2.5527,2.4939,2.4077,2.3218,2.2343,2.1665,2.1925,2.2328,2.2609,2.2149,2.2328,2.2634,2.236,2.1752,2.1363,2.2124,2.1735,2.138,2.2141,2.2773,2.3446,2.4319,2.4512,2.4629,2.5039,2.5168,2.5313,2.5581,0.0,0.0,0.0,2.8249,0.0,3.0506,3.0762,3.084,3.0898,3.2422,0.0,0.0,0.0,0.0,0.0,0.0,0.0,3.7305,3.7285,0.0,3.7305,3.4648,3.3271,3.3176,3.1376,3.0467,3.0398,3.0379,2.991,2.914,3.0025,3.0891,3.1667,3.1398,3.2263,3.372,3.3189,3.3671,3.4747,3.5292,3.5988,3.6794,-2.0203,-2.0297,-2.0128,-1.9441,-1.9086,-1.889,-1.8952,-1.621,-1.3538,-1.1701,-0.7626,-0.3872,-0.1228,-0.0039,0.216,0.0,1.0339,1.3408,0.0,1.5907,1.6692,1.7393,1.8895,2.0601,2.2567,2.3722,2.5034,2.6512,0.0,0.0,0.0,2.8064,2.7466,2.7472,2.706,2.6872,2.6844,2.7175,2.7083,2.6752,2.6447,2.6148,2.5823,2.5581,2.5531,2.5605,2.5638,2.5048,2.4143,2.3261,2.2358,2.1491,2.0845,2.143,2.2362,2.2445,2.2524,2.2495,2.2188,2.115,2.0349,2.1092,2.1138,2.1197,2.1917,2.2852,2.3674,2.4191,2.441,2.4572,2.4858,2.5023,2.5219,2.5481,2.632,0.0,0.0,0.0,2.8222,2.8119,2.8684,2.9101,0.0,3.0684,0.0,0.0,0.0,0.0,0.0,0.0,0.0,0.0,3.6367,0.0,3.6406,3.375,3.2389,3.2362,3.1095,3.0467,3.0398,3.0398,3.0256,3.0006,3.0294,3.0552,3.084,3.1348,3.2096,3.2956,3.3371,3.4017,3.4787,3.5512,3.6299,3.7084,-1.602,-1.6782,-1.7253,-1.6794,-1.4774,-1.3152,-1.2935,-0.9729,-0.6674,-0.4786,-0.1051,0.2594,0.5589,0.7134,0.0,1.1199,1.4424,1.6634,1.7317,1.8344,1.92,1.9939,2.1118,2.249,2.4094,0.0,0.0,2.6465,2.7729,2.8418,2.8569,2.6686,2.602,2.6399,2.5551,2.5279,2.5446,2.5905,2.5856,2.5563,2.5728,2.5654,2.5399,2.5456,2.5524,2.5605,2.5644,2.5098,2.4257,2.3709,2.29,2.1949,2.0917,2.1621,2.2725,2.2368,2.239,2.2558,2.246,2.1326,2.0406,2.1445,2.1291,2.1214,2.2384,2.3203,2.3795,2.4113,2.4303,2.4444,2.4654,2.4854,2.5071,2.5316,2.5941,2.6514,2.6817,0.0,2.7319,0.0,0.0,0.0,0.0,2.957,3.0595,0.0,0.0,0.0,0.0,0.0,0.0,3.7464,3.5927,0.0,3.5508,3.3535,3.2349,3.1981,3.0979,3.0467,3.0398,3.0398,3.0398,3.0398,3.0398,3.059,3.0948,3.1795,3.2538,3.323,3.3993,3.4575,3.5095,3.5799,3.6556,3.737,-1.0738,-1.2855,0.0,0.0,-0.9278,0.0,-0.4036,-0.143,0.0946,0.252,0.5823,0.8383,0.9312,1.3212,1.5792,1.5758,0.0,0.0,0.0,2.0289,2.1028,2.1516,2.2522,2.359,2.4697,2.4864,2.5185,2.5684,2.611,2.6773,2.7582,2.6302,2.5737,2.5744,2.5508,2.4959,2.4335,2.5259,2.5319,2.4818,2.4949,2.516,2.539,2.5409,2.5479,2.5584,2.5605,2.5078,2.4394,2.44,2.3778,2.2846,2.1979,2.2633,2.3448,2.1988,2.2135,2.2811,2.3111,2.2105,2.1306,2.2744,2.2069,2.1515,2.331,2.3735,2.3816,2.4151,2.419,2.4247,2.4461,2.4651,2.4847,2.5081,2.5357,2.5839,2.66,0.0,2.6198,0.0,0.0,0.0,0.0,2.8945,2.9464,0.0,0.0,0.0,0.0,0.0,3.7175,3.5738,3.5646,3.5273,3.4512,3.3652,3.2782,3.1893,3.0965,3.0487,3.0398,3.0398,3.0398,3.0398,3.0456,3.0948,3.1775,3.2622,3.3468,3.4263,3.4878,3.5308,3.5633,3.614,3.6877,3.7754,0.0,0.0,-0.5987,-0.3971,-0.1941,0.0657,0.4289,0.6176,0.8614,1.2562,1.3164,1.3522,1.4375,1.5766,1.7313,1.9066,1.9458,2.0085,2.1197,2.1826,2.2348,2.2833,2.3583,2.4314,2.4983,2.5195,2.571,2.6582,2.5993,2.6392,2.7624,2.56,2.4892,2.5314,2.449,2.4015,2.388,2.4684,2.4915,2.4832,2.5107,2.5264,2.5322,2.539,2.5444,2.5531,2.5572,2.5078,2.4394,2.4392,2.3787,2.2953,2.2681,2.2804,2.29,2.2227,2.2558,2.3135,2.3068,2.2336,2.1662,2.2045,2.2336,2.2792,2.3836,2.4074,2.4094,2.417,2.419,2.4247,2.4461,2.454,2.4681,2.503,2.5172,2.5354,2.5741,2.5694,0.0,0.0,2.603,2.6254,2.7152,2.7426,2.8314,0.0,0.0,0.0,0.0,3.4237,3.4718,3.3788,3.318,3.2775,3.2637,3.1875,3.1327,3.1008,3.0776,3.0583,3.0487,3.0487,3.0448,3.0436,3.1102,3.1506,3.1814,3.3295,3.4007,3.4276,3.5086,3.583,3.6435,3.6565,3.7567,3.8892,0.0894,0.0854,0.161,0.3522,0.6173,0.9097,1.2334,1.2946,1.4085,1.7076,1.7093,1.698,1.7432,1.8041,1.9122,2.0928,2.0986,2.14,2.2558,2.3097,2.3544,2.3915,2.4398,2.4846,2.5234,2.536,2.573,2.6309,2.5759,2.59,2.667,2.5153,2.4566,2.4764,2.411,2.3846,2.3886,2.4519,2.4828,2.4917,2.5182,2.5303,2.5303,2.5341,2.5409,2.5456,2.5539,2.5287,2.4941,2.498,2.4643,2.4128,2.3705,2.3775,2.3861,2.3179,2.3234,2.3583,2.3764,2.3212,2.2564,2.2504,2.31,2.3786,2.4117,2.419,2.419,2.419,2.419,2.4228,2.4339,2.4512,2.4708,2.4936,2.5124,2.528,2.5425,2.5531,0.0,2.5605,2.5621,2.5822,2.6304,2.6702,2.7668,2.9368,0.0,0.0,3.1819,3.2237,3.266,3.3103,3.2675,3.2103,3.1409,3.0643,3.0215,3.0156,3.052,3.0642,3.0491,3.0502,3.0679,3.1025,3.1487,3.191,3.2352,3.366,3.4199,3.4276,3.5161,3.5988,3.6699,3.6699,3.7796,3.9296,0.7147,0.7286,0.8129,0.9491,1.3337,1.6823,1.8598,1.813,1.7861,1.8638,1.8967,1.9146,1.9118,1.9752,2.0603,2.167,2.1674,2.2202,2.3611,2.4117,2.4484,2.4745,2.4975,2.5197,2.5408,2.5468,2.5511,2.5584,2.552,2.5498,2.5495,2.4943,2.4586,2.4388,2.4207,2.4118,2.4137,2.4629,2.4891,2.5022,2.5214,2.5303,2.5303,2.5303,2.5341,2.5418,2.5486,2.5545,2.5605,2.5684,2.5664,2.5483,2.4807,2.4966,2.5226,2.4379,2.408,2.4129,2.4671,2.4257,2.3681,2.3543,2.4038,2.4495,2.4284,2.4247,2.4247,2.4209,2.419,2.4209,2.4247,2.451,2.4813,2.5003,2.5194,2.5408,2.5582,0.0,2.5581,2.5605,2.5664,2.5683,2.5673,2.6346,2.7108,2.7932,2.8559,2.9264,0.0,3.0063,3.0737,3.2281,3.2435,3.1874,3.0539,2.9832,2.957,2.9726,3.0391,3.0665,3.0522,3.0655,3.1006,3.1545,3.191,3.2391,3.2987,3.3968,3.4391,3.4468,3.5218,3.6084,3.6911,3.6911,3.7988,3.9469,1.2083,1.1943,1.2442,1.4225,1.5816,1.7392,1.891,1.9232,1.9439,1.9802,1.9859,1.9793,1.9693,1.9892,2.0331,2.1073,2.2018,2.3153,2.4516,2.4682,2.4817,2.5029,2.5084,2.5187,2.5408,2.541,2.5445,2.552,2.5515,2.5505,2.5486,2.5166,2.4973,2.4886,2.4747,2.4678,2.4693,2.4885,2.4986,2.5022,2.5214,2.5303,2.5303,2.5303,2.5341,2.5409,2.5475,2.5537,2.5605,2.5684,2.5664,2.5581,2.5453,2.5404,2.5379,2.5216,2.512,2.5028,2.485,2.471,2.4582,2.4572,2.4666,2.47,2.4495,2.4444,2.441,2.4247,2.419,2.4266,2.4409,2.4512,2.4879,2.5893,2.5507,2.5417,2.6438,0.0,2.5564,2.5662,2.5644,2.5624,2.5616,2.5694,2.6092,2.6942,2.7071,2.7489,2.8335,2.8324,2.8409,2.8709,2.9421,2.9764,2.9689,2.9556,2.9902,3.0684,3.0801,3.08,3.0696,3.137,3.1321,3.0794,3.2891,3.3468,3.3026,3.4641,3.5295,3.5315,3.5449,3.6449,3.7796,3.7796,3.8873,4.0296,1.5672,1.5713,1.6147,1.7289,1.802,1.8765,1.9661,1.9945,2.0123,2.0246,2.0233,2.0182,2.0079,2.0164,2.0699,2.1922,2.2574,2.3544,2.5072,2.5145,2.5184,2.5318,2.5321,2.533,2.5402,2.5406,2.5427,2.5495,2.5504,2.5493,2.549,2.533,2.5165,2.4998,2.4943,2.4917,2.4917,2.4974,2.5057,2.5163,2.5264,2.5303,2.5303,2.5341,2.537,2.5409,2.5524,2.5569,2.561,2.5677,2.5684,2.5643,2.5652,2.5579,2.5505,2.5456,2.539,2.5264,2.5115,2.508,2.5037,2.493,2.4917,2.4864,2.47,2.4654,2.4639,2.4526,2.4528,2.4543,2.4639,2.4708,2.495,2.552,2.5375,0.0,0.0,2.5765,2.5569,2.5632,2.5644,2.5637,2.5605,2.5571,2.5896,2.6693,2.6724,2.702,2.7762,2.7769,2.7508,2.7048,2.7531,2.8104,2.8732,2.8749,2.9248,3.0215,3.0684,3.082,3.0703,3.106,3.1196,3.1282,3.2833,3.3545,3.3699,3.4968,3.5493,3.5493,3.5493,3.6526,3.8007,3.8007,3.9065,4.0489,1.8196,1.8377,1.8705,1.9261,1.9597,1.9907,2.027,2.0348,2.038,2.0371,2.0372,2.036,2.0302,2.0542,2.1228,2.2516,2.3028,2.3848,2.5134,2.537,2.5473,2.5511,2.5508,2.5461,2.538,2.539,2.5409,2.5486,2.5485,2.5484,2.5479,2.5415,2.5271,2.5077,2.5077,2.5077,2.5077,2.5077,2.5163,2.5303,2.5303,2.5303,2.5303,2.537,2.539,2.5418,2.5532,2.56,2.5599,2.5683,2.5703,2.5703,2.5703,2.5655,2.5584,2.5543,2.5428,2.5322,2.5303,2.5303,2.5264,2.5099,2.5077,2.5041,2.4883,2.4842,2.4842,2.4804,2.4804,2.4804,2.4865,2.4955,2.5106,2.5394,0.0,0.0,0.0,2.5668,2.561,2.5615,2.5652,2.5667,2.5601,2.5563,2.5793,2.636,2.6379,2.6557,2.6969,2.7007,2.6689,2.6022,2.6181,2.6881,2.8084,2.8094,2.8714,2.9902,3.0586,3.0957,3.1055,3.0963,3.1246,3.1891,3.2814,3.3468,3.3968,3.5064,3.5493,3.5526,3.5718,3.6699,3.8027,3.8238,3.9219,4.0489,1.9415,1.9339,1.9479,2.0031,2.009,2.0133,2.0365,2.0347,2.0311,2.0315,2.0308,2.0305,2.0305,2.1074,2.1649,2.1779,2.3279,2.4257,2.4373,2.5136,2.5592,2.5592,2.5525,2.5446,2.5313,2.5303,2.5341,2.5409,2.5414,2.5403,2.5418,2.5399,2.536,2.5274,2.5274,2.5274,2.5274,2.5274,2.5293,2.5303,2.5303,2.5303,2.5303,2.5303,2.5341,2.5418,2.548,2.5549,2.5599,2.5683,2.5703,2.5703,2.5703,2.5643,2.5601,2.5592,2.5505,2.539,2.5322,2.5303,2.5303,2.5274,2.5274,2.5224,2.5022,2.4986,2.4949,2.4832,2.4804,2.4851,2.505,2.5095,2.5449,2.6495,0.0,0.0,2.6677,2.6098,2.5623,2.5694,2.5634,2.561,2.5611,2.5486,2.5447,2.5486,2.5437,2.5348,2.5201,2.5201,2.5163,2.5106,2.5299,2.6275,2.8078,2.8107,2.9006,3.0801,3.0879,3.1328,3.209,3.1953,3.1904,3.1985,3.3519,3.3737,3.3122,3.4814,3.5493,3.557,3.6334,3.718,3.8104,3.8911,3.9738,4.0489,1.9942,1.9869,1.9945,2.0268,2.0308,2.0312,2.0389,2.0412,2.0429,2.0429,2.0395,2.0375,2.0427,2.0738,2.1391,2.2481,2.3213,2.4033,2.5044,2.5428,2.5603,2.5603,2.5498,2.5404,2.537,2.5322,2.5322,2.5409,2.5388,2.5407,2.5409,2.5409,2.537,2.5303,2.5303,2.5303,2.5303,2.5303,2.5303,2.5303,2.5303,2.5303,2.5303,2.5341,2.539,2.5398,2.5527,2.5576,2.5619,2.5681,2.5703,2.5703,2.5703,2.5672,2.5658,2.5616,2.5537,2.5452,2.5428,2.537,2.5303,2.5341,2.5322,2.5293,2.5271,2.5212,2.5182,2.5164,2.5172,2.5203,2.5343,2.5351,2.5488,2.5925,0.0,2.5687,2.6041,2.5835,2.5671,2.5703,2.5646,2.5582,2.5543,2.5447,2.533,2.516,2.5243,2.5171,2.4877,2.5463,2.5761,2.5617,2.6462,2.7266,2.8028,2.8081,2.9006,3.0781,3.0859,3.1074,3.1387,3.125,3.1162,3.1172,3.2794,3.3269,3.3045,3.4776,3.5493,3.5584,3.6392,3.7238,3.8104,3.8969,3.9796,4.0566,2.102,2.085,2.0756,2.1207,2.0996,2.0785,2.0798,2.0594,2.0446,2.0446,2.0631,2.0694,2.0467,2.1173,2.2031,2.2987,2.3591,2.4385,2.5492,2.5552,2.5543,2.5543,2.5447,2.539,2.537,2.5322,2.5322,2.537,2.537,2.537,2.537,2.537,2.5341,2.5303,2.5303,2.5303,2.5303,2.5303,2.5303,2.5303,2.5303,2.5303,2.5303,2.5341,2.539,2.5408,2.5532,2.5574,2.5605,2.5684,2.5703,2.5703,2.5703,2.5703,2.5681,2.5643,2.5582,2.554,2.5532,2.5446,2.5365,2.5428,2.5407,2.5365,2.5428,2.5409,2.539,2.5428,2.5427,2.5443,2.5524,2.5522,2.5529,2.5551,2.559,2.5635,2.5635,2.5671,2.5681,2.5671,2.5609,2.553,2.5476,2.5409,2.5292,2.5099,2.5214,2.5171,2.4883,2.5715,2.617,2.61,2.7198,2.7972,2.8354,2.8454,2.9245,3.0703,3.084,3.1035,3.1309,3.0937,3.0852,3.1129,3.2503,3.3031,3.3071,3.4801,3.5526,3.5622,3.6699,3.7469,3.8142,3.9258,4.0027,4.0623,2.2894,2.233,2.2022,2.3011,2.2325,2.1636,2.1698,2.092,2.0331,2.0331,2.1062,2.1282,2.0416,2.2642,2.3864,2.3077,2.453,2.5489,2.5508,2.5445,2.5409,2.5409,2.5409,2.537,2.5303,2.5303,2.5303,2.5303,2.5303,2.5303,2.5303,2.5303,2.5303,2.5303,2.5303,2.5303,2.5303,2.5303,2.5303,2.5303,2.5303,2.5303,2.5303,2.5303,2.5341,2.5409,2.5486,2.5535,2.5605,2.5684,2.5703,2.5703,2.5703,2.5703,2.5703,2.5703,2.5642,2.5599,2.5599,2.5541,2.5496,2.5493,2.5503,2.549,2.5513,2.5505,2.5505,2.5505,2.549,2.5523,2.56,2.5611,2.5623,2.5698,2.5703,2.5703,2.5703,2.5703,2.5679,2.5609,2.555,2.5466,2.5409,2.5341,2.5303,2.5303,2.5303,2.5214,2.501,2.5641,2.61,2.6295,2.716,2.8096,2.9102,2.9308,2.9841,3.0703,3.084,3.1367,3.2168,3.1309,3.1309,3.207,3.2923,3.321,3.3154,3.4878,3.5565,3.568,3.7353,3.8007,3.82,3.9873,4.0489,4.0623,2.2792,2.2332,2.199,2.2901,2.2761,2.2523,2.255,2.2299,2.213,2.2109,2.2315,2.2384,2.221,2.2844,2.3431,2.3805,2.4295,2.4825,2.5401,2.537,2.5322,2.5322,2.5322,2.5322,2.5303,2.5303,2.5303,2.5303,2.5303,2.5303,2.5303,2.5303,2.5303,2.5303,2.5303,2.5303,2.5303,2.5303,2.5303,2.5303,2.5303,2.5303,2.5303,2.5303,2.5303,2.5341,2.5409,2.5459,2.5548,2.5603,2.5664,2.5703,2.5703,2.5703,2.5703,2.5703,2.5681,2.5672,2.5673,2.5664,2.5632,2.559,2.5522,2.5503,2.5564,2.5537,2.5505,2.5562,2.5571,2.5587,2.5652,2.5668,2.5681,2.5703,2.5703,2.5703,2.5703,2.5703,2.5679,2.5609,2.5532,2.5473,2.5409,2.5341,2.5234,2.5099,2.5088,2.5057,2.4991,2.6484,2.7299,2.7217,2.8734,2.9709,3.0006,2.9616,2.981,3.0626,3.0814,3.1367,3.2187,3.1934,3.2207,3.2969,3.3829,3.4155,3.4143,3.5225,3.5641,3.5738,3.7425,3.8041,3.82,3.9873,4.0489,4.0623,2.3807,2.3334,2.2952,2.3844,2.3668,2.3412,2.3408,2.3102,2.2861,2.2859,2.3129,2.3207,2.294,2.3476,2.3928,2.414,2.4438,2.4851,2.5322,2.5322,2.5303,2.5303,2.5303,2.5303,2.5303,2.5303,2.5303,2.5303,2.5303,2.5303,2.5303,2.5303,2.5303,2.5303,2.5303,2.5303,2.5303,2.5303,2.5303,2.5303,2.5303,2.5303,2.5303,2.5303,2.5303,2.5303,2.539,2.5423,2.546,2.5548,2.56,2.5664,2.5684,2.5703,2.5703,2.5703,2.5703,2.5703,2.5703,2.5694,2.5694,2.5643,2.5604,2.5581,2.5624,2.5616,2.5593,2.5638,2.564,2.5649,2.5681,2.5703,2.5703,2.5703,2.5683,2.566,2.566,2.5634,2.5601,2.5533,2.5486,2.5428,2.537,2.5322,2.5253,2.5141,2.5111,2.5264,2.5619,2.7059,2.7992,2.8198,2.9632,3.0571,3.091,3.0537,3.0608,3.1117,3.1315,3.1855,3.2676,3.2676,3.293,3.3398,3.4258,3.4799,3.5092,3.558,3.6134,3.6748,3.7731,3.8291,3.8753,4.0412,4.0796,4.0719,2.539,2.4832,2.4457,2.5322,2.4841,2.4302,2.4265,2.3553,2.2987,2.2987,2.3688,2.388,2.3101,2.4389,2.5005,2.4264,2.4889,2.5303,2.5303,2.5303,2.5303,2.5303,2.5303,2.5303,2.5303,2.5303,2.5303,2.5303,2.5303,2.5303,2.5303,2.5303,2.5303,2.5303,2.5303,2.5303,2.5303,2.5303,2.5303,2.5303,2.5303,2.5303,2.5303,2.5303,2.5303,2.5303,2.537,2.539,2.5399,2.548,2.5531,2.5605,2.5664,2.5703,2.5703,2.5703,2.5703,2.5703,2.5703,2.5703,2.5703,2.5703,2.5703,2.5703,2.5703,2.5703,2.5703,2.5703,2.5703,2.5703,2.5703,2.5703,2.5703,2.5681,2.564,2.5601,2.5582,2.5529,2.548,2.5418,2.5409,2.537,2.5303,2.536,2.5418,2.5418,2.5495,2.589,2.6678,2.7544,2.8371,2.9179,3.0063,3.0929,3.1795,3.1878,3.1941,3.2018,3.2215,3.2734,3.3516,3.3516,3.3555,3.3672,3.4551,3.5351,3.6035,3.6113,3.6994,3.8299,3.826,3.8728,3.9615,4.1143,4.12,4.0873,2.5168,2.4726,2.437,2.5207,2.5197,2.5004,2.4851,2.4656,2.4522,2.4522,2.4694,2.4796,2.4755,2.5072,2.5226,2.5063,2.5187,2.5303,2.5303,2.5303,2.5303,2.5303,2.5303,2.5303,2.5303,2.5303,2.5303,2.5303,2.5303,2.5303,2.5303,2.5303,2.5303,2.5303,2.5303,2.5303,2.5303,2.5303,2.5303,2.5303,2.5303,2.5303,2.5303,2.5303,2.5303,2.5303,2.5322,2.537,2.5418,2.5474,2.5547,2.5605,2.5625,2.5664,2.5703,2.5703,2.5703,2.5703,2.5703,2.5703,2.5703,2.5703,2.5703,2.5703,2.5703,2.5703,2.5703,2.5703,2.5703,2.5703,2.5703,2.5703,2.5672,2.5628,2.5618,2.5582,2.5524,2.5514,2.5484,2.5409,2.5409,2.537,2.5303,2.5928,2.6332,2.6332,2.6948,2.7409,2.7601,2.839,2.9236,3.0102,3.0968,3.1814,3.2622,3.2724,3.281,3.292,3.3016,3.3535,3.4414,3.4414,3.4785,3.5488,3.6367,3.6836,3.7051,3.7734,3.8163,3.843,3.9103,3.9443,3.9668,4.06,4.0835,4.0918,2.5236,2.5005,2.4812,2.5226,2.5303,2.5264,2.5163,2.5057,2.501,2.501,2.4937,2.4968,2.5141,2.5152,2.5203,2.5284,2.5303,2.5303,2.5303,2.5303,2.5303,2.5303,2.5303,2.5303,2.5303,2.5303,2.5303,2.5303,2.5303,2.5303,2.5303,2.5303,2.5303,2.5303,2.5303,2.5303,2.5303,2.5303,2.5303,2.5303,2.5303,2.5303,2.5303,2.5303,2.5303,2.5303,2.5303,2.5322,2.537,2.5428,2.5468,2.5507,2.5534,2.5583,2.5603,2.5603,2.5603,2.5603,2.5603,2.5603,2.5603,2.5603,2.5603,2.5611,2.5683,2.5703,2.5703,2.5703,2.5703,2.5703,2.5703,2.5676,2.5646,2.561,2.5543,2.5486,2.5466,2.5428,2.539,2.537,2.5341,2.5505,2.589,2.6332,2.6774,2.7198,2.764,2.8063,2.8448,2.8871,2.9679,3.0987,3.1468,3.2295,3.3506,3.3551,3.3843,3.4333,3.4053,3.4629,3.5937,3.5508,3.6016,3.7246,3.7285,3.7773,3.8535,3.8574,3.9043,3.9726,3.9707,3.9921,4.0366,4.1091,4.1898,4.2662,2.539,2.5341,2.5303,2.5303,2.5274,2.5243,2.5222,2.5041,2.4905,2.4905,2.4809,2.4814,2.4986,2.5034,2.5111,2.5293,2.5303,2.5303,2.5303,2.5303,2.5303,2.5303,2.5303,2.5303,2.5303,2.5303,2.5303,2.5303,2.5303,2.5303,2.5303,2.5303,2.5303,2.5303,2.5303,2.5303,2.5303,2.5303,2.5303,2.5303,2.5303,2.5303,2.5303,2.5303,2.5303,2.5303,2.5303,2.5303,2.5303,2.537,2.539,2.5408,2.5467,2.5496,2.5496,2.5496,2.5496,2.5496,2.5496,2.5496,2.5496,2.5496,2.5496,2.5522,2.5642,2.5677,2.5661,2.5661,2.5661,2.5661,2.5661,2.5629,2.5581,2.5572,2.5466,2.5409,2.539,2.5341,2.5303,2.5303,2.5418,2.5813,2.6524,2.6851,2.739,2.8255,2.8467,2.889,2.9698,2.9737,3.0487,3.2083,3.2122,3.2872,3.441,3.441,3.4814,3.5584,3.5048,3.5579,3.7031,3.6484,3.7012,3.8359,3.793,3.8555,3.9863,3.9277,3.9902,4.1113,4.0273,4.0391,4.1104,4.1688,4.2995,4.4365,2.5303,2.5303,2.5303,2.5303,2.5152,2.4986,2.4902,2.4716,2.4575,2.4575,2.4543,2.4666,2.4974,2.5152,2.5264,2.5303,2.5303,2.5303,2.5303,2.5303,2.5303,2.5303,2.5303,2.5303,2.5303,2.5303,2.5303,2.5303,2.5303,2.5303,2.5303,2.5303,2.5303,2.5303,2.5303,2.5303,2.5303,2.5303,2.5303,2.5303,2.5303,2.5303,2.5303,2.5303,2.5303,2.5303,2.5303,2.5303,2.5303,2.5303,2.5341,2.539,2.5408,2.5456,2.5495,2.5495,2.5495,2.5495,2.5495,2.5495,2.5495,2.5495,2.5495,2.5504,2.552,2.5525,2.5535,2.5535,2.5535,2.5535,2.5535,2.5527,2.5493,2.5447,2.5409,2.539,2.5322,2.5303,2.5303,2.5303,2.5967,2.6467,2.6582,2.7909,2.9121,3.0006,3.0756,3.1545,3.2333,3.2391,3.2833,3.3833,3.3853,3.4334,3.5315,3.5334,3.543,3.5603,3.5521,3.5687,3.6113,3.6816,3.7246,3.7559,3.8945,3.9687,3.9941,4.0586,4.0996,4.1191,4.1055,4.1074,4.1169,4.115,4.2178,4.3558,2.5303,2.5214,2.5122,2.5122,2.4993,2.4883,2.4818,2.4623,2.4495,2.4495,2.441,2.4426,2.4693,2.491,2.5103,2.5274,2.5203,2.5173,2.5284,2.5184,2.5122,2.5122,2.5061,2.5031,2.5031,2.5031,2.5031,2.5031,2.5212,2.5303,2.5303,2.5303,2.5303,2.5303,2.5303,2.5303,2.5303,2.5303,2.5303,2.5303,2.5303,2.5303,2.5303,2.5303,2.5303,2.5303,2.5303,2.5303,2.5303,2.5303,2.5322,2.5341,2.5341,2.537,2.539,2.539,2.539,2.539,2.539,2.539,2.539,2.539,2.539,2.539,2.539,2.5395,2.541,2.5488,2.5507,2.5507,2.5507,2.5468,2.5437,2.5409,2.537,2.5495,2.5967,2.561,2.5476,2.5967,2.6794,2.7698,2.864,2.939,3.0371,3.1698,3.216,3.2526,3.2872,3.2891,3.3295,3.416,3.4199,3.4622,3.5474,3.5949,3.6199,3.6219,3.6738,3.6871,3.6641,3.7051,3.7793,3.8809,3.957,4.0176,4.0664,4.1035,4.1191,4.1191,4.1191,4.1191,4.125,4.1641,4.2534,4.3642]},{"header":{"parameterUnit":"m.s-1","parameterCategory":1,"la1":30.6,"la2":28.766,"lo1":-90.7593,"lo2":-88.6598,"dy":0.0162,"dx":0.0183,"nx":116,"ny":114,"refTime":"2023-08-25T00:00:00:Z","depth":0,"parameterNumber":3,"parameterNumberName":"V-component_of_WINDS"},"data":[0.0,0.0,0.0,0.0,0.0,0.0,0.0,0.0,0.0,0.0,0.0,0.0,0.0,0.0,0.0,0.0,0.0,0.0,0.0,0.0,0.0,0.0,0.0,0.0,0.0,0.0,0.0,0.0,0.0,0.0,0.0,0.0,0.0,0.0,0.0,0.0,0.0,0.0,0.0,0.0,0.0,0.0,0.0,0.0,0.0,0.0,0.0,0.0,0.0,0.0,0.0,0.0,0.0,0.0,0.0,0.0,0.0,0.0,0.0,0.0,0.0,0.0,0.0,0.0,0.0,0.0,0.0,0.0,0.0,0.0,0.0,0.0,0.0,0.0,0.0,0.0,0.0,0.0,0.0,0.0,0.0,0.0,0.0,0.0,0.0,0.0,0.0,0.0,0.0,0.0,0.0,0.0,0.0,0.0,0.0,0.0,0.0,0.0,0.0,0.0,0.0,0.0,0.0,0.0,0.0,0.0,0.0,0.0,0.0,0.0,0.0,0.0,0.0,0.0,0.0,0.0,0.0,0.0,0.0,0.0,0.0,0.0,0.0,0.0,0.0,0.0,0.0,0.0,0.0,0.0,0.0,0.0,0.0,0.0,0.0,0.0,0.0,0.0,0.0,0.0,0.0,0.0,0.0,0.0,0.0,0.0,0.0,0.0,0.0,0.0,0.0,0.0,0.0,0.0,0.0,0.0,0.0,0.0,0.0,0.0,0.0,0.0,0.0,0.0,0.0,0.0,0.0,0.0,0.0,0.0,0.0,0.0,0.0,0.0,0.0,0.0,0.0,0.0,0.0,0.0,0.0,0.0,0.0,0.0,0.0,0.0,0.0,0.0,0.0,0.0,0.0,0.0,0.0,0.0,0.0,0.0,0.0,0.0,0.0,0.0,0.0,0.0,0.0,0.0,0.0,0.0,0.0,0.0,0.0,0.0,0.0,0.0,0.0,0.0,0.0,0.0,0.0,0.0,0.0,0.0,0.0,0.0,0.0,0.0,0.0,0.0,0.0,0.0,0.0,0.0,0.0,0.0,0.0,0.0,0.0,0.0,0.0,0.0,0.0,0.0,0.0,0.0,0.0,0.0,0.0,0.0,0.0,0.0,0.0,0.0,0.0,0.0,0.0,0.0,0.0,0.0,0.0,0.0,0.0,0.0,0.0,0.0,0.0,0.0,0.0,0.0,0.0,0.0,0.0,0.0,0.0,0.0,0.0,0.0,0.0,0.0,0.0,0.0,0.0,0.0,0.0,0.0,0.0,0.0,0.0,0.0,0.0,0.0,0.0,0.0,0.0,0.0,0.0,0.0,0.0,0.0,0.0,0.0,0.0,0.0,0.0,0.0,0.0,0.0,0.0,0.0,0.0,0.0,0.0,0.0,0.0,0.0,0.0,0.0,0.0,0.0,0.0,0.0,0.0,0.0,0.0,0.0,0.0,0.0,0.0,0.0,0.0,0.0,0.0,0.0,0.0,0.0,0.0,0.0,0.0,0.0,0.0,0.0,0.0,0.0,0.0,0.0,0.0,0.0,0.0,0.0,0.0,0.0,0.0,0.0,0.0,0.0,0.0,0.0,0.0,0.0,0.0,0.0,0.0,0.0,0.0,0.0,0.0,0.0,0.0,0.0,0.0,0.0,0.0,0.0,0.0,0.0,0.0,0.0,0.0,0.0,0.0,0.0,0.0,0.0,0.0,0.0,0.0,0.0,0.0,0.0,0.0,0.0,0.0,0.0,0.0,0.0,0.0,0.0,0.0,0.0,0.0,0.0,0.0,0.0,0.0,0.0,0.0,0.0,0.0,0.0,0.0,0.0,0.0,0.0,0.0,0.0,0.0,0.0,0.0,0.0,0.0,0.0,0.0,0.0,0.0,0.0,0.0,0.0,0.0,0.0,0.0,0.0,0.0,0.0,0.0,0.0,0.0,0.0,0.0,0.0,0.0,0.0,0.0,0.0,0.0,0.0,0.0,0.0,0.0,0.0,0.0,0.0,0.0,0.0,0.0,0.0,0.0,0.0,0.0,0.0,0.0,0.0,0.0,0.0,0.0,0.0,0.0,0.0,0.0,0.0,0.0,0.0,0.0,0.0,0.0,0.0,0.0,0.0,0.0,0.0,0.0,0.0,0.0,0.0,0.0,0.0,0.0,0.0,0.0,0.0,0.0,0.0,0.0,0.0,0.0,0.0,0.0,0.0,0.0,0.0,0.0,0.0,0.0,0.0,0.0,0.0,0.0,0.0,0.0,0.0,0.0,0.0,0.0,0.0,0.0,0.0,0.0,0.0,0.0,0.0,0.0,0.0,0.0,0.0,0.0,0.0,0.0,0.0,0.0,0.0,0.0,0.0,0.0,0.0,0.0,0.0,0.0,0.0,0.0,0.0,0.0,0.0,0.0,0.0,0.0,0.0,0.0,0.0,0.0,0.0,0.0,0.0,0.0,0.0,0.0,0.0,0.0,0.0,0.0,0.0,0.0,0.0,0.0,0.0,0.0,0.0,0.0,0.0,0.0,0.0,0.0,0.0,0.0,0.0,0.0,0.0,0.0,0.0,0.0,0.0,0.0,0.0,0.0,0.0,0.0,0.0,0.0,0.0,0.0,0.0,0.0,0.0,0.0,0.0,0.0,0.0,0.0,0.0,0.0,0.0,0.0,0.0,0.0,0.0,0.0,0.0,0.0,0.0,0.0,0.0,0.0,0.0,0.0,0.0,0.0,0.0,0.0,0.0,0.0,0.0,0.0,0.0,0.0,0.0,0.0,0.0,0.0,0.0,0.0,0.0,0.0,0.0,0.0,0.0,0.0,0.0,0.0,0.0,0.0,0.0,0.0,0.0,0.0,0.0,0.0,0.0,0.0,0.0,0.0,0.0,0.0,0.0,0.0,0.0,0.0,0.0,0.0,0.0,0.0,0.0,0.0,0.0,0.0,0.0,0.0,0.0,0.0,0.0,0.0,0.0,0.0,0.0,0.0,0.0,0.0,0.0,0.0,0.0,0.0,0.0,0.0,0.0,0.0,0.0,0.0,0.0,0.0,0.0,0.0,0.0,0.0,0.0,0.0,0.0,0.0,0.0,0.0,0.0,0.0,0.0,0.0,0.0,0.0,0.0,0.0,0.0,0.0,0.0,0.0,0.0,0.0,0.0,0.0,0.0,0.0,0.0,0.0,0.0,0.0,0.0,0.0,0.0,0.0,0.0,0.0,0.0,0.0,0.0,0.0,0.0,0.0,0.0,0.0,0.0,0.0,0.0,0.0,0.0,0.0,0.0,0.0,0.0,0.0,0.0,0.0,0.0,0.0,0.0,0.0,0.0,0.0,0.0,0.0,0.0,0.0,0.0,0.0,0.0,0.0,0.0,0.0,0.0,0.0,0.0,0.0,0.0,0.0,0.0,0.0,0.0,0.0,0.0,0.0,0.0,0.0,0.0,0.0,0.0,0.0,0.0,0.0,0.0,0.0,0.0,0.0,0.0,0.0,0.0,0.0,0.0,0.0,0.0,0.0,0.0,0.0,0.0,0.0,0.0,0.0,0.0,0.0,0.0,0.0,0.0,0.0,0.0,0.0,0.0,0.0,0.0,0.0,0.0,0.0,0.0,0.0,0.0,0.0,0.0,0.0,0.0,0.0,0.0,0.0,0.0,0.0,0.0,0.0,0.0,0.0,0.0,0.0,0.0,0.0,0.0,0.0,0.0,0.0,0.0,0.0,0.0,0.0,0.0,0.0,0.0,0.0,0.0,0.0,0.0,0.0,0.0,0.0,0.0,0.0,0.0,0.0,0.0,0.0,0.0,0.0,0.0,0.0,0.0,0.0,0.0,0.0,0.0,0.0,0.0,0.0,0.0,0.0,0.0,0.0,0.0,0.0,0.0,0.0,0.0,0.0,0.0,0.0,0.0,0.0,0.0,0.0,0.0,0.0,0.0,0.0,0.0,0.0,0.0,0.0,0.0,0.0,0.0,0.0,0.0,0.0,0.0,0.0,0.0,0.0,0.0,0.0,0.0,0.0,0.0,0.0,0.0,0.0,0.0,0.0,0.0,0.0,0.0,0.0,0.0,0.0,0.0,0.0,0.0,0.0,0.0,0.0,0.0,0.0,0.0,0.0,0.0,0.0,0.0,0.0,0.0,0.0,0.0,0.0,0.0,0.0,0.0,0.0,0.0,0.0,0.0,0.0,0.0,0.0,0.0,0.0,0.0,0.0,0.0,0.0,0.0,0.0,0.0,0.0,0.0,0.0,0.0,0.0,0.0,0.0,0.0,0.0,0.0,0.0,0.0,0.0,0.0,0.0,0.0,0.0,0.0,0.0,0.0,0.0,0.0,0.0,0.0,0.0,0.0,0.0,0.0,0.0,0.0,0.0,0.0,0.0,0.0,0.0,0.0,0.0,0.0,0.0,0.0,0.0,0.0,0.0,0.0,0.0,0.0,0.0,0.0,0.0,0.0,0.0,0.0,0.0,0.0,0.0,0.0,0.0,0.0,0.0,0.0,0.0,0.0,0.0,0.0,0.0,0.0,0.0,0.0,0.0,0.0,0.0,0.0,0.0,0.0,0.0,0.0,0.0,0.0,0.0,0.0,0.0,0.0,0.0,0.0,0.0,0.0,0.0,0.0,0.0,0.0,0.0,0.0,0.0,0.0,0.0,0.0,0.0,0.0,0.0,0.0,0.0,0.0,0.0,0.0,0.0,0.0,0.0,0.0,0.0,0.0,0.0,0.0,0.0,0.0,0.0,0.0,0.0,0.0,0.0,0.0,0.0,0.0,0.0,0.0,0.0,0.0,0.0,0.0,0.0,0.0,0.0,0.0,0.0,0.0,0.0,0.0,0.0,0.0,0.0,0.0,0.0,0.0,0.0,0.0,0.0,0.0,0.0,0.0,0.0,0.0,0.0,0.0,0.0,0.0,0.0,0.0,0.0,0.0,0.0,0.0,0.0,0.0,0.0,0.0,0.0,0.0,0.0,0.0,0.0,0.0,0.0,0.0,0.0,0.0,0.0,0.0,0.0,0.0,0.0,0.0,0.0,0.0,0.0,0.0,0.0,0.0,0.0,0.0,0.0,0.0,0.0,0.0,0.0,0.0,0.0,0.0,0.0,0.0,0.0,0.0,0.0,0.0,0.0,0.0,0.0,0.0,0.0,0.0,0.0,0.0,0.0,0.0,0.0,0.0,0.0,0.0,0.0,0.0,0.0,0.0,0.0,0.0,0.0,0.0,0.0,0.0,0.0,0.0,0.0,0.0,0.0,0.0,0.0,0.0,0.0,0.0,0.0,0.0,0.0,0.0,0.0,0.0,0.0,0.0,0.0,0.0,0.0,0.0,0.0,0.0,0.0,0.0,0.0,0.0,0.0,0.0,0.0,0.0,0.0,0.0,0.0,0.0,0.0,0.0,0.0,0.0,0.0,0.0,0.0,0.0,0.0,0.0,0.0,0.0,0.0,0.0,0.0,0.0,0.0,0.0,0.0,0.0,0.0,0.0,0.0,0.0,0.0,0.0,0.0,0.0,0.0,0.0,0.0,0.0,0.0,0.0,0.0,0.0,0.0,0.0,0.0,0.0,0.0,0.0,0.0,0.0,0.0,0.0,0.0,0.0,0.0,0.0,0.0,0.0,0.0,0.0,0.0,0.0,0.0,0.0,0.0,0.0,0.0,0.0,0.0,0.0,0.0,0.0,0.0,0.0,0.0,0.0,0.0,0.0,0.0,0.0,0.0,0.0,0.0,0.0,0.0,0.0,0.0,0.0,0.0,0.0,0.0,0.0,0.0,0.0,0.0,0.0,0.0,0.0,0.0,0.0,0.0,0.0,0.0,0.0,0.0,0.0,0.0,0.0,0.0,0.0,0.0,0.0,0.0,0.0,0.0,0.0,0.0,0.0,0.0,0.0,0.0,0.0,0.0,0.0,0.0,0.0,0.0,0.0,0.0,0.0,0.0,0.0,0.0,0.0,0.0,0.0,0.0,0.0,0.0,0.0,0.0,0.0,0.0,0.0,0.0,0.0,0.0,0.0,0.0,0.0,0.0,0.0,0.0,0.0,0.0,0.0,0.0,0.0,0.0,0.0,0.0,0.0,0.0,0.0,0.0,0.0,0.0,0.0,0.0,0.0,0.0,0.0,-1.9773,0.0,0.0,0.0,0.0,0.0,0.0,0.0,0.0,0.0,0.0,0.0,0.0,0.0,0.0,0.0,0.0,0.0,0.0,0.0,0.0,0.0,0.0,0.0,0.0,0.0,0.0,0.0,0.0,0.0,0.0,0.0,0.0,0.0,0.0,0.0,0.0,0.0,0.0,0.0,-0.5043,-0.8737,-1.1948,-1.3446,-1.278,-1.0378,0.0,0.0,0.0,0.0,0.0,0.0,0.0,0.0,0.0,0.0,0.0,0.0,0.0,0.0,0.0,0.0,0.0,0.0,0.0,0.0,0.0,0.0,0.0,0.0,0.0,0.0,0.0,0.0,0.0,0.0,0.0,0.0,0.0,0.0,0.0,0.0,0.0,0.0,0.0,0.0,0.0,0.0,0.0,0.0,0.0,0.0,0.0,0.0,0.0,0.0,0.0,0.0,0.0,0.0,0.0,0.0,0.0,0.0,0.0,0.0,0.0,0.0,0.0,0.0,0.0,0.0,0.0,0.0,0.0,0.0,0.0,-2.472,0.0,0.0,0.0,0.0,0.0,0.0,0.0,0.0,0.0,0.0,0.0,0.0,0.0,0.0,0.0,0.0,0.0,0.0,0.0,0.0,0.0,0.0,0.0,0.0,-0.6084,-0.6459,-0.7829,0.0,0.0,0.0,0.0,0.0,0.0,0.0,0.0,-0.6756,-0.5306,-0.2711,-0.7115,-1.2202,-1.7808,-2.024,-1.8793,-1.4136,-1.4548,0.0,0.0,0.0,0.0,0.0,0.0,0.0,0.0,0.0,0.0,0.0,0.0,0.0,0.0,0.0,0.0,0.0,0.0,0.0,0.0,0.0,0.0,0.0,0.0,0.0,0.0,0.0,0.0,0.0,0.0,0.0,0.0,0.0,0.0,0.0,0.0,0.0,0.0,0.0,0.0,0.0,0.0,0.0,0.0,0.0,0.0,0.0,0.0,0.0,0.0,0.0,0.0,0.0,0.0,0.0,0.0,0.0,0.0,0.0,0.0,0.0,0.0,0.0,-3.4769,-3.6503,-3.8421,-3.7444,-3.8023,-3.9581,-3.542,-3.3432,-3.2807,-2.9384,0.0,0.0,0.0,0.0,0.0,0.0,0.0,0.0,0.0,0.0,0.0,0.0,0.0,0.0,0.0,0.0,0.0,0.0,0.0,0.0,0.0,-0.4968,-0.5575,-0.6756,-0.7635,-0.892,0.0,0.0,0.0,0.0,0.0,0.0,-0.9064,-0.7412,-0.5992,-0.4745,-0.8862,-1.2918,-1.6865,-2.0186,-2.1886,-2.2168,-2.1832,-2.1961,-2.2306,0.0,0.0,0.0,0.0,0.0,0.0,0.0,0.0,0.0,0.0,0.0,0.0,0.0,0.0,0.0,0.0,0.0,0.0,0.0,0.0,0.0,0.0,0.0,0.0,0.0,0.0,0.0,0.0,0.0,0.0,0.0,0.0,0.0,0.0,0.0,0.0,0.0,0.0,0.0,0.0,0.0,-1.5782,-2.0677,0.0,0.0,0.0,0.0,0.0,0.0,0.0,0.0,0.0,0.0,0.0,0.0,0.0,-2.8574,-3.1698,-3.4502,-3.6813,-3.8632,-4.0873,-4.2373,-4.3104,-4.2947,-4.3378,-4.4216,-4.3311,0.0,-3.7621,-3.544,0.0,0.0,0.0,0.0,0.0,0.0,0.0,0.0,0.0,0.0,0.0,0.0,0.0,0.0,0.0,0.0,0.0,0.0,0.0,0.0,0.0,-0.4931,-0.5321,-0.6022,-0.7231,-0.8581,-1.0002,0.0,0.0,0.0,0.0,-1.1719,-1.0064,-0.8824,-0.9064,-1.0839,-1.3369,-1.6556,-2.0332,-2.3975,-2.6412,-2.7792,-2.8567,-2.7805,-2.5931,-2.5903,0.0,0.0,0.0,0.0,0.0,0.0,0.0,0.0,0.0,0.0,0.0,0.0,0.0,0.0,0.0,0.0,0.0,0.0,0.0,0.0,0.0,0.0,0.0,0.0,0.0,0.0,0.0,0.0,0.0,0.0,0.0,0.0,0.0,0.0,0.0,0.0,0.0,0.0,0.0,-0.8912,-1.7278,-2.9898,-2.4098,-1.9058,0.0,0.0,0.0,0.0,0.0,0.0,0.0,0.0,0.0,-2.9039,-3.1155,-3.3667,-3.6628,-3.8137,-3.9629,-4.1116,-4.2195,-4.292,-4.3342,-4.3675,-4.4057,-4.4435,-4.479,-4.3965,-4.226,-4.0222,-3.8744,-3.7383,0.0,0.0,0.0,0.0,-2.945,-2.8752,0.0,0.0,0.0,0.0,0.0,0.0,0.0,0.0,0.0,0.0,0.0,0.0,-0.3668,-0.4442,-0.5262,-0.5789,-0.7517,-0.8931,-0.9907,-1.2417,0.0,0.0,-1.4035,-1.322,-1.1063,-0.9995,-1.0733,-1.3419,-1.5302,-1.8161,-2.196,-2.5577,-2.8205,-2.9986,-3.1964,-3.1687,-2.9787,-3.0197,-2.9875,-2.8979,0.0,0.0,0.0,0.0,0.0,0.0,0.0,0.0,0.0,0.0,0.0,0.0,0.0,0.0,0.0,0.0,0.0,0.0,0.0,0.0,0.0,0.0,0.0,0.0,0.0,0.0,0.0,0.0,0.0,0.0,0.0,0.0,0.0,0.0,0.0,0.0,0.0,-0.7283,-1.7726,-3.0958,-2.6783,-2.2783,0.0,0.0,0.0,0.0,0.0,0.0,-2.6792,-2.7748,-2.9523,-3.2354,-3.4712,-3.7026,-3.9336,-3.9682,-4.0487,-4.1654,-4.1654,-4.1843,-4.2171,-4.2853,-4.3237,-4.3473,-4.4325,-4.4716,-4.4649,-4.3221,-4.2063,-4.0986,-3.8364,-3.6703,-3.5701,-3.4965,-3.4289,-3.3761,0.0,0.0,0.0,0.0,0.0,0.0,0.0,0.0,0.0,0.0,0.0,-0.3437,-0.055,-0.302,-0.5501,-0.6907,-0.8922,-1.0664,-1.195,-1.4666,-1.6042,-1.5571,-1.5325,-1.435,-1.253,-1.0528,-0.9117,-0.8383,-1.1626,-1.5037,-1.8628,-2.183,-2.4747,-2.7324,-2.9865,-3.272,-3.55,-3.4547,-3.4339,-3.443,-3.1537,0.0,0.0,0.0,0.0,0.0,0.0,0.0,0.0,0.0,0.0,0.0,0.0,0.0,0.0,0.0,0.0,0.0,0.0,0.0,0.0,0.0,0.0,0.0,0.0,0.0,0.0,0.0,0.0,0.0,0.0,0.0,0.0,0.0,0.0,0.0,0.0,0.0,0.0,-1.8196,-2.5302,0.0,0.0,0.0,0.0,-2.6825,-2.7738,-2.8665,-2.9479,-3.1861,-3.3182,-3.3054,-3.4644,-3.6292,-3.7882,-3.793,-3.8586,-3.9919,-3.9919,-4.0105,-4.0456,-4.1234,-4.183,-4.2253,-4.3198,-4.3483,-4.3335,-4.3665,-4.3364,-4.2505,-4.0645,-3.9118,-3.7941,-3.7965,-3.7529,-3.6942,0.0,0.0,0.0,0.0,0.0,0.0,0.0,0.0,0.0,-0.4494,-0.2673,-0.0584,0.1529,-0.0919,-0.3246,-0.4693,-0.8012,-1.0842,-1.2624,-1.5383,-1.7213,-1.7746,-1.7104,-1.5236,-1.2084,-1.1847,-1.0881,-0.9084,-1.0857,-1.375,-1.78,-2.0588,-2.3798,-2.7299,-2.9173,-3.1966,-3.5274,-3.4877,-3.5361,-3.6223,-3.4369,-3.2966,0.0,0.0,0.0,0.0,0.0,0.0,0.0,0.0,0.0,0.0,0.0,0.0,0.0,0.0,0.0,0.0,0.0,0.0,0.0,0.0,0.0,0.0,0.0,0.0,0.0,0.0,0.0,0.0,0.0,0.0,0.0,0.0,0.0,0.0,0.0,0.0,0.0,-1.5167,-2.215,0.0,-2.9866,-3.1608,-3.1648,-2.9377,-3.1107,-3.1951,-3.1217,-3.1506,-3.2118,-3.3103,-3.3669,-3.4999,-3.7048,-3.7101,-3.7753,-3.9005,-3.9005,-3.9283,-3.9729,-4.0398,-4.0725,-4.0956,-4.209,-4.2554,-4.2536,-4.3124,-4.3265,-4.2986,-4.2295,-4.1575,-4.0866,-4.0382,-3.9693,-3.889,0.0,0.0,0.0,0.0,0.0,0.0,0.0,0.0,-0.4141,-0.3125,-0.1945,-0.0059,0.3082,-0.0121,-0.3234,-0.5065,-0.9316,-1.2577,-1.4327,-1.6884,-1.8455,-1.8734,-1.8068,-1.5849,-1.191,-1.2705,-1.1964,-0.9528,-1.0938,-1.368,-1.7621,-2.0318,-2.3406,-2.6725,-2.871,-3.128,-3.4159,-3.4555,-3.5768,-3.7286,-3.6459,-3.5391,-3.4168,0.0,0.0,0.0,0.0,0.0,0.0,0.0,0.0,0.0,0.0,0.0,0.0,0.0,0.0,0.0,0.0,0.0,0.0,0.0,0.0,0.0,0.0,0.0,0.0,0.0,0.0,0.0,0.0,0.0,0.0,0.0,0.0,0.0,0.0,0.4181,-0.3425,-0.9351,-1.875,-2.62,-2.9766,-3.314,-3.4058,-3.1496,-3.2724,-3.3073,-3.1931,-3.1624,-3.2075,-3.3397,-3.3742,-3.4942,-3.6953,-3.6721,-3.7219,-3.8485,-3.8206,-3.8357,-3.8946,-3.9644,-3.9993,-4.0065,-4.1285,-4.1734,-4.1559,-4.1756,-4.1854,-4.1937,-4.246,-4.235,-4.1867,-4.1297,-4.0557,-3.9605,0.0,0.0,0.0,0.0,0.0,0.0,0.0,-0.4959,-0.34,-0.0388,-0.2329,-0.1736,0.4299,-0.0536,-0.5376,-0.8169,-1.2693,-1.5955,-1.7205,-1.9252,-1.9893,-1.8674,-1.8446,-1.6429,-1.2383,-1.3239,-1.2304,-0.9331,-1.1873,-1.4698,-1.789,-2.0886,-2.3443,-2.5524,-2.8406,-3.0748,-3.2666,-3.3854,-3.5711,-3.7828,-3.7716,-3.7018,-3.6002,0.0,0.0,0.0,0.0,0.0,0.0,0.0,0.0,0.0,0.0,0.0,0.0,0.0,0.0,0.0,0.0,0.0,0.0,0.0,0.0,0.0,0.0,0.0,0.0,0.0,0.0,0.0,0.0,0.0,0.0,0.0,0.0,0.0,2.1097,1.1026,0.2754,-0.0137,-1.5303,-2.6772,-2.9915,-3.2854,-3.4136,-3.31,-3.2418,-3.1953,-3.1682,-3.2544,-3.3337,-3.4068,-3.5063,-3.6189,-3.7452,-3.6683,-3.698,-3.8267,-3.7471,-3.7415,-3.798,-3.9081,-3.9593,-3.966,-4.0777,-4.0959,-4.0431,-3.9623,-3.9296,-3.945,-4.1066,-4.1296,-4.0735,-4.0658,-4.0062,-3.908,0.0,0.0,0.0,0.0,0.0,0.0,0.0,-0.5301,-0.3408,-0.0388,0.3705,0.6219,0.5863,0.2978,-0.0391,-0.4053,-0.997,-1.4449,-1.6792,-1.9503,-2.1028,-2.0976,-2.2474,-2.1227,-1.6771,-1.8121,-1.6828,-1.2702,-1.3996,-1.5687,-1.7701,-1.9854,-2.2604,-2.5803,-2.692,-2.9188,-3.2254,-3.3338,-3.475,-3.6218,-3.6963,-3.7747,-3.8363,0.0,0.0,0.0,0.0,0.0,0.0,0.0,0.0,0.0,0.0,0.0,0.0,0.0,0.0,0.0,0.0,0.0,0.0,0.0,0.0,0.0,0.0,0.0,0.0,0.0,0.0,0.0,0.0,0.0,0.0,0.0,2.7539,2.8235,2.4748,1.5346,0.6541,0.0365,-1.3542,-2.4554,-2.9576,-3.1327,-3.1836,-3.0988,-3.1235,-3.1183,-3.0588,-3.138,-3.231,-3.3247,-3.42,-3.5199,-3.633,-3.612,-3.6664,-3.8008,-3.7183,-3.7497,-3.8773,-3.9091,-3.9373,-3.9641,-4.019,-4.0349,-4.0156,-3.9541,-3.9296,-3.9277,-3.9104,-3.9315,-3.9638,-3.8969,-3.818,-3.7296,0.0,0.0,0.0,0.0,0.0,0.0,0.0,-0.4666,-0.2613,-0.0882,0.4388,0.7987,0.7981,0.6543,0.3627,-0.1187,-0.7856,-1.3541,-1.765,-2.0047,-2.1681,-2.2493,-2.4395,-2.381,-2.0352,-2.0842,-1.9396,-1.5747,-1.6255,-1.7255,-1.876,-2.0644,-2.3038,-2.5731,-2.6819,-2.8752,-3.1247,-3.2371,-3.3804,-3.5386,-3.6004,-3.7185,-3.861,-3.8588,-3.8743,-3.8968,-3.8965,-3.9094,-3.9184,-3.8609,0.0,0.0,0.0,0.0,0.0,0.0,0.0,0.0,0.0,0.0,0.0,0.0,0.0,0.0,0.0,0.0,0.0,0.0,0.0,0.0,0.0,0.0,0.0,0.0,2.6549,2.9101,2.6835,1.8335,0.94,0.1567,-1.2763,-2.4192,-2.9711,-3.0895,-3.1248,-3.1121,-3.1232,-3.1424,-3.1619,-3.2097,-3.278,-3.3687,-3.4519,-3.537,-3.6239,-3.59,-3.6458,-3.7906,-3.7083,-3.7451,-3.8783,-3.9288,-3.9433,0.0,-3.9986,-3.9867,-3.9214,-3.8885,-3.8546,0.0,0.0,0.0,0.0,0.0,-3.7142,-3.6603,0.0,0.0,0.0,0.0,0.0,0.0,0.0,-0.3701,-0.1381,-0.1146,0.2609,0.6563,0.9919,0.9349,0.6425,0.0732,-0.6231,-1.289,-1.9095,-2.0539,-2.1843,-2.3388,-2.4909,-2.4921,-2.3238,-2.2201,-2.0651,-1.8635,-1.8468,-1.9041,-2.0433,-2.2271,-2.393,-2.5401,-2.7335,-2.8858,-3.0033,-3.1347,-3.307,-3.4971,-3.5196,-3.6245,-3.7828,-3.8953,-3.9915,-4.068,-4.0684,-4.1206,-4.1746,-4.1093,0.0,0.0,0.0,0.0,0.0,0.0,0.0,0.0,0.0,0.0,0.0,0.0,0.0,0.0,0.0,0.0,0.0,0.0,0.0,0.0,0.0,0.0,0.0,0.0,2.0873,2.6437,2.6582,1.8493,0.9716,0.2148,-1.3202,-2.5133,-3.0179,-3.1113,-3.1696,-3.2394,-3.1914,-3.2183,-3.3581,0.0,0.0,0.0,0.0,-3.6057,-3.6594,-3.5887,-3.6355,-3.7932,-3.7044,-3.7216,-3.8395,-3.9353,-3.9395,-3.8765,-3.9775,-3.9373,-3.7988,-3.7892,-3.7334,-3.6661,-3.7526,-3.7796,-3.7642,-3.6949,-3.6584,-3.6315,0.0,0.0,0.0,0.0,0.0,0.0,0.0,-0.3701,-0.0826,0.1134,0.6388,0.9718,0.9134,0.8651,0.6585,0.2159,-0.4857,-1.2019,-1.8961,-1.9826,-2.1189,-2.3694,-2.5482,-2.5958,-2.5018,-2.3494,-2.2269,-2.1363,-2.0415,-2.0279,-2.0974,-2.1897,-2.3192,-2.4807,-2.6231,-2.795,-2.9889,-3.1686,-3.3073,-3.42,-3.5756,-3.741,-3.8981,-3.9223,-3.9835,-4.0543,-4.0656,-4.0805,-4.1056,-4.1763,-4.1273,-4.0461,-4.0843,-3.9364,0.0,0.0,0.0,0.0,0.0,0.0,0.0,0.0,0.0,0.0,0.0,0.0,0.0,0.0,0.0,0.0,0.0,0.0,0.0,1.5649,1.9691,2.1212,1.9539,0.8816,0.0152,-0.238,-1.5672,-2.6324,-3.067,-3.1022,-3.1345,-3.2125,-3.2107,-3.2444,-3.3335,-3.3372,-3.3597,-3.412,-3.4913,-3.5577,-3.6063,-3.5895,-3.6639,-3.8221,0.0,0.0,-3.8689,-3.8214,-3.8054,-3.8178,-3.8396,-3.8296,-3.795,-3.7238,-3.6469,-3.5815,-3.6642,-3.6546,-3.6045,-3.6526,-3.5834,-3.4661,0.0,0.0,0.0,0.0,0.0,0.0,0.0,-0.3035,0.0055,0.2221,0.6875,0.9673,0.8804,0.8592,0.7138,0.3646,-0.4599,-1.1469,-1.5858,-1.7948,-2.0421,-2.3621,-2.5363,-2.6024,-2.5567,-2.4492,-2.3542,-2.2701,-2.2092,-2.1929,-2.2158,-2.2876,-2.4097,-2.5737,-2.6507,-2.8255,-3.0658,-3.1645,-3.2856,-3.4251,-3.5205,-3.6631,-3.8234,-3.9022,-3.9796,-4.0566,-4.1146,-4.1607,-4.1995,-4.2213,-4.2284,-4.2241,-4.2138,-4.1432,-4.0295,0.0,0.0,0.0,0.0,0.0,0.0,0.0,0.0,0.0,0.0,0.0,0.0,0.0,0.0,-2.1659,-1.6802,0.0,-0.2213,0.2929,0.7923,1.0294,0.7762,-0.1751,-0.8345,-0.8083,-1.9653,-2.8791,-3.1755,-3.2176,-3.2426,-3.2826,-3.2887,-3.3219,-3.3962,-3.3995,-3.4101,-3.4333,-3.5139,-3.5675,-3.5899,-3.5899,-3.6359,-3.7296,-3.6482,-3.669,-3.7759,-3.774,-3.7594,-3.7373,-3.7815,-3.7526,-3.6719,-3.6276,-3.5872,-3.5532,-3.5949,-3.5853,-3.5565,-3.5949,-3.5295,-3.4199,0.0,0.0,0.0,0.0,0.0,0.0,0.0,0.0,0.044,0.2499,0.5924,0.8312,0.8645,0.8725,0.6938,0.2338,-0.5493,-1.1032,-1.2992,-1.6068,-1.9305,-2.2805,-2.4367,-2.5171,-2.5205,-2.5007,-2.4471,-2.3578,-2.351,-2.3485,-2.356,-2.4264,-2.5368,-2.6779,-2.7323,-2.9061,-3.1594,-3.1747,-3.2955,-3.4739,-3.4739,-3.5538,-3.6909,-3.8311,-3.9485,-4.0431,-4.1239,-4.1959,-4.2472,-4.2341,-4.2633,-4.3032,-4.2832,-4.2864,-4.2574,-4.0558,-3.9507,0.0,0.0,0.0,0.0,0.0,0.0,0.0,0.0,-3.1843,-3.3112,-3.3182,-3.1752,-3.0057,-2.8452,-2.0493,-1.357,-1.1962,-0.6022,-0.2527,-0.5467,-1.2342,-1.6926,-1.6408,-2.4914,-3.1434,-3.3022,-3.354,-3.3781,-3.3776,-3.3926,-3.4272,-3.4851,-3.4889,-3.4889,-3.4889,-3.5514,-3.5855,-3.5836,-3.5836,-3.6027,-3.6379,-3.6241,-3.6377,-3.6776,-3.7296,-3.718,-3.6546,-3.7257,-3.6796,-3.5545,-3.5545,-3.5435,-3.532,-3.5455,-3.5301,-3.5032,-3.5199,-3.4699,-3.393,0.0,0.0,0.0,0.0,0.0,0.0,0.0,0.0,0.0,0.1889,0.4559,0.6854,0.85,0.8725,0.4381,-0.6367,-0.8338,-1.0397,-1.3729,-1.5389,-1.7555,-2.0439,-2.1843,-2.2923,-2.3807,-2.4521,-2.4808,-2.4635,-2.4444,-2.4479,-2.4719,-2.5334,-2.5943,-2.6601,-2.818,-2.9994,-3.1907,-3.2679,-3.4003,-3.5558,-3.5558,-3.5675,-3.5947,-3.6907,-3.8263,-3.9723,-3.9838,-3.9934,-4.0228,-4.1779,-4.1762,-4.1504,-4.3812,-4.391,-4.2922,-4.1724,-4.0196,-3.8364,-3.5797,-3.3924,-3.2907,-3.3701,-3.4244,-3.5285,0.0,-3.8904,-3.9092,-3.8915,-3.7114,-3.4509,-3.0949,-2.5781,-2.0931,-1.7406,-1.5165,-1.4813,-1.7654,-2.2172,-2.6574,-3.0404,-3.1905,-3.3003,-3.4033,-3.4302,-3.4404,-3.4399,-3.506,-3.5504,-3.5585,-3.5605,-3.5605,-3.5605,-3.5667,-3.5686,-3.5628,-3.5628,-3.5989,-3.6637,-3.5984,-3.6094,-3.6858,-3.6238,-3.5892,-3.5815,-3.5911,-3.5853,-3.568,-3.568,-3.5262,-3.4691,-3.532,-3.4647,-3.3365,-3.4083,-3.3795,-3.2949,0.0,0.0,0.0,0.0,0.0,0.0,0.0,0.0,0.0,0.0,0.361,0.5575,0.6928,0.5023,0.0929,-0.5742,-0.6806,-0.7913,-0.989,-1.3085,-1.5633,-1.7324,-1.9426,-2.1247,-2.275,-2.3728,-2.4321,-2.4563,-2.4644,-2.4767,-2.4968,-2.5743,-2.6786,-2.8079,-2.931,-3.1139,-3.3329,-3.3688,-3.4842,-3.6456,-3.6456,-3.6769,-3.7257,-3.7628,-3.8203,-3.8843,-3.8831,-3.9174,0.0,-4.0474,-4.0798,-4.1142,-4.2728,-4.2887,-4.231,-4.1366,-4.0145,-3.8799,-3.7276,-3.6935,-3.7041,-3.7184,-3.8369,-3.9792,-4.0956,-4.0984,-4.0816,-4.1024,-3.9623,-3.7475,-3.4732,-3.0758,-2.7045,-2.4349,-2.3112,-2.3075,-2.4949,-2.8238,-3.1687,-3.4865,-3.5579,-3.5816,-3.5813,-3.5512,-3.528,-3.5203,-3.5578,-3.5781,-3.5708,-3.5699,-3.5699,-3.5699,-3.5699,-3.5679,-3.566,-3.5669,-3.5815,-3.6103,-3.5815,-3.5842,-3.6203,-3.5854,-3.5699,-3.5699,-3.5699,-3.5699,-3.5699,-3.5699,-3.5234,-3.4517,-3.4836,-3.421,-3.3204,-3.3936,-3.3353,-3.216,0.0,0.0,0.0,0.0,0.0,0.0,0.0,0.0,0.0,0.0,0.2941,0.4615,0.4842,0.2215,-0.0885,-0.4223,-0.5128,-0.5876,-0.674,-1.043,-1.3142,-1.443,-1.6965,-1.9113,-2.0891,-2.2335,-2.3451,-2.4189,-2.4536,-2.4917,-2.535,-2.656,-2.7848,-2.9224,-3.0659,-3.2454,-3.4458,-3.4764,-3.5795,-3.725,-3.7569,-3.7938,-3.8326,-3.8559,-3.8442,-3.821,-3.8268,-3.8543,-3.89,-3.9073,-3.9378,-3.9859,-4.0825,-4.1088,-4.0929,-4.0364,-3.9454,-3.8497,-3.7894,-3.8632,-3.9584,-3.9493,-4.093,-4.2358,-4.2273,-4.1892,-4.1698,-4.2242,-4.1016,-3.9398,-3.8034,-3.4991,-3.2187,-3.0624,-2.9885,-2.9909,-3.1038,-3.307,-3.5239,-3.7418,-3.7877,-3.7915,-3.7676,-3.6805,-3.6216,-3.6119,-3.5953,-3.58,-3.5718,-3.5695,-3.5695,-3.5695,-3.5695,-3.5692,-3.5666,-3.5677,-3.567,-3.5662,-3.5697,-3.5715,-3.5763,-3.5768,-3.5788,-3.5788,-3.5788,-3.5788,-3.5768,-3.5515,-3.4949,-3.4179,-3.4179,-3.3481,-3.2601,-3.3299,-3.2798,-3.1725,0.0,0.0,0.0,0.0,0.0,0.0,0.0,0.0,0.0,0.0,0.0,0.0,0.0,0.1779,-0.0166,-0.4177,-0.4549,-0.4956,-0.5892,-0.7712,-0.9819,-1.2117,-1.4313,-1.6216,-1.7731,-2.0243,-2.2252,-2.3617,-2.4224,-2.5093,-2.6203,-2.825,-2.9231,-2.942,-3.225,-3.3977,-3.4854,-3.5949,-3.6949,-3.7873,-3.8984,-3.8969,-3.8385,-3.9165,-3.8818,-3.7946,-3.821,-3.7763,-3.717,-3.7756,-3.7357,-3.6882,-3.8278,-3.8656,-3.8639,-3.8899,-3.8005,-3.698,-3.702,-3.7672,-3.8779,-4.0507,-4.1478,-4.2132,-4.2579,-4.2574,-4.2604,-4.3171,-4.1565,-4.0092,-4.0184,-3.815,-3.6197,-3.5509,-3.5335,-3.5754,-3.6878,-3.6999,-3.7757,-3.9851,-3.9067,-3.8684,-3.9438,-3.8083,-3.7173,-3.7154,-3.625,-3.5697,-3.5704,-3.5704,-3.5704,-3.5704,-3.5704,-3.5669,-3.5591,-3.5596,-3.5602,-3.5593,-3.5665,-3.5766,-3.5894,-3.5962,-3.5996,-3.5996,-3.5996,-3.5996,-3.5937,-3.5078,-3.4219,-3.3436,-3.3356,-3.23,-3.0874,-3.1668,-3.1942,-3.177,0.0,0.0,0.0,0.0,0.0,0.0,0.0,0.0,0.0,0.0,0.0,0.0,0.0,0.0,0.0,0.0,-0.2382,-0.3548,-0.4855,-0.5682,-0.644,-0.7239,-1.1054,-1.3999,-1.563,-1.8601,-2.0977,-2.2802,-2.4066,-2.521,-2.623,-2.786,-2.9285,-3.0493,-3.2449,-3.4363,-3.6113,-3.6868,-3.7939,-3.926,-4.0053,-4.031,-4.0145,-3.9392,-3.8602,-3.7728,0.0,-3.6081,-3.6425,-3.6515,-3.6364,-3.6288,-3.7338,-3.7263,-3.6701,-3.6234,-3.6394,-3.68,-3.7335,-3.8748,-4.0349,-4.1455,-4.2329,-4.2972,-4.3137,-4.2946,-4.2813,-4.3006,-4.1775,-4.0551,-4.0051,-3.8957,-3.7701,-3.6424,-3.6596,-3.6918,-3.6851,-3.7705,-3.8651,-3.9434,-3.9813,-4.0162,-4.0626,0.0,0.0,-3.7893,-3.6618,-3.6049,-3.6543,-3.601,-3.5689,-3.5689,-3.5689,-3.5693,-3.5667,-3.5667,-3.567,-3.5675,-3.5697,-3.5717,-3.5762,-3.5793,-3.5802,-3.5806,-3.5893,-3.5937,-3.5879,-3.5039,-3.4199,-3.334,-3.2783,-3.1861,-3.0857,-3.1041,-3.1157,-3.1164,0.0,0.0,0.0,0.0,0.0,0.0,0.0,0.0,0.0,0.0,0.0,0.0,0.0,0.0,0.0,0.0,0.0,-0.1843,-0.2828,-0.353,-0.421,-0.4883,-0.7864,-1.0608,-1.3074,-1.5754,-1.8316,-2.0823,-2.2072,-2.3672,-2.5614,-2.6961,-2.8451,-3.0165,-3.2127,-3.397,-3.5648,-3.669,-3.7747,-3.8761,-3.9571,-3.9822,-3.962,-3.8707,-3.7789,0.0,-3.5101,-3.4516,-3.4566,-3.476,-3.4833,-3.4902,-3.5386,-3.5027,-3.4437,-3.4449,-3.4965,-3.5806,-3.7104,-3.851,-3.9877,-4.098,-4.1645,-4.2106,-4.2369,-4.2274,-4.2197,-4.2449,-4.1374,-4.0332,-4.0158,-3.9473,-3.8499,-3.7137,-3.7361,-3.7499,-3.7068,-3.7513,-3.8248,-3.9252,-3.9714,-4.0212,-4.0889,-3.9135,0.0,-3.8717,-3.7353,-3.6622,-3.6867,-3.591,-3.5438,-3.5608,-3.5454,-3.5388,-3.5484,-3.5388,-3.54,-3.5526,-3.5637,-3.5708,-3.5708,-3.5708,-3.5708,-3.5697,-3.5482,-3.5405,-3.5351,-3.4219,-3.3437,-3.2891,-3.2051,-3.1387,-3.0898,-3.0804,-3.0806,-3.081,0.0,0.0,0.0,0.0,0.0,0.0,0.0,0.0,0.0,0.0,0.0,0.0,0.0,0.0,0.0,0.0,0.0,0.0,0.0,-0.1295,-0.2893,-0.4789,-0.4858,-0.6508,-1.0066,-1.2007,-1.4629,-1.7921,-1.8509,-2.0669,-2.4287,-2.551,-2.6842,-2.8263,-3.1039,-3.2704,-3.3485,-3.5419,-3.6285,-3.6414,-3.7627,-3.7678,-3.6932,-3.7001,-3.6262,-3.5142,-3.4414,-3.3087,-3.1799,-3.2565,-3.2853,-3.2793,-3.2577,-3.2197,-3.2165,-3.3586,-3.3877,-3.4225,-3.6377,-3.707,-3.7578,-3.9277,-3.9618,-3.9725,-4.0488,-4.0643,-4.0858,-4.1601,-4.0449,-3.9608,-4.0545,-3.9824,-3.8814,-3.7935,-3.789,-3.7923,-3.7753,-3.6755,-3.6901,-3.9287,-3.8876,-3.8899,-4.023,-3.9591,-3.9218,-3.9528,0.0,-3.7328,-3.6752,-3.5475,-3.4963,-3.5388,-3.4887,-3.4756,-3.5011,-3.4794,-3.4831,-3.5119,-3.5479,-3.5652,-3.5666,-3.5666,-3.5647,-3.5584,-3.4822,-3.4509,-3.4393,-3.2695,-3.207,-3.2109,-3.123,-3.0879,-3.0879,-3.0879,-3.0794,-3.0694,0.0,0.0,0.0,0.0,0.0,0.0,0.0,0.0,0.0,0.0,0.0,0.0,0.0,0.0,0.0,0.0,0.0,0.0,0.0,-0.0324,-0.0786,-0.131,-0.3967,-0.629,-0.8127,-1.1382,-1.4403,-1.7155,-1.824,-1.9629,-2.1211,-2.2642,-2.3771,-2.4781,-2.6972,-2.8674,-2.9997,-3.1967,-3.3134,-3.3799,-3.5234,-3.5448,-3.4741,-3.3681,-3.3168,-3.2846,-3.1642,-3.1244,-3.1374,-3.1837,-3.1982,-3.1984,-3.2256,-3.2715,-3.3266,-3.395,-3.4913,-3.5889,-3.653,-3.7377,-3.8359,-3.9551,-3.9271,-3.8924,-3.9762,-3.9924,-4.0122,-4.0959,-4.0269,-3.979,-4.0683,-4.0576,-4.0071,-3.9252,-3.9669,-3.9668,-3.8408,-3.7909,-3.7729,-3.7829,-3.8086,-3.8336,-3.8531,-3.8802,-3.8898,0.0,-3.7863,-3.7216,-3.7013,-3.6096,-3.5075,-3.3976,-3.3791,-3.3753,-3.3847,-3.4413,-3.4415,-3.3881,-3.4603,-3.5056,-3.5245,-3.5245,-3.4998,-3.4564,-3.4424,-3.4021,-3.3401,-3.2355,-3.1948,-3.1889,-3.1027,-3.0676,-3.0676,-3.0676,-3.065,-3.0625,0.0,0.0,0.0,0.0,0.0,0.0,0.0,0.0,0.0,0.0,0.0,0.0,0.0,0.0,0.0,0.0,0.0,0.0,0.0,0.1748,0.0954,0.0068,-0.2573,-0.4839,-0.6761,-0.9616,-1.2237,-1.4404,-1.5721,-1.7167,-1.8599,-1.9619,-2.0643,-2.1701,-2.3203,-2.4595,-2.5841,-2.7841,-2.8997,0.0,0.0,-3.1279,-3.0954,-3.0251,-3.022,-3.0526,-2.9855,-2.993,-3.0277,-2.9922,-3.0326,-3.1113,-3.1545,-3.1976,-3.2636,-3.421,-3.4833,-3.5229,-3.6407,-3.7247,-3.8014,-3.8951,-3.8773,-3.8539,-3.9227,-3.9073,-3.887,-3.9219,-3.8858,-3.8703,-3.9371,-4.007,-4.0187,-3.912,-3.9699,-3.968,-3.7972,-3.7411,-3.7092,-3.6961,-3.7242,-3.747,-3.7469,-3.7743,-3.7815,-3.7564,-3.7224,-3.7042,-3.7109,-3.5754,-3.4495,-3.3412,-3.317,-3.2892,-3.2537,-3.3468,-3.3719,-3.3231,-3.4239,-3.4774,-3.4926,-3.4926,-3.4732,-3.4375,0.0,-3.3197,-3.2781,-3.1632,-3.1222,-3.128,-3.0787,-3.0593,-3.0593,-3.0593,-3.0574,-3.0548,0.0,0.0,0.0,0.0,0.0,0.0,0.0,0.0,0.0,0.0,0.0,0.0,0.0,0.0,0.0,0.0,0.0,0.0,0.0,0.0,0.2669,0.0914,-0.0717,-0.2901,-0.5676,-0.741,-0.9184,-1.1056,-1.2179,-1.3824,-1.58,-1.6201,-1.7081,-1.8299,-1.9374,-2.0307,-2.123,-2.3301,-2.4261,-2.4646,-2.5873,-2.6402,-2.6424,0.0,-2.7262,-2.7971,-2.8498,-2.885,-2.897,-2.7797,-2.8686,-3.0349,-3.0711,-3.0942,-3.1711,-3.4426,-3.4458,-3.4074,-3.6243,-3.698,-3.7325,-3.8101,-3.8205,-3.8229,-3.8722,-3.8099,-3.7356,-3.7133,-3.7049,-3.7156,-3.7634,-3.8992,-3.9645,-3.8432,-3.9058,-3.9108,-3.7425,-3.6475,-3.6107,-3.6481,-3.6367,-3.6335,-3.6509,-3.6393,-3.621,-3.6072,-3.6149,-3.641,-3.6788,-3.4902,-3.3593,-3.3162,-3.2585,-3.1953,-3.1237,-3.2376,-3.2883,-3.2813,-3.4011,-3.4612,-3.4632,-3.4632,-3.4578,-3.4449,0.0,0.0,-3.2269,-3.0874,-3.0375,-3.0484,-3.0484,-3.0484,-3.0484,-3.0484,-3.0433,-3.0369,0.0,0.0,0.0,0.0,0.0,0.0,0.0,0.0,0.0,0.0,0.4674,0.492,0.0,0.0,0.0,0.0,0.0,0.0,0.0,0.0,0.0,0.5235,0.1642,-0.1578,-0.4346,-0.5888,-0.7647,-0.9617,-0.9883,-1.0209,-1.0599,-1.1421,-1.1957,-1.2291,-1.4448,-1.5609,-1.6168,-1.8526,-1.9678,-2.0149,-2.2271,-2.3012,-2.2809,-2.3256,0.0,0.0,-2.6183,-2.7404,-2.8185,-2.7977,-2.8976,-3.0371,-3.0284,-3.1748,-3.37,-3.4632,-3.575,-3.6689,-3.6541,-3.7178,-3.7957,-3.8238,-3.7731,-3.7271,-3.781,-3.6957,-3.6128,-3.647,-3.6577,-3.6836,-3.7638,-3.8554,-3.9162,-3.9037,-3.9947,-4.0196,-3.8899,-3.7924,-3.7032,-3.6197,-3.5461,-3.4932,-3.4697,-3.4338,-3.4284,0.0,-3.38,-3.3876,-3.5284,-3.4357,-3.3162,-3.18,-3.1017,-3.0558,-3.0411,-3.1912,-3.2323,-3.1704,-3.3227,-3.4068,-3.4288,-3.4288,-3.4049,-3.3598,-3.3315,0.0,-3.1178,-3.0877,-3.0421,-2.9853,-2.9853,-2.9853,-2.9853,-2.9853,-2.9834,-2.9834,0.0,0.0,0.0,0.0,0.0,0.0,0.0,0.3068,0.3919,0.4994,0.5044,0.507,0.544,0.5481,0.5545,0.0,0.0,0.0,0.0,0.0,0.0,0.0,0.0,0.0,-0.1935,-0.4804,-0.6786,-0.7767,0.0,-0.9236,-0.904,-0.9665,-0.9938,-1.0018,-1.1166,-1.1822,-1.2234,-1.4584,-1.5801,-1.6373,-1.8939,-2.0042,-2.0148,0.0,0.0,0.0,-2.4411,-2.5345,-2.6052,-2.644,-2.7454,-2.8636,-2.925,-3.1091,-3.302,-3.344,-3.4752,-3.6077,-3.5991,-3.7069,-3.8214,-3.829,-3.7966,-3.7489,-3.6971,-3.6011,-3.5076,-3.4491,-3.4714,-3.5214,-3.5828,-3.6938,-3.7746,-3.7536,-3.8622,-3.8983,-3.7522,-3.6945,-3.6347,-3.5432,-3.44,-3.3751,-3.3697,-3.3281,-3.3117,-3.3377,-3.2488,-3.2624,-3.4235,-3.2805,-3.1397,-3.0252,-2.9413,-2.9188,-2.9584,-3.0756,-3.1351,-3.134,-3.2559,-3.3189,-3.3338,-3.357,-3.3405,-3.292,-3.2735,0.0,-3.1249,-3.0406,-3.0146,-3.02,-2.9427,-2.9593,-3.0203,-2.9625,-2.9626,-2.9887,0.0,0.0,0.0,0.0,0.0,0.0,0.0,0.3738,0.3663,0.5174,0.5185,0.526,0.5606,0.5637,0.5768,0.0,0.0,0.0,0.0,0.0,0.0,0.0,0.0,0.0,0.0,0.0,0.0,-0.6338,-0.791,0.0,0.0,0.0,0.0,0.0,-0.8861,-0.911,-0.9463,-1.1372,-1.2531,0.0,0.0,-1.6895,0.0,0.0,0.0,0.0,0.0,-2.2906,-2.3746,-2.4345,-2.5367,-2.6579,-2.7668,-2.9909,-3.2118,-3.2127,-3.3669,-3.5423,-3.5501,-3.6949,-3.8367,-3.8179,-3.8225,-3.7906,-3.6436,-3.5357,-3.4207,-3.2717,-3.2792,-3.3178,-3.3501,-3.4637,-3.5417,-3.518,-3.6211,-3.6772,-3.6012,-3.5629,-3.5308,-3.4981,-3.3828,-3.3063,-3.3045,-3.2616,-3.2279,-3.2137,-3.1348,0.0,-3.2639,-3.0973,-2.9697,-2.9107,-2.8315,-2.834,-2.9248,-2.9897,-3.0557,-3.1317,-3.2113,-3.2573,-3.2747,-3.2961,-3.2948,-3.2712,-3.2286,0.0,0.0,-3.0245,-3.008,-3.0513,-2.9216,-2.9391,-3.0293,-2.9246,-2.9208,-2.96,0.0,0.0,0.0,0.0,0.0,0.0,0.0,0.4637,0.4804,0.5102,0.5123,0.5239,0.562,0.5721,0.5844,0.0,0.0,0.0,0.0,0.0,0.0,0.0,0.0,0.0,0.0,0.0,0.0,-0.6541,-0.6694,0.0,0.0,0.0,0.0,0.0,0.0,-0.8117,-0.8449,-0.9541,0.0,0.0,0.0,0.0,0.0,0.0,0.0,0.0,0.0,-2.0254,-2.2094,-2.2168,-2.3428,-2.5002,-2.5219,-2.8756,-3.2609,-3.1544,-3.4134,-3.7049,-3.5686,-3.7002,-3.8592,-3.7858,-3.7965,-3.7906,-3.6436,-3.51,-3.3784,-3.2423,-3.1596,-3.1207,-3.1425,-3.1551,-3.1865,-3.2582,-3.3046,-3.4079,-3.631,-3.5402,-3.4833,-3.5687,-3.4464,-3.3294,-3.2621,-3.2127,-3.1602,-3.0924,-2.9831,0.0,-2.952,-2.9319,-2.916,-2.9089,-2.8315,-2.8605,-3.0092,-3.0163,-3.0557,-3.1317,-3.2113,-3.2838,-3.3492,-3.2869,-3.2889,-3.3474,-3.2781,0.0,0.0,-3.1172,-3.0729,-3.0074,-2.9284,-2.9065,-2.9083,-2.8304,-2.8065,-2.8091,0.0,0.0,0.0,0.0,0.0,0.0,0.1613,0.3453,0.4761,0.5074,0.5219,0.5449,0.5854,0.5895,0.6003,0.6166,0.0,0.0,0.0,0.0,0.0,0.0,0.0,0.0,0.0,0.0,-0.2986,-0.6654,-0.6641,0.0,0.0,0.0,0.0,0.0,0.0,-0.6995,-0.7125,-0.8238,0.0,0.0,0.0,0.0,0.0,0.0,0.0,0.0,0.0,0.0,-1.8597,-1.9697,-2.0365,-2.1062,-2.2298,-2.5252,-2.8747,-3.0739,-3.2434,-3.3644,-3.3506,-3.5278,-3.7112,-3.6791,-3.6808,-3.6567,-3.5272,-3.3935,-3.2602,-3.1264,-3.0492,-2.9903,-2.9521,-2.9463,-2.9591,-2.9894,-3.0427,-3.1463,-3.3302,-3.3024,-3.3204,-3.4689,-3.2966,-3.183,-3.2225,-3.0757,-2.9297,-2.8135,-2.7646,0.0,-2.6771,-2.7742,-2.8125,-2.7659,-2.7316,-2.7696,-2.8747,-2.923,-2.9851,-3.0574,-3.1817,-3.2317,-3.2179,-3.2612,-3.2377,-3.1601,-3.1565,0.0,0.0,-2.9694,-2.9326,-2.9008,-2.8198,-2.8219,-2.8615,-2.8408,-2.832,-2.8302,0.0,0.0,0.0,0.0,0.0,0.1257,0.0188,0.2715,0.5029,0.5743,0.5549,0.5498,0.5796,0.5346,0.5431,0.6424,0.6507,0.0,0.0,0.0,0.0,0.0,0.0,0.0,0.0,0.0,-0.1816,-0.578,-0.6418,-0.677,0.0,0.0,-0.6668,-0.6603,0.0,0.0,0.0,0.0,0.0,0.0,0.0,0.0,0.0,0.0,0.0,0.0,0.0,0.0,0.0,0.0,0.0,-1.7497,-1.9154,-2.1001,-2.3328,-2.7721,-3.0258,-3.1612,-3.1754,-3.3639,-3.5626,-3.583,-3.5665,-3.5133,-3.3917,-3.2758,-3.1399,-2.9534,-2.8973,-2.8467,-2.7376,-2.7374,-2.744,-2.7236,-2.7819,-2.8978,-3.0964,-3.1061,-3.1678,-3.376,-3.2236,-3.1078,-3.1299,-2.9179,-2.7294,-2.6157,-2.6007,0.0,-2.5005,-2.6274,-2.6714,-2.598,-2.6319,-2.6687,-2.7064,-2.8159,-2.9013,-2.9632,-3.0866,-3.13,-3.1016,-3.1635,-3.134,-3.0359,-3.0444,0.0,0.0,-2.8862,-2.8638,-2.8618,-2.7844,-2.786,-2.8351,-2.8244,-2.8063,-2.7906,0.0,0.0,0.0,0.0,0.0,0.0,0.0515,0.3089,0.5862,0.7286,0.6242,0.538,0.5391,0.3805,0.3885,0.6852,0.6739,0.0,0.0,0.0,0.0,0.0,0.0,0.0,0.0,0.0,-0.0929,-0.3639,-0.5605,-0.6786,-0.7129,-0.6837,-0.6696,-0.6823,0.0,0.0,0.0,0.0,0.0,0.0,0.0,0.0,0.0,0.0,0.0,0.0,0.0,0.0,0.0,0.0,0.0,0.0,0.0,-1.5988,-1.6697,-2.1712,-2.7769,-3.2432,-3.0915,-3.2372,-3.4471,-3.5217,-3.4762,-3.3811,-3.2599,-3.1816,-3.0402,-2.7098,-2.698,-2.6849,-2.4927,-2.5024,-2.5246,-2.4609,-2.5038,-2.6649,-3.0138,-2.9961,-3.0516,-3.3288,-3.2908,-3.1678,-2.9614,-2.7544,-2.6093,-2.5539,0.0,0.0,-2.443,-2.491,-2.49,-2.4232,-2.5386,-2.5779,-2.5329,-2.7179,-2.82,-2.8405,-2.9115,-2.982,-3.0475,-2.9772,-2.9836,0.0,0.0,0.0,0.0,-2.939,-2.939,-2.9326,-2.8562,-2.8291,-2.8211,-2.7482,-2.6796,-2.6423,0.0,0.0,0.0,0.0,0.0,0.0,0.0,0.4671,0.5563,0.6006,0.5663,0.5388,0.5399,0.377,0.3889,0.6859,0.695,0.0,0.0,0.0,0.0,0.0,0.0,0.0,0.0,0.0,0.1099,-0.1123,-0.5017,-0.6939,-0.685,-0.6922,-0.6984,-0.7025,-0.6831,-0.6736,0.0,0.0,0.0,0.0,0.0,0.0,-0.7115,0.0,0.0,0.0,0.0,0.0,0.0,0.0,0.0,0.0,0.0,0.0,0.0,-1.599,-2.0654,-2.5239,-2.7042,-2.844,-2.9717,-3.1005,-3.1149,-3.0935,-3.1022,-2.9826,-2.8086,-2.6115,-2.5412,-2.4435,-2.2129,-2.2398,-2.2763,-2.2223,-2.3102,-2.4689,-2.7072,-2.8015,-2.8972,-3.0436,-2.935,-2.75,-2.5047,0.0,-2.3756,-2.3585,0.0,0.0,-2.3837,-2.3991,-2.4337,-2.4846,-2.526,-2.5373,-2.5221,-2.6308,-2.713,-2.7672,-2.8874,-2.9563,-2.9742,-3.0028,-2.9782,0.0,0.0,0.0,0.0,-2.7975,-2.7638,-2.6872,-2.7576,-2.7514,-2.7241,-2.786,-2.7654,-2.7121,0.0,0.0,0.0,0.0,0.0,0.0,0.0,0.5767,0.5898,0.5427,0.54,0.5377,0.5416,0.378,0.3175,0.4356,0.6048,0.0,0.0,0.0,0.0,0.0,0.0,0.0,0.6638,0.5312,0.3085,-0.0,-0.2956,-0.4831,-0.5496,-0.5864,-0.6433,-0.7118,-0.6898,-0.6746,0.0,0.0,0.0,0.0,0.0,0.0,-0.7061,0.0,0.0,0.0,0.0,0.0,0.0,0.0,0.0,0.0,0.0,0.0,0.0,0.0,-1.4877,-1.825,-2.2962,-2.4913,-2.6167,-2.8078,-2.8204,-2.7973,-2.8781,-2.7555,-2.5908,-2.4563,-2.3649,-2.2375,-2.0032,-2.0028,-2.017,-1.9418,-2.0523,-2.2278,-2.4631,-2.6028,-2.7237,-2.8379,-2.6897,-2.5071,0.0,-2.2616,-2.2331,-2.2328,0.0,0.0,-2.3246,-2.3465,-2.3921,-2.4592,-2.4776,-2.4705,-2.4272,-2.5627,-2.6446,-2.6686,-2.8091,-2.8748,-2.8732,-2.9202,-2.8792,0.0,0.0,0.0,0.0,-2.7039,-2.6881,-2.6422,-2.698,-2.7104,-2.7055,-2.789,-2.7712,-2.7209,0.0,0.0,0.0,0.0,0.0,0.0,0.0,0.6296,0.6609,0.5631,0.5477,0.53,0.5032,0.3511,0.1805,0.0167,0.0,0.0,0.0,0.0,0.0,0.0,0.0,0.0,0.6781,0.7004,0.4894,0.0251,0.0084,-0.1253,-0.3595,-0.393,-0.5212,-0.7058,-0.6851,-0.6635,-0.6522,0.0,0.0,0.0,0.0,0.0,0.0,0.0,0.0,0.0,0.0,0.0,0.0,0.0,0.0,0.0,0.0,0.0,0.0,0.0,0.0,0.0,0.0,-2.1533,-2.3323,-2.5986,-2.5684,-2.4994,-2.5937,-2.523,0.0,-2.2577,-2.1783,-2.0655,-1.8544,-1.8051,-1.7574,-1.6572,-1.7653,-1.9619,-2.2697,-2.4079,-2.5292,-2.6772,-2.5369,-2.4061,-2.3423,-2.222,-2.1519,0.0,0.0,0.0,-2.2577,-2.3172,-2.3507,-2.3551,-2.4074,-2.3825,-2.2783,-2.5053,-2.5955,-2.5555,-2.6826,-2.749,-2.749,-2.758,-2.7215,0.0,0.0,0.0,0.0,-2.646,-2.6797,-2.7333,-2.6759,-2.693,-2.7524,-2.7575,-2.7235,-2.6834,0.0,0.0,0.0,0.0,0.0,0.0,0.0,0.0,0.0,0.0,0.6066,0.4504,0.1594,0.0855,0.0488,0.0,0.0,0.0,0.0,0.0,0.0,0.0,0.0,0.0,0.7001,0.7114,0.5695,0.2762,0.0907,-0.1065,-0.3202,-0.3309,-0.4575,-0.6757,-0.6833,-0.5907,-0.4246,-0.2394,0.0,0.0,0.0,0.0,0.0,0.0,0.0,0.0,-0.6647,-0.6427,0.0,0.0,0.0,0.0,0.0,0.0,0.0,0.0,-0.7343,-0.8156,-1.2138,0.0,-1.7678,-2.106,-2.1685,-2.1873,0.0,-2.3329,-2.2377,-2.1307,-2.0334,-1.907,-1.7032,-1.6523,-1.6147,-1.5437,-1.6453,-1.8117,-2.0463,-2.2727,-2.402,-2.37,-2.2799,-2.1648,-2.0256,-1.9832,-1.9664,0.0,0.0,-2.037,-2.1262,-2.193,-2.2469,-2.2905,-2.3493,-2.3649,-2.3385,-2.3964,-2.4461,-2.4821,-2.5674,-2.6078,-2.6093,-2.7111,-2.7215,0.0,0.0,0.0,-2.5727,-2.5692,-2.5434,-2.5254,-2.615,-2.6616,-2.6826,-2.7408,-2.752,-2.7415,0.0,0.0,0.0,0.0,0.0,0.0,0.0,0.0,0.0,0.0,0.0,0.0,0.0,0.0,0.0,0.0,0.0,0.0,0.0,0.0,0.0,0.0,0.0,0.6881,0.7128,0.707,0.5978,0.363,0.1154,-0.1143,-0.3294,-0.3353,-0.4543,-0.6717,-0.694,-0.575,-0.3476,-0.0984,0.0,0.0,0.0,0.0,0.0,0.0,0.0,0.0,-0.3551,-0.3429,0.0,-0.3053,-0.2892,-0.3091,0.0,0.0,0.0,0.0,-0.5436,-0.6615,-0.825,-1.1101,-1.4324,-1.7121,-1.8352,-1.9293,-2.076,-2.0779,-2.0414,-2.0244,-1.894,-1.7611,-1.6789,-1.5707,-1.4883,-1.4443,-1.521,-1.6595,-1.8845,-2.0862,-2.1722,-2.0797,-2.0147,-1.9438,0.0,-1.8326,0.0,0.0,0.0,-1.94,-2.0039,-2.0957,-2.1549,-2.1843,-2.2417,-2.3024,-2.3595,-2.3909,-2.4253,-2.4597,-2.53,-2.5615,-2.563,-2.6348,-2.6307,0.0,0.0,0.0,-2.4962,-2.46,-2.4613,-2.4887,-2.4996,-2.5462,-2.6054,-2.6826,-2.71,-2.7137,0.0,0.0,0.0,0.0,0.0,0.0,0.0,0.0,0.0,0.0,0.0,0.0,0.0,0.0,0.0,0.0,0.0,0.0,0.0,0.0,0.0,0.0,0.6642,0.6806,0.7069,0.7014,0.6102,0.4051,0.1325,-0.1232,-0.3567,-0.3564,-0.4687,-0.6714,-0.7014,-0.5808,-0.3481,-0.0986,0.0,0.009,0.0809,0.0,0.0,0.0,0.0,0.0,0.0,0.0,0.0,0.0507,0.021,-0.0267,-0.1814,0.0,0.0,0.0,0.0,0.0,-0.6273,-0.8779,-1.1864,-1.3978,-1.5591,-1.6948,-1.8025,-1.8216,-1.8427,-1.9294,-1.8047,-1.6833,-1.7001,-1.5624,-1.4283,-1.3543,-1.4088,-1.5255,-1.7328,-1.886,-1.9396,-1.8477,-1.806,0.0,-1.7678,0.0,0.0,0.0,0.0,-1.8713,-1.8864,-1.9886,-2.0515,-2.0612,-2.1186,-2.1985,-2.3171,-2.3941,-2.4373,-2.4433,-2.5151,-2.5405,-2.5315,-2.5416,-2.5085,0.0,0.0,0.0,-2.404,-2.3402,-2.3817,-2.4817,-2.3803,-2.4131,-2.5342,-2.6068,-2.6336,-2.639,0.0,0.0,0.0,0.0,0.0,0.0,0.0,0.0,0.0,0.0,0.0,0.0,0.0,0.0,0.0,0.0,0.0,0.0,0.0,0.0,0.0,0.6961,0.6582,0.6479,0.6736,0.6822,0.6661,0.6344,0.207,-0.1242,-0.3568,-0.3624,-0.4732,-0.6853,-0.6993,-0.5824,-0.3481,-0.0986,0.0,0.0359,0.4408,0.0,0.0,0.0,0.0,0.0,0.0,0.0,0.0,0.2833,0.1261,-0.0067,-0.0344,0.0,0.0,0.0,0.0,0.0,-0.6317,-0.685,-0.8302,-1.1729,-1.3425,-1.4755,-1.6779,-1.6983,-1.7134,-1.8681,-1.855,-1.7867,-1.6757,-1.6958,-1.6149,-1.2737,-1.3313,-1.4351,-1.4789,-1.7569,-1.9131,-1.7775,0.0,-1.7867,-1.6576,0.0,0.0,0.0,0.0,-1.7106,-1.7644,-1.8319,-1.8923,-1.9373,-2.0031,-2.0645,-2.1296,-2.2431,-2.3259,-2.3759,-2.4448,-2.4477,-2.3939,-2.4534,-2.45,0.0,0.0,-2.2964,-2.2804,-2.2082,-2.2204,-2.2815,-2.3267,-2.3864,-2.4567,-2.5287,-2.5563,-2.5563,0.0,0.0,0.0,0.0,0.0,0.0,0.0,0.0,0.0,0.0,0.0,0.0,0.0,0.0,0.0,0.0,0.0,0.0,0.0,0.0,0.4311,0.6596,0.745,0.7473,0.6491,0.6682,0.6746,0.6673,0.4592,0.1218,-0.3347,-0.467,-0.5946,-0.7044,-0.7075,-0.5772,-0.3481,-0.0984,0.1524,0.4047,0.0,0.0,0.0,0.0,0.0,0.0,0.0,0.0,0.0,0.0,0.3608,0.2552,0.0612,0.0,0.0,0.0,0.0,0.0,-0.4068,-0.5315,-0.6821,-0.9064,-1.1162,-1.3028,-1.4522,-1.5375,-1.6126,-1.7297,-1.7542,-1.7626,-1.7872,-1.7143,-1.5642,-1.2866,-1.2961,-1.3138,-1.2275,-1.4172,-1.5381,0.0,0.0,-1.593,0.0,0.0,0.0,0.0,0.0,0.0,-1.6898,-1.7485,-1.7945,-1.8158,-1.8773,-1.9482,-2.0381,-2.0945,-2.1685,-2.2606,-2.3585,-2.3526,-2.262,-2.3285,-2.324,-2.2564,0.0,-2.2034,-2.1982,-2.1319,-2.1368,-2.1927,-2.224,-2.2742,-2.3354,-2.4389,-2.5063,-2.5398,0.0,0.0,0.0,0.0,0.0,0.0,0.0,0.0,0.0,0.0,0.0,0.0,0.0,0.0,0.0,0.0,0.0,0.0,0.0,0.3285,0.3343,0.7517,0.869,0.8343,0.6337,0.6932,0.7027,0.6531,0.6568,0.3205,-0.3486,-0.6094,-0.7359,-0.7435,-0.7099,-0.6051,-0.42,-0.1251,0.2777,0.7135,0.0,0.0,0.0,0.0,0.0,0.0,0.0,0.0,0.0,0.0,0.0,0.0,0.0,0.0,0.0,0.0139,0.0,-0.036,-0.2231,-0.427,-0.6071,-0.6931,-0.9343,-1.1747,-1.2777,-1.3968,-1.5239,-1.6468,-1.6721,-1.7091,-1.8514,-1.6442,-1.4102,-1.2808,-1.2175,-1.1424,-1.0085,-1.1207,-1.2145,-1.2073,-1.3149,0.0,0.0,0.0,0.0,0.0,0.0,0.0,-1.6238,-1.6848,-1.7187,-1.7187,-1.7727,-1.8486,-1.9402,-1.9806,-2.0583,-2.1697,-2.2696,-2.2651,-2.1697,-2.2067,-2.1952,-2.1404,-2.1263,-2.1157,-2.1066,-2.079,-2.097,-2.133,-2.1581,-2.202,-2.2606,-2.3612,-2.4509,-2.5119,0.0,0.0,0.0,0.0,0.0,0.0,0.0,0.0,0.0,0.0,0.0,0.0,0.0,0.0,0.0,0.0,0.0,0.0,0.0,0.6005,0.7659,1.1658,1.0193,0.8394,0.6352,0.8119,0.8196,0.6355,0.6307,0.2661,-0.4362,-0.7323,-0.8555,-0.8292,-0.7247,-0.683,-0.6554,-0.1967,0.2777,0.7135,0.7111,0.0,0.0,0.0,0.0,0.0,0.0,0.0,0.0,0.0,0.0,0.0,0.0,0.0,0.2147,0.047,0.0,-0.042,-0.2174,-0.4075,-0.5582,-0.5989,-0.8422,-1.1064,-1.2423,-1.3219,-1.4423,-1.7075,-1.7099,-1.6938,-1.7669,-1.4565,-1.191,-1.1899,-1.0292,-0.891,-0.8613,0.0,-1.1931,-1.1115,-1.2538,0.0,0.0,0.0,0.0,0.0,0.0,0.0,-1.5676,-1.6231,-1.6572,-1.6572,-1.7137,-1.7509,-1.7592,-1.9178,-2.0583,-2.1697,-2.1791,-2.1791,-2.1697,-2.1161,-2.0921,-2.0812,-2.0207,-1.9938,-1.9962,-2.0451,-2.0743,-2.0882,-2.1845,-2.2585,-2.3075,-2.3173,-2.3708,-2.4292,0.0,0.0,0.0,0.0,0.0,0.0,0.0,0.0,0.0,0.0,0.0,0.0,0.0,0.0,0.0,0.0,0.0,0.0,0.0,0.6335,0.7011,0.8516,1.0269,1.138,1.1822,1.0181,0.8917,0.8161,0.49,-0.0555,-0.8024,-0.8427,-0.8668,-0.8698,-0.8253,-0.7701,-0.6907,-0.3662,0.0267,0.4378,0.6281,0.7051,0.0,0.0,0.0,0.0,0.0,0.0,0.0,0.0,0.5413,0.5369,0.5376,0.4903,0.4225,0.3556,0.1755,-0.0136,-0.0815,-0.3191,-0.5485,-0.5742,-0.6811,-0.8412,-1.0935,-1.2103,-1.3193,-1.4862,-1.5072,-1.4972,-1.5213,-1.3403,-1.1752,-1.1192,-0.9705,-0.825,-0.7243,-0.8318,-0.9276,-0.9675,0.0,0.0,0.0,0.0,0.0,0.0,0.0,0.0,-1.5017,-1.5599,-1.5952,-1.5952,-1.6883,-1.7551,-1.789,-1.8872,-1.9755,-2.0521,-2.1315,-2.128,-2.0521,-2.0696,-2.0547,-2.0144,-1.9901,-1.9798,-1.9823,-2.0037,-2.0338,-2.0832,-2.1882,-2.2648,-2.3078,-2.3078,-2.3305,-2.3543,0.0,0.0,0.0,0.0,0.0,0.0,0.0,0.0,0.0,0.0,0.0,0.0,0.0,0.0,0.0,0.0,0.0,0.0,0.5971,0.6166,0.6303,0.6324,1.0185,1.2891,1.4267,1.1896,1.037,0.9723,0.4208,-0.1639,-0.7692,-0.8517,-0.8844,-0.8628,-0.9172,-0.8525,-0.6957,-0.5354,-0.184,0.2999,0.5951,0.7139,0.0,0.0,0.0,0.0,0.0,0.0,0.0,0.0,0.5859,0.5818,0.5826,0.5634,0.5376,0.5389,0.3625,0.1473,0.0335,-0.1804,-0.4042,-0.5384,-0.5845,-0.6616,-0.8864,-1.0438,-1.1802,-1.3259,-1.3541,-1.3333,-1.301,-1.2026,-1.1038,-1.0334,-0.8815,-0.7375,-0.6172,-0.6592,-0.7336,-0.8224,0.0,0.0,0.0,0.0,0.0,0.0,0.0,0.0,0.0,-1.5005,-1.541,-1.5576,-1.6589,-1.7268,-1.7677,-1.8568,-1.912,-1.9296,-2.0535,-2.0657,-1.9811,-2.0308,-2.0245,-1.9798,-1.9798,-1.9798,-1.9811,-1.9999,-2.0413,-2.1004,-2.1757,-2.2385,-2.2899,-2.3015,-2.3078,-2.3053,0.0,0.0,0.0,0.0,0.0,0.0,0.0,0.0,0.0,0.0,0.0,0.0,0.0,0.0,0.0,0.0,0.0,0.0,0.5375,0.5941,0.6273,0.6262,1.0132,1.2332,1.2326,1.3111,1.2611,1.0718,0.4498,0.023,-0.2233,-0.7676,-0.9431,-0.8066,-0.9664,-0.9192,-0.7097,-0.7097,-0.2968,0.3725,0.6106,0.7068,0.7051,0.0,0.0,0.0,0.0,0.0,0.0,0.0,0.681,0.6719,0.6719,0.6141,0.5432,0.5389,0.5396,0.4582,0.101,0.0,-0.0914,-0.4726,-0.5885,-0.6078,-0.6263,-0.8048,-1.0377,-1.2798,-1.2804,-1.2178,-1.1348,-1.0084,-0.9155,-0.9124,-0.7339,-0.5867,-0.542,-0.5993,-0.6485,0.0,0.0,0.0,0.0,0.0,0.0,0.0,0.0,0.0,0.0,-1.4376,-1.4971,-1.5543,-1.6099,-1.6454,-1.6491,-1.8144,-1.8756,-1.8229,-1.9296,-1.9798,-1.9798,-1.9798,-1.9798,-1.9798,-1.9798,-1.9798,-1.9849,-2.0426,-2.0991,-2.1481,-2.1493,-2.182,-2.2372,-2.2865,-2.3065,-2.2977,0.0,0.0,0.0,0.0,0.0,0.0,0.0,0.0,0.0,0.0,0.0,0.0,0.0,0.0,0.0,0.0,0.0,0.0,0.5395,0.554,0.5637,0.5686,0.9941,1.2326,1.2305,1.2241,1.1638,1.0392,0.441,-0.0386,-0.4027,-0.8023,-0.9687,-0.9365,-0.9816,-0.9201,-0.7698,-0.5532,-0.3022,0.0,0.5096,0.6126,0.4701,0.0,0.0,0.0,0.0,0.0,0.0,0.0,0.0,0.0,0.6955,0.6618,0.63,0.5596,0.449,0.3299,0.2224,0.0985,-0.0959,-0.4919,-0.6063,-0.6212,-0.6247,-0.7346,-0.8604,-0.9409,-0.9376,-0.922,-0.9278,-0.8031,-0.7265,-0.8102,-0.6763,-0.5474,-0.5233,-0.5225,0.0,0.0,0.0,0.0,0.0,0.0,0.0,0.0,0.0,0.0,0.0,-1.3742,-1.4143,-1.4318,-1.5263,-1.5975,-1.642,-1.7703,-1.8511,-1.8794,-1.9472,-1.9798,-1.9798,-1.9798,-1.9798,-1.9798,-1.9798,-1.9798,-1.9849,-2.0426,-2.0819,-2.0941,-2.1343,-2.1594,-2.1794,-2.2347,-2.2309,-2.2008,0.0,0.0,0.0,0.0,0.0,0.0,0.0,0.0,0.0,0.0,0.8361,0.8182,0.0,0.0,0.0,0.0,0.0,0.0,0.0,0.6666,0.6834,0.545,0.9808,1.2059,1.1623,1.0798,1.0064,0.9522,0.4178,-0.0851,-0.5398,-0.8304,-0.9488,-0.9137,-1.0015,-0.9279,-0.7289,-0.5471,-0.3318,-0.0821,0.2788,0.4596,0.4784,0.0,0.0,0.0,0.0,0.0,0.0,0.0,0.0,0.0,0.7024,0.6578,0.6298,0.5681,0.4719,0.3758,0.3078,0.208,0.0677,-0.1778,-0.3079,-0.3987,-0.4849,-0.6784,-0.8218,-0.7471,-0.7179,-0.7158,-0.7432,-0.6588,-0.6231,-0.7292,-0.6266,-0.5196,-0.4986,-0.4752,0.0,0.0,0.0,0.0,0.0,0.0,0.0,0.0,0.0,0.0,0.0,-1.3238,-1.3635,-1.4031,-1.4693,-1.5419,-1.624,-1.7113,-1.7749,-1.813,-1.8958,-1.9371,-1.9371,-1.9695,-1.9798,-1.9798,-1.9798,-1.9798,-1.9823,-2.0175,-2.0326,-2.0376,-2.0941,-2.1154,-2.123,-2.1782,-2.1782,-2.1506,0.0,0.0,0.0,0.0,0.0,0.0,0.0,0.0,0.0,0.0,0.8894,0.8587,0.0,0.0,0.0,0.0,0.0,0.0,0.0,0.8662,0.9175,0.5993,0.9872,1.1635,1.0604,0.9173,0.8316,0.8217,0.3728,-0.1002,-0.5973,-0.8425,-0.9024,-0.8016,-1.0203,-0.9535,-0.6656,-0.636,-0.3838,0.008,0.0,0.2568,0.5948,0.1624,0.0,0.0,0.0,0.0,0.0,0.0,0.0,0.0,0.7017,0.6368,0.5734,0.572,0.5726,0.5358,0.3779,0.3419,0.3408,0.34,0.184,-0.0234,-0.2105,-0.5783,-0.8205,-0.6414,-0.5885,-0.583,-0.5969,-0.5787,-0.5916,-0.6584,-0.5822,-0.5051,-0.4707,-0.4551,0.0,0.0,0.0,0.0,0.0,0.0,0.0,0.0,0.0,0.0,0.0,-1.2881,-1.3352,-1.4291,-1.4302,-1.4821,-1.5913,-1.6439,-1.6746,0.0,-1.8042,-1.8608,-1.8608,-1.9423,-1.9798,-1.9798,-1.9798,-1.9798,-1.9798,-1.9798,-1.9798,-1.9849,-2.0376,-2.0643,-2.0706,-2.1204,-2.138,-2.1267,0.0,0.0,0.0,0.0,0.0,0.0,0.0,0.0,0.0,0.0,0.0,0.0,0.0,0.0,0.0,0.0,0.0,0.0,0.0,0.869,1.0261,0.9495,1.0447,1.0876,1.0619,0.9157,0.7863,0.6744,0.3573,0.0233,-0.3115,-0.6846,-0.8713,-0.8998,-1.0321,-1.0455,-0.9697,-0.7162,-0.4654,-0.2192,-0.067,0.061,0.1428,0.0379,0.0534,0.0,0.0,0.0,0.0,0.0,0.0,0.0,0.7311,0.6972,0.6736,0.5898,0.5739,0.5828,0.5457,0.5622,0.5906,0.5645,0.4,0.234,0.1871,-0.1482,-0.4283,-0.3875,-0.4056,-0.4651,-0.5611,-0.6048,-0.6032,-0.5424,-0.5539,-0.5409,-0.4647,-0.4539,0.0,0.0,0.0,0.0,0.0,0.0,0.0,0.0,0.0,0.0,-1.2871,-1.2881,-1.3116,-1.368,-1.369,-1.4205,-1.5278,-1.5818,-1.631,0.0,-1.7495,-1.7852,-1.7907,-1.9202,-1.9798,-1.9798,-1.9798,-1.9798,-1.9798,-1.9798,-1.9798,-1.9811,-1.9936,-1.9987,-2.0062,-2.0627,-2.0552,-2.0213,0.0,0.0,0.0,0.0,0.0,0.0,0.0,0.0,0.0,0.0,0.0,0.0,0.0,0.0,0.0,0.0,0.0,0.0,0.0,0.0,1.0607,1.0627,1.0627,1.0221,0.9338,0.8396,0.7381,0.6316,0.3791,0.0846,-0.2649,-0.5813,-0.8053,-0.9372,-1.034,-1.0783,-1.0685,-0.8719,-0.6576,-0.4165,-0.1153,0.1024,0.2571,0.2575,0.1478,0.0377,0.3304,0.0,0.0,0.0,0.0,0.0,0.0,0.0,0.6347,0.5773,0.5701,0.5953,0.6499,0.6876,0.6923,0.6453,0.5425,0.4616,0.4621,0.2974,0.0853,-0.1194,-0.2514,-0.3787,-0.5277,-0.5693,-0.5616,-0.5016,-0.5432,-0.5482,-0.4646,-0.4787,0.0,0.0,0.0,0.0,0.0,0.0,0.0,0.0,0.0,-1.1275,-1.2295,-1.2344,-1.2836,-1.3737,-1.3809,-1.4271,-1.5235,-1.5513,-1.5838,-1.6116,-1.6738,-1.7468,-1.8167,-1.8927,-1.9475,-1.9798,-1.9798,-1.9798,-1.9798,-1.9798,-1.9798,-1.9798,-1.9798,-1.9798,-1.9836,-2.0137,-2.0062,-1.9849,0.0,0.0,0.0,0.0,0.0,0.0,0.0,0.0,0.0,0.0,0.0,0.0,0.0,0.0,0.0,0.0,0.0,0.0,0.0,0.0,0.0,1.0748,1.0684,0.989,0.815,0.765,0.7024,0.6197,0.4091,0.1147,-0.2652,-0.5129,-0.7291,-0.914,-1.0335,-1.0932,-1.0983,-1.0307,-0.8541,-0.5768,-0.2113,0.1408,0.4501,0.5141,0.3534,0.1298,0.3891,0.316,0.1361,0.4247,0.0,0.0,0.0,0.0,0.5623,0.5596,0.5606,0.5853,0.6921,0.7466,0.7537,0.6747,0.657,0.6507,0.6362,0.6305,0.5206,0.1322,-0.0943,-0.286,-0.5036,-0.523,-0.5053,-0.4938,-0.5463,-0.5615,-0.4805,-0.5277,0.0,0.0,0.0,0.0,0.0,0.0,0.0,0.0,0.0,-1.0364,-1.1715,-1.1814,-1.2462,-1.3951,-1.4038,-1.4512,-1.5293,-1.5381,-1.541,-1.541,-1.6036,-1.7024,-1.834,-1.834,-1.8768,-1.9631,-1.9747,-1.9643,-1.9423,-1.9695,-1.9747,-1.9631,-1.9747,-1.9798,-1.9798,-1.9798,-1.9695,-1.9592,0.0,0.0,0.0,0.0,0.0,0.0,0.0,0.0,0.0,0.0,0.8312,0.727,0.0,0.0,0.0,0.0,0.0,0.0,1.0477,0.0,0.0,1.1245,1.1107,1.0302,0.8716,0.784,0.6897,0.5871,0.4033,0.1862,-0.0467,-0.4428,-0.7065,-0.8509,-1.0099,-1.1316,-1.2037,-1.0685,-0.905,-0.7165,-0.4284,-0.1563,0.1051,0.4193,0.5133,0.4367,0.1716,0.2447,0.4507,0.3483,0.4144,0.0,0.0,0.0,0.5749,0.5627,0.5677,0.5958,0.6737,0.7788,0.8527,0.7914,0.7663,0.7407,0.6493,0.6278,0.565,0.3156,0.1088,-0.1358,-0.476,-0.5262,-0.5043,-0.4921,-0.5821,-0.6237,-0.5492,-0.5982,0.0,0.0,0.0,0.0,0.0,0.0,0.0,0.0,-0.9814,-1.0364,-1.1715,-1.1814,-1.2341,-1.3523,-1.3945,-1.4365,-1.4863,-1.5234,-1.541,-1.541,-1.5526,-1.5979,-1.6821,-1.6821,-1.7523,-1.8874,-1.9527,-1.9097,-1.8004,-1.9254,-1.9423,-1.8927,-1.9527,-1.9798,-1.9798,-1.9798,-1.9423,-1.8874,0.0,0.0,0.0,0.0,0.0,0.0,0.0,0.0,0.0,0.0,0.0,0.8032,0.0,0.0,0.0,0.5959,0.7241,0.8736,1.0468,1.0591,1.0692,1.0955,1.0981,1.0456,0.9117,0.8806,0.8022,0.6724,0.5352,0.4288,0.344,-0.0771,-0.4342,-0.7283,-0.912,-1.049,-1.1434,-1.0461,-0.9539,-0.8444,-0.5698,-0.3149,-0.0815,0.0738,0.2427,0.3827,0.3242,0.2758,0.2223,0.1427,0.3036,0.5421,0.554,0.0,0.0,0.0,0.5986,0.6523,0.7541,0.835,0.8651,0.8056,0.7455,0.6872,0.6412,0.6271,0.6036,0.5085,0.2398,-0.0643,-0.3387,-0.4544,-0.5043,-0.4921,-0.5861,-0.6367,-0.5597,-0.647,0.0,0.0,0.0,0.0,0.0,0.0,0.0,0.0,-0.9263,-0.9666,-1.0618,-1.1065,-1.176,-1.2913,-1.3474,-1.4111,-1.4775,-1.4971,-1.5176,-1.541,-1.541,-1.5806,-1.6492,-1.6492,-1.709,-1.8124,-1.8447,-1.8221,-1.7633,-1.8286,-1.8394,-1.8112,-1.8447,-1.8555,-1.8555,-1.8555,-1.834,-1.8104,0.0,0.0,0.0,0.0,0.0,0.0,0.0,0.0,0.0,0.0,0.0,0.0,0.0,0.0,0.0,0.0,0.7421,0.867,1.0491,1.0624,1.0658,1.0732,1.0947,1.0496,0.9438,0.9614,0.9023,0.7604,0.6962,0.6493,0.6131,0.2572,-0.1293,-0.5336,-0.7802,-0.9388,-1.0267,-1.0329,-0.9742,-0.8682,-0.6781,-0.4743,-0.2764,-0.2743,-0.0937,0.1688,0.3389,0.258,0.068,0.0751,0.2906,0.5497,0.5481,0.523,0.0,0.0,0.0,0.7254,0.8294,0.8795,0.8846,0.8244,0.7331,0.6513,0.6328,0.6268,0.6283,0.6334,0.3507,0.0501,-0.1567,-0.369,-0.5123,-0.4979,-0.5756,-0.6284,-0.589,-0.6939,0.0,0.0,0.0,0.0,0.0,0.0,0.0,0.0,-0.8804,-0.9106,-0.9762,-1.0261,-1.1099,-1.2283,-1.2917,-1.37,-1.4609,-1.4834,-1.5107,-1.541,-1.541,-1.57,-1.6208,-1.6208,-1.6528,-1.7079,-1.7468,-1.7413,-1.7079,-1.7468,-1.7468,-1.7357,-1.7523,-1.7578,-1.7578,-1.7578,-1.7468,-1.7357,0.0,0.0,0.0,0.0,0.0,0.0,0.0,0.0,0.0,0.0,0.0,0.0,0.7188,0.5951,0.5456,0.6337,0.7202,0.8544,1.0478,1.0624,1.0752,1.1034,1.1061,0.0,0.9699,0.9804,0.933,0.8165,0.823,0.7487,0.6001,0.4175,0.1296,-0.2469,-0.6138,-0.8182,-0.8985,-1.0386,-0.9528,-0.7287,-0.7663,-0.691,-0.5507,-0.5295,-0.3808,-0.1664,-0.0209,0.1253,0.2586,0.2868,0.4146,0.571,0.5686,0.4739,0.3889,0.0,0.0,0.0,0.8312,0.8996,0.9531,0.8923,0.8088,0.7261,0.6454,0.6338,0.6297,0.6303,0.4509,0.2374,0.0559,-0.2865,-0.5297,-0.5138,-0.5532,-0.6098,-0.6719,-0.7318,0.0,0.0,0.0,0.0,0.0,0.0,0.0,0.0,-0.8804,-0.9106,-0.9762,-0.9814,-1.0474,-1.1792,-1.2298,-1.3075,-1.4107,-1.4971,-1.5391,-1.541,-1.541,-1.541,-1.5468,-1.5468,-1.5468,-1.5575,-1.6968,-1.68,-1.5633,-1.7024,-1.7202,-1.6652,-1.7302,-1.7578,-1.7578,-1.7578,-1.7146,-1.6549,0.0,0.0,0.0,0.0,0.0,0.0,0.0,0.0,0.0,0.0,0.0,0.0,0.0,0.7433,0.7329,0.817,0.9531,1.0636,1.1337,1.1841,1.1956,1.158,1.1711,1.1337,1.0329,1.046,1.0327,0.9728,0.9309,0.869,0.7753,0.5863,0.2494,-0.2045,-0.5827,-0.7962,-0.8749,-1.0367,-1.0214,-0.9044,-0.9075,-0.8518,-0.759,-0.6788,-0.5572,-0.4121,-0.3653,0.0211,0.5069,0.5504,0.5828,0.5842,0.4265,0.3418,0.343,0.56,0.6662,0.7222,0.7355,0.7681,0.7751,0.7036,0.668,0.6485,0.6173,0.619,0.6297,0.631,0.5715,0.4193,0.0981,-0.1802,-0.3995,-0.5088,-0.5607,-0.5883,-0.6169,-0.6668,0.0,0.0,0.0,0.0,0.0,0.0,0.0,0.0,0.0,-0.891,-0.9159,-0.9562,-1.0218,-1.1116,-1.1758,-1.2726,-1.4077,-1.498,-1.541,-1.541,-1.541,-1.541,-1.541,-1.541,-1.541,-1.541,-1.5968,-1.5911,-1.5468,-1.5968,-1.6026,-1.5806,-1.6083,-1.6187,-1.6187,-1.6187,-1.6026,-1.5856,0.0,0.0,0.0,0.0,0.0,0.0,0.0,0.0,0.0,0.9371,0.0,0.0,0.0,0.0,0.8474,0.957,1.1017,1.1888,1.2205,1.2696,1.2757,1.2205,1.21,1.175,1.1129,1.1248,1.1255,1.1129,1.0593,0.9837,0.8876,0.7318,0.3958,-0.0753,-0.4927,-0.7216,-0.8118,-1.0054,-1.034,-0.9542,-0.9653,-0.9371,-0.8781,-0.759,-0.6718,-0.5985,-0.5197,-0.1374,0.3407,0.4412,0.5433,0.5996,0.4269,0.3667,0.393,0.5733,0.6461,0.6749,0.681,0.684,0.6767,0.6313,0.6057,0.5908,0.6006,0.6108,0.6232,0.6218,0.6286,0.5286,0.192,-0.0409,-0.2571,-0.4977,-0.557,-0.5727,-0.5897,-0.6142,0.0,0.0,0.0,0.0,0.0,0.0,0.0,0.0,0.0,0.0,-0.8951,-0.9267,-0.9865,-1.0762,-1.1598,-1.2651,-1.3863,-1.4629,-1.5059,-1.5205,-1.5205,-1.5273,-1.541,-1.541,-1.541,-1.541,-1.541,-1.541,-1.541,-1.541,-1.541,-1.541,-1.541,-1.541,-1.541,-1.541,-1.5508,-1.5674,0.0,0.0,0.0,0.0,0.0,0.0,0.0,0.0,0.9522,0.8871,0.0,0.0,0.0,0.0,0.0,1.0405,1.1363,1.2189,1.2948,1.307,1.307,1.3009,1.2266,1.1973,1.2197,1.1911,1.1911,1.2197,1.1911,1.092,0.9243,0.8355,0.5778,0.1662,-0.3187,-0.5858,-0.6841,-0.9442,-0.974,-0.857,-0.9388,-0.9552,-0.9088,-0.7789,-0.7479,-0.7274,-0.4803,-0.3388,-0.2422,-0.0619,0.2852,0.6235,0.5911,0.564,0.5382,0.5439,0.6017,0.6658,0.0,0.0,0.0,0.6983,0.6324,0.5671,0.5959,0.6027,0.603,0.603,0.6136,0.5654,0.3509,0.1422,-0.1177,-0.4739,-0.5394,-0.5594,-0.6069,-0.5947,0.0,0.0,0.0,0.0,0.0,0.0,0.0,0.0,-0.919,-0.9196,-0.9183,-0.8971,-0.9427,-1.0728,-1.1921,-1.2818,-1.3455,-1.3873,-1.4346,-1.4766,-1.4775,-1.5,-1.5391,-1.54,-1.541,-1.541,-1.541,-1.541,-1.541,-1.541,-1.541,-1.541,-1.541,-1.541,-1.541,-1.541,-1.5693,-1.6125,0.0,0.0,0.0,0.0,0.0,0.8698,0.6982,0.8654,0.9877,0.0,0.0,0.0,1.0356,1.0275,1.0674,1.1773,1.2604,1.3076,1.2992,1.4094,1.4213,1.307,1.2765,1.2458,1.1903,1.1834,1.1834,1.1911,1.1834,1.1253,1.0084,0.8091,0.5657,0.2825,-0.2049,-0.483,-0.5942,-0.8531,-0.9987,-1.061,-1.0821,-1.109,-1.1181,-0.9311,-0.9003,-0.9175,-0.6432,-0.4329,-0.2618,-0.0396,0.3003,0.6237,0.5917,0.5728,0.5614,0.5532,0.573,0.5902,0.5782,0.0,0.0,0.0,0.0,0.0,0.5844,0.5949,0.603,0.603,0.6136,0.5607,0.3517,0.1371,-0.0769,-0.3049,-0.4524,-0.5403,-0.5382,-0.5276,0.0,0.0,0.0,0.0,0.0,0.0,0.0,0.0,-0.9439,-0.9466,-0.9196,-0.9644,-1.0073,-1.044,-1.1756,-1.2611,-1.2767,-1.3652,-1.4199,-1.4316,-1.4639,-1.4844,-1.4971,-1.5273,-1.541,-1.541,-1.541,-1.541,-1.541,-1.541,-1.541,-1.541,-1.541,-1.541,-1.541,-1.541,-1.5693,-1.6125,0.0,0.0,0.0,0.0,0.0,0.8851,0.8002,0.9589,1.1027,0.0,0.0,0.0,1.0695,1.1247,1.1908,1.2576,1.3403,1.3911,1.4016,1.4874,1.4991,1.4025,1.3666,1.3045,1.1966,1.2488,1.2765,1.2629,1.2405,1.1866,1.0961,0.8708,0.6371,0.3877,-0.0321,-0.3409,-0.5501,-0.753,-0.9288,-1.0708,-1.124,-1.1416,-1.1443,-1.0712,-1.0415,-1.0295,-0.902,-0.7577,-0.5835,-0.3245,-0.031,0.2605,0.5089,0.5825,0.5761,0.5613,0.5589,0.5569,0.5481,0.5521,0.562,0.5742,0.0,0.0,0.5786,0.5823,0.5847,0.0,0.6072,0.5664,0.3518,0.1369,-0.0355,-0.1401,-0.3158,-0.464,-0.512,-0.5101,0.0,0.0,0.0,0.0,0.0,-0.961,-0.9793,-0.9562,-0.9766,-0.9733,-0.9439,-0.9688,-0.9988,-1.0307,-1.1023,-1.1515,-1.1774,-1.2409,-1.2933,-1.3446,-1.3692,-1.416,-1.4795,-1.5039,-1.5244,-1.541,-1.541,-1.541,-1.541,-1.541,-1.541,-1.541,-1.541,-1.541,-1.541,-1.541,-1.5811,-1.6338,0.0,0.0,-0.0463,0.1497,0.6294,0.9884,0.9888,1.1411,1.2917,0.0,1.3687,1.2763,1.0826,1.1669,1.257,1.3176,1.3844,1.4523,1.5108,1.5294,1.5294,1.4982,1.4392,1.3502,1.234,1.3442,1.4019,1.3865,1.3294,1.261,1.182,0.9691,0.7452,0.5091,0.1701,-0.1827,-0.5167,-0.6548,-0.8068,-0.9673,-1.0895,-1.1115,-1.0893,-1.1873,-1.1859,-1.1315,-1.1959,-1.1884,-1.0955,-0.7825,-0.5494,-0.2878,0.3213,0.5494,0.5953,0.5731,0.5616,0.561,0.5593,0.5603,0.5681,0.5959,0.582,0.0,0.5772,0.5691,0.5586,0.0,0.5937,0.5581,0.3498,0.1419,0.0,0.0,-0.1772,-0.3617,-0.5164,-0.5274,0.0,0.0,0.0,0.0,-0.8444,-0.9392,-1.0032,-1.012,-1.0114,-1.002,-0.9793,-0.9499,-0.9604,-1.0262,-1.0045,-1.0156,-1.0726,-1.0828,-1.1336,-1.233,-1.2437,-1.3227,-1.4596,-1.4766,-1.501,-1.541,-1.541,-1.541,-1.541,-1.541,-1.541,-1.541,-1.541,-1.541,-1.541,-1.541,-1.5977,-1.6665,0.0,-0.2183,0.0786,0.4044,0.8574,1.1763,1.1644,1.4221,1.5793,1.4645,1.4007,1.2846,1.0773,1.1569,1.2831,1.4326,1.462,1.4352,1.3528,1.4688,1.456,1.2618,1.3,1.3122,1.2862,1.3114,1.3563,1.4121,1.3381,1.294,1.2671,0.9451,0.7727,0.7244,0.3042,-0.0444,-0.3416,-0.5977,-0.7673,-0.8783,-1.0684,-1.2081,-1.3028,-1.2742,-1.347,-1.4459,-1.3279,-1.4016,-1.502,-1.1553,-0.8638,-0.5805,-0.1754,0.2498,0.5967,0.5943,0.5847,0.5735,0.5623,0.5674,0.5803,0.5983,0.5895,0.0,0.5793,0.5691,0.5555,0.0,0.5717,0.5328,0.3479,0.1428,0.0,0.0,-0.1766,-0.3626,-0.5199,-0.5456,-0.5783,0.0,0.0,0.0,-0.8989,-0.9358,-0.9612,-1.0073,-1.0114,-1.0194,-1.0381,-1.0107,-0.9999,-1.0118,-1.0386,-1.0479,-1.0379,-1.0942,-1.1195,-1.1133,-1.2077,-1.2804,-1.3442,-1.4398,-1.501,-1.541,-1.541,-1.541,-1.541,-1.541,-1.541,-1.541,-1.541,-1.541,-1.541,-1.541,-1.5977,-1.6665,-0.0167,0.0393,0.231,0.7323,1.0589,1.2968,1.4167,1.6584,1.795,1.7086,1.4554,1.221,1.0611,1.2421,1.4137,1.4994,1.5422,1.5042,1.3717,1.4209,1.3938,1.2443,1.3067,1.3297,1.3009,1.3795,1.4213,1.4213,1.3364,1.3009,1.294,0.9462,0.7746,0.7374,0.3729,0.0449,-0.2448,-0.5094,-0.7083,-0.8643,-1.1147,-1.2268,-1.2586,-1.4223,-1.5031,-1.5346,-1.6138,-1.6971,-1.7349,-1.5478,-1.2347,-0.8467,-0.479,-0.1028,0.2195,0.3485,0.479,0.5728,0.5654,0.5752,0.5837,0.5989,0.5915,0.0,0.0,0.5633,0.5477,0.5552,0.5418,0.5155,0.4397,0.1904,0.0,0.0,-0.1663,-0.3563,-0.5332,-0.5661,-0.5846,0.0,0.0,0.0,-0.7907,-0.8812,-0.9603,-1.0285,-1.0341,-1.0401,-1.0618,-1.0281,-1.0114,-1.0114,-1.0179,-1.0108,-1.0009,-1.017,-1.0408,-1.077,-1.1027,-1.1704,-1.2768,-1.3552,-1.4289,-1.4815,-1.5235,-1.541,-1.541,-1.541,-1.541,-1.541,-1.541,-1.541,-1.541,-1.541,-1.5977,-1.6665,0.3652,0.2778,0.3803,1.0531,1.2641,1.4348,1.7083,1.9097,1.9906,1.8846,1.4721,1.1831,1.1729,1.4128,1.5984,1.6493,1.6704,1.6162,1.4436,1.3999,1.3508,1.281,1.3409,1.3625,1.3243,1.4619,1.5099,1.4451,1.3485,1.3009,1.2948,0.9539,0.7703,0.6987,0.4412,0.1511,-0.1598,-0.4281,-0.6376,-0.8142,-1.1283,-1.2215,-1.2048,-1.5622,-1.6392,-1.5937,-1.8712,-1.9157,-1.8396,-1.8148,-1.5336,-1.1224,-0.739,-0.4354,-0.1756,0.0359,0.3013,0.5421,0.5561,0.5698,0.58,0.5952,0.5898,0.5806,0.0,0.0,0.0,0.5614,0.5005,0.4523,0.4728,0.0,0.0,0.0,0.0,0.0,0.0,-0.5752,0.0,-0.5569,0.0,0.0,0.0,-0.8194,-0.948,-1.0393,-1.0464,-1.0528,-1.0722,-1.0448,-1.0281,-1.0281,-1.0,-0.9826,-0.9766,-0.9532,-0.9742,-1.0421,-1.0117,-1.0717,-1.2085,-1.2753,-1.3383,-1.4046,-1.4897,-1.5293,-1.5303,-1.5196,-1.5235,-1.541,-1.541,-1.541,-1.541,-1.541,-1.5977,-1.6665,0.2681,0.2611,0.516,1.277,1.4913,1.6773,2.0325,2.2527,2.2091,1.7251,1.388,1.3086,1.6087,1.6955,1.8206,2.0457,1.9088,1.7167,1.5021,1.4203,1.3267,1.2004,1.3065,1.3811,1.4085,1.4866,1.5284,1.5235,1.3726,1.3009,1.2948,0.9539,0.7703,0.7054,0.569,0.3099,-0.0448,-0.3951,-0.5627,-0.6346,-0.9886,-1.2321,-1.3967,-1.613,-1.7322,-1.8019,-1.8823,-1.871,-1.8093,0.0,-1.5956,-1.424,-1.1023,-0.6404,-0.2159,-0.2153,0.0834,0.4279,0.5202,0.556,0.5737,0.5953,0.5978,0.5967,0.5967,0.0,0.5681,0.5507,0.0,0.2854,0.2584,0.0,0.0,0.0,0.0,0.0,-0.5199,-0.5627,-0.564,-0.5437,0.0,0.0,0.0,-0.7877,-0.8885,-0.9931,-1.0,-1.0349,-1.1255,-1.1049,-1.0895,-1.0895,-1.0615,-1.0334,-1.0067,-1.0033,-0.9773,-0.9397,-1.0199,-1.0647,-1.0755,-1.2235,-1.3022,-1.3295,-1.44,-1.4853,-1.4827,-1.4489,-1.4746,-1.541,-1.541,-1.541,-1.541,-1.541,-1.5977,-1.6665,0.4229,0.5387,0.8389,1.2921,1.608,1.8891,2.1372,2.2467,2.1354,1.6735,1.6792,1.608,1.2855,1.6525,1.807,1.5152,1.8215,1.855,1.4584,1.3988,1.3513,1.2935,1.3861,1.4706,1.5267,1.576,1.5776,1.541,1.3795,1.3009,1.2948,1.0066,0.8361,0.7565,0.6207,0.3869,0.094,-0.1154,-0.3382,-0.5752,-0.8012,-1.045,-1.3011,-1.5939,-1.7969,-1.9204,-1.8709,-1.8618,-1.8541,0.0,-1.6096,0.0,0.0,-0.8845,-0.5617,-0.3506,-0.027,0.3053,0.4878,0.5545,0.5693,0.0,0.0,0.0,0.58,0.0,0.5631,0.0,0.0,0.0,0.0,0.0,0.0,0.0,-0.0629,0.0,0.0,0.0,-0.5699,0.0,0.0,0.0,0.0,0.0,0.0,0.0,-0.9502,-1.0024,-1.0368,-1.0946,-1.1169,-1.0995,-1.0875,-1.0668,-1.0374,-1.02,-1.008,-1.0,-1.0065,-1.0149,-1.0314,-1.1269,-1.1743,-1.1872,-1.3051,-1.3513,-1.3548,-1.3518,-1.3726,-1.4034,-1.4034,-1.4569,-1.541,-1.541,-1.5977,-1.6665,0.3074,0.7298,1.1972,1.3233,1.692,2.04,2.2587,2.2433,2.0952,1.7828,1.8078,1.6639,1.1631,1.5655,1.7028,1.283,1.6435,1.8526,1.7556,1.3852,1.2223,1.3424,1.4601,1.5573,1.6285,1.6662,1.6368,1.541,1.4034,1.3252,1.2948,1.0703,0.9058,0.7902,0.6309,0.4614,0.2853,0.1044,-0.1324,-0.4122,-0.6051,-0.8857,-1.2205,-1.571,-1.7943,-1.9089,-1.8295,-1.8162,-1.828,-1.7466,-1.6192,0.0,-1.3122,-1.0968,-0.8359,-0.5395,-0.2138,0.0875,0.2694,0.0,0.0,0.0,0.0,0.0,0.0,0.0,0.0,0.0,0.0,0.0,0.0,0.0,0.0,0.0,0.0,-0.0647,0.0,-0.4377,0.0,0.0,0.0,0.0,0.0,0.0,0.0,-0.7874,-0.8834,-0.9515,-0.9973,-1.042,-1.0742,-1.0824,-1.067,-1.049,-1.0283,-1.0256,-1.0307,-1.0434,-1.0087,-0.9907,-0.9873,-1.0523,-1.0752,-1.065,-1.1785,-1.2339,-1.2398,-1.2525,-1.2728,-1.3009,-1.2757,-1.3545,-1.4855,-1.4855,-1.5312,-1.6019,-0.2997,0.6962,1.5566,1.4539,1.745,2.1105,2.4647,2.3488,2.191,2.1128,1.565,1.289,1.5767,1.5125,1.5433,1.7731,1.4241,1.6178,2.6224,1.3998,0.8335,1.2819,1.4928,1.626,1.6854,1.7334,1.6856,1.541,1.4569,1.3786,1.2948,1.1238,0.9603,0.7897,0.6187,0.5575,0.5606,0.167,-0.0071,-0.0505,-0.4057,-0.8153,-1.2503,0.0,-1.6985,-1.7207,-1.7347,0.0,0.0,-1.7212,-1.6302,0.0,0.0,0.0,0.0,0.0,0.0,0.0,0.0,0.0,0.0,0.3226,0.0,0.0,0.0,0.0,0.5586,0.0,0.0,0.0,0.0,0.121,0.0,0.0,0.0,0.0,0.0,0.0,0.0,0.0,0.0,0.0,0.0,0.0,0.0,-0.7749,-0.7833,-0.8737,-1.0673,-0.9558,-0.9368,-1.0378,-0.9828,-0.9565,-0.9559,-1.0226,-1.0408,-1.0134,-1.0408,-1.0087,-0.9279,-1.0271,-1.0394,-0.9918,-1.1031,-1.1697,-1.1888,-1.1495,-1.2022,-1.2948,-1.2143,-1.2523,-1.3457,-1.3457,-1.376,-1.4197,-0.667,0.0367,0.7664,0.9899,1.4145,1.9406,2.5776,2.5504,2.3618,2.088,1.9673,1.7071,1.1897,1.0797,0.9561,0.7354,0.0872,-0.1564,0.2055,0.7056,0.8688,0.6041,1.3002,1.7443,1.8598,1.5846,1.4713,1.541,1.2951,1.2174,1.2948,1.1344,0.9964,0.8818,0.7712,0.6732,0.5708,0.4496,0.2547,-0.0144,-0.4686,-0.8515,-1.1728,0.0,-1.5578,-1.661,-1.6336,-1.6355,0.0,-1.6748,-1.5894,-1.4735,-1.4249,-1.2401,-1.023,-0.8949,-0.6649,0.0,0.0,0.0,0.1297,0.243,0.0,0.0,0.0,0.0,0.0,0.0,0.0,0.0,0.0,0.1228,0.0,0.0,0.0,-0.1086,0.0,-0.4418,0.0,-0.5969,-0.6125,-0.6162,0.0,0.0,0.0,-0.6471,-0.7154,-0.7886,0.0,-0.8911,-0.9178,-0.9311,-0.9153,-0.8932,-0.8638,-0.9489,-0.978,-0.9586,-1.0255,-1.02,-0.9539,-0.9856,-0.9681,-0.918,-0.9742,-1.0161,-1.043,-1.0516,-1.0887,-1.1358,-1.1108,-1.1362,-1.1949,-1.3028,-1.3786,-1.4383,-0.9794,-0.6456,-0.1226,0.4706,1.2333,1.9697,2.5796,2.582,2.4199,2.1641,1.9828,1.6335,0.9914,0.8092,0.5044,-0.0703,-0.5521,-0.9409,-1.206,-0.1013,0.4409,0.16,0.8767,1.3605,1.5282,1.1513,1.0901,1.3672,1.2135,1.1811,1.2573,1.1414,1.0309,0.9274,0.8685,0.7581,0.6193,0.5996,0.4537,0.1802,-0.4097,-0.7975,0.0,0.0,-1.3866,-1.5622,0.0,-1.5688,-1.6194,-1.6194,-1.5832,-1.5242,-1.4596,-1.3412,-1.2072,-1.0864,-0.9018,-0.7023,-0.5516,-0.3795,0.0,-0.0299,-0.0,0.0,0.3037,0.0,0.4226,0.0,0.0,0.0,0.0,0.1362,0.0,0.0,0.0,-0.0793,0.0,-0.3509,-0.4161,-0.6103,-0.6318,-0.622,-0.6122,-0.6112,-0.6071,-0.5973,-0.6645,-0.7226,0.0,0.0,-0.8326,-0.8407,-0.8323,-0.8131,-0.7803,-0.894,-0.9449,-0.9338,-1.0174,-1.0254,-0.9686,-0.9686,-0.9419,-0.8965,-0.9051,-0.9372,-0.984,-0.9927,-1.02,-1.0624,-1.0624,-1.0802,-1.1276,-1.2313,-1.3118,-1.376,-1.2441,-1.2615,-0.9653,-0.0175,1.2204,2.1806,2.4772,2.4416,2.3608,2.3025,1.6169,1.094,0.9819,0.683,0.1916,-0.5475,-0.5105,-0.7631,-1.5163,-0.9266,-0.415,-0.1145,0.2237,0.4969,0.6959,0.4554,0.5533,1.0219,1.1905,1.2366,1.1633,1.1346,1.0526,0.9262,0.898,0.8182,0.712,0.6168,0.5724,0.4991,-0.2444,-0.6574,-0.8569,-0.9853,-1.1959,-1.4296,-1.4587,-1.505,-1.5588,-1.5588,-1.5964,-1.638,-1.5776,-1.5128,-1.4495,-1.3871,-1.2438,-1.0817,-0.9877,-0.7374,-0.4967,-0.4623,0.0,0.0,0.0,0.0,0.2284,0.0,0.0,0.0,0.0,0.0,0.0202,0.0,0.0,0.0,0.0,-0.1563,-0.357,-0.5972,-0.6256,-0.6321,-0.6335,-0.6254,-0.6251,-0.6261,-0.6338,-0.6718,0.0,0.0,-0.6725,-0.7706,-0.7451,-0.7196,-0.7023,-0.8622,-0.9334,-0.9227,-1.0117,-1.0254,-0.9686,-0.9686,-0.9519,-0.917,-0.8945,-0.9319,-1.0094,-0.982,-1.004,-1.0624,-1.0624,-1.0915,-1.143,-1.1456,-1.1824,-1.2445,-1.4066,-1.1077,-0.5994,0.2446,1.3435,2.1771,2.3802,2.3134,2.1392,1.8549,1.4479,1.0579,0.7445,0.3261,-0.1343,-0.6284,-0.8543,-1.2327,-1.8561,-1.0316,-0.8233,-1.5024,-0.6974,-0.2524,-0.2929,-0.2833,0.0314,0.654,0.7799,0.8919,0.9876,0.95,0.9315,0.9262,0.898,0.8862,0.8769,0.7132,0.5068,0.2314,-0.3209,-0.6042,-0.7205,0.0,-1.0802,-1.2586,-1.3658,-1.4732,-1.5588,-1.5588,-1.572,-1.5808,-1.5632,-1.5174,-1.4573,-1.3893,-1.3369,-1.2609,-1.0897,-0.9424,-0.7899,-0.6,-0.4591,-0.3201,0.0,0.0,0.0,0.0,0.0,0.0,0.0,0.0,0.0,0.0469,0.0,0.0,0.0,-0.1573,-0.3433,-0.5379,-0.5922,-0.6169,-0.6318,-0.6156,-0.6135,-0.6251,-0.6338,-0.6416,0.0,0.0,0.0,-0.6644,-0.6601,-0.65,-0.6264,-0.7241,-0.795,-0.8482,-0.9291,-0.9624,-0.9686,-0.9686,-0.9519,-0.9183,-0.9103,-0.9506,-1.0107,-1.004,-1.0227,-1.0624,-1.0624,-1.0915,-1.1476,-1.1917,-1.2171,-1.2405,-1.3488,-0.9699,-0.4519,0.1738,1.006,1.7074,2.0757,2.0366,1.8262,1.4378,1.104,0.763,0.3909,0.0292,-0.3431,-0.725,-1.0252,-1.3947,-1.8559,-1.4433,-1.3667,-1.791,-1.5551,-1.3491,-1.2135,-1.041,-0.5919,0.136,0.5099,0.7516,0.8687,0.8699,0.8936,0.9326,0.9364,0.9409,0.9354,0.7207,0.4567,0.1465,-0.2327,-0.4647,0.0,-0.81,-0.9584,-1.084,-1.2049,-1.348,-1.4812,-1.4812,-1.5174,-1.5588,-1.5588,-1.5555,-1.5421,-1.5016,-1.4733,-1.415,-1.2474,-1.1268,-1.0039,-0.8028,-0.6691,-0.5365,-0.338,-0.2441,-0.1261,0.0,0.0,0.0,0.0,0.0,0.0,0.0604,0.0,0.0,0.0,-0.0845,-0.2456,-0.5072,-0.4902,-0.4952,-0.6012,-0.5989,-0.6023,-0.6251,-0.6264,0.0,0.0,0.0,0.0,-0.6268,-0.6196,-0.6118,-0.603,-0.6666,-0.725,-0.7618,-0.8401,-0.8919,-0.9313,-0.9193,-0.9234,-0.9426,-0.9236,-0.9515,-1.0114,-1.0114,-1.0294,-1.0651,-1.0835,-1.1136,-1.1496,-1.2084,-1.2305,-1.2345,-1.2087,-0.8737,-0.4606,-0.0638,0.4579,1.0172,0.0,1.6126,0.0,1.0228,0.0,0.3239,0.0059,-0.2423,-0.5269,-0.8572,-1.1402,-1.4332,-1.7483,-1.9491,-1.9205,-1.6131,-2.2604,-2.4103,-1.9512,-1.7464,-1.2576,-0.4565,0.2494,0.6509,0.7702,0.8199,0.8657,0.9128,0.9686,0.98,0.9365,0.6946,0.449,0.2074,-0.0531,-0.2992,-0.5237,-0.6987,-0.8273,-0.9248,-1.0192,-1.1837,-1.3558,-1.3616,-1.44,-1.5353,-1.5454,-1.582,-1.6293,-1.638,-1.6008,-1.5342,-1.4264,-1.2972,-1.1679,-1.042,-0.9003,-0.7365,-0.5503,-0.3875,-0.2259,-0.035,0.2412,0.4569,0.0,0.0,0.0,0.0604,0.0,0.0,0.0,0.0,-0.1134,-0.43,-0.3491,0.0,-0.5619,-0.5868,-0.5979,-0.618,0.0,0.0,0.0,0.0,0.0,-0.6345,-0.6132,0.0,-0.603,0.0,-0.685,-0.6937,-0.7569,-0.8122,-0.86,-0.8389,-0.877,-0.9545,-0.9289,-0.9543,-1.0174,-1.0174,-1.0327,-1.0678,-1.1196,-1.1423,-1.1496,-1.2084,-1.2305,-1.2345,-1.2265,-0.9182,-0.5805,-0.1943,0.2145,0.5616,0.7574,0.9321,0.9162,0.5553,0.2333,-0.0455,-0.2443,-0.6001,-0.8891,-1.0677,-1.4003,0.0,0.0,0.0,0.0,-2.182,-2.4535,-2.4316,-2.0597,-2.1954,-1.8389,-0.9563,-0.338,0.1785,0.5892,0.6262,0.714,0.8275,0.8788,0.9283,0.9565,0.7678,0.0,0.4458,0.1048,-0.2148,-0.4979,-0.528,-0.6784,-0.8804,-0.9006,-1.0351,-1.2153,-1.2764,-1.3433,-1.4125,-1.4675,-1.4926,-1.5107,-1.5599,-1.5676,-1.5531,-1.5342,-1.4345,-1.3155,-1.2445,-1.0789,-0.9113,-0.8246,-0.6963,-0.5178,-0.2317,-0.0955,0.0,0.1111,0.0,0.0,0.0,0.0,0.0,0.0,0.0,-0.0217,-0.0874,-0.1973,-0.3483,-0.5575,-0.6017,-0.614,-0.5886,0.0,0.0,0.0,0.0,0.0,0.0,-0.6234,0.0,0.0,0.0,-0.6395,-0.6869,-0.7039,-0.7297,-0.7747,-0.7706,-0.812,-0.8974,-0.8866,-0.9524,-1.0481,-1.0481,-1.0577,-1.0678,-1.1196,-1.1423,-1.1496,-1.2084,-1.2305,-1.2345,-1.2786,-1.0199,-0.7167,-0.3737,-0.042,0.0,0.0,0.3835,0.3415,0.1614,-0.0919,-0.3421,-0.5478,-0.8075,-1.048,-1.2539,-1.5569,-1.8508,-2.1197,-2.2037,-2.2783,-2.3592,-2.462,-2.4531,-2.3159,-2.2802,-1.9202,-1.2166,0.0,0.0656,0.4895,0.6573,0.7912,0.8925,0.9649,0.987,0.9644,0.0,0.0,0.517,0.2152,-0.0626,-0.3106,-0.4361,-0.5737,-0.7084,-0.7475,-0.8462,-0.9849,-1.1282,-1.2162,-1.2773,-1.348,-1.3924,-1.4297,-1.496,-1.5365,-1.5543,-1.5231,-1.4675,-1.4064,-1.3453,-1.2015,-1.062,-0.9959,-0.8824,-0.7002,-0.3981,-0.3204,-0.2411,-0.0183,0.1516,0.0,0.0,0.0,0.0,0.0,0.0,0.0,0.0,-0.0737,-0.1717,-0.2723,-0.3823,0.0,0.0,0.0,0.0,0.0,0.0,0.0,0.0,0.0,0.0,0.0,0.0,0.0,-0.6316,-0.6237,-0.653,-0.709,-0.6821,-0.721,-0.8108,-0.8044,-0.8376,-0.9068,-0.966,-1.0258,-1.0828,-1.1256,-1.1523,-1.171,-1.2144,-1.2398,-1.2572,-1.3247,-1.1198,-0.8629,-0.5537,-0.2863,-0.0761,0.0368,-0.0467,-0.1367,-0.1632,-0.3778,-0.6133,-0.8207,-1.0194,-1.2302,-1.4565,-1.7315,-1.9865,-2.2051,-2.2905,-2.3541,-2.4042,-2.4217,-2.437,-2.4524,-2.2099,-1.8733,0.0,0.0,0.0,0.0,0.7655,0.9113,1.0037,0.0,0.0,0.0,0.0,0.741,0.5682,0.3445,0.1186,-0.1157,-0.3748,-0.4941,-0.5374,-0.6091,-0.6853,-0.7706,-0.9336,-1.0513,-1.1423,-1.2132,-1.2802,-1.3423,-1.4122,-1.4721,-1.5141,-1.4789,-1.4606,-1.4376,-1.3909,-1.2899,-1.1864,-1.1165,-0.9959,-0.8292,-0.5877,-0.4895,-0.3562,-0.0541,0.0,0.0,0.0,0.0,0.0,0.0,0.0,0.0,0.0,0.0,0.0,0.0,0.0,0.0,0.0,0.0,0.0,0.0,0.0,0.0,0.0,0.0,-0.5877,-0.6285,0.0,-0.5823,0.0,-0.5644,-0.5909,-0.6388,-0.6009,-0.6392,-0.7308,-0.7152,-0.7303,-0.7714,-0.8862,-0.9882,-1.0751,-1.1242,-1.1603,-1.1904,-1.2191,-1.2492,-1.2869,-1.2991,-1.1962,-1.0097,0.0,0.0,-0.3355,-0.2924,-0.2936,-0.3304,-0.3966,-0.6577,-0.8869,-1.013,-1.3638,-1.6254,-1.7102,-2.04,-2.2831,-2.3729,-2.376,-2.4016,-2.4597,-2.4196,-2.3359,-2.2073,-2.0599,-1.9355,0.0,0.0,0.0066,0.0,0.0,0.0,0.0,0.0,0.0,0.0,0.9192,0.804,0.7364,0.5687,0.3147,-0.0122,-0.3335,-0.4532,-0.4703,-0.5374,-0.6091,-0.672,-0.6764,-0.8216,-1.0115,-1.0762,-1.1458,-1.2101,-1.2773,-1.3453,-1.4097,-1.456,-1.4283,-1.3862,-1.3815,-1.3276,-1.2618,-1.1864,-1.062,-0.9372,-0.8495,-0.6255,-0.3583,-0.0585,0.0,0.0,0.0,0.0,0.0,0.0,0.0,0.0,0.0,0.0,0.0,0.0,-0.0148,0.0,0.0,-0.3933,0.0,0.0,0.0,0.0,-0.3308,0.0,-0.4314,-0.6308,-0.6118,0.0,-0.5696,-0.5603,-0.5576,-0.5484,-0.5314,-0.5758,-0.6746,-0.6561,-0.703,-0.7996,-0.8935,-0.9486,-0.9946,-1.097,-1.1603,-1.1904,-1.2191,-1.2492,-1.2869,0.0,0.0,0.0,0.0,0.0,0.0,0.0,-0.5605,-0.6528,-0.842,-0.9532,-1.0722,-1.2159,-1.5133,-1.7424,-1.8431,-2.0685,-2.2449,-2.3397,-2.3446,-2.3417,-2.3376,-2.2747,-2.2419,-2.2431,-2.023,-1.9445,0.0,0.0,0.0,0.0,0.0,0.0,0.0,0.0,1.2072,1.1089,1.0261,0.9169,0.7812,0.5942,0.363,0.1007,-0.102,-0.2899,-0.4525,-0.4805,-0.5062,-0.5337,-0.5161,-0.6287,-0.7973,-0.9077,-0.9619,-1.0146,-1.1724,-1.2677,-1.3358,-1.3993,-1.379,-1.3468,-1.3752,-1.3121,-1.2501,-1.2444,-1.1366,-1.0171,-0.9438,-0.6727,-0.4138,-0.2949,-0.1227,0.0,0.0,0.0,0.0,0.0,0.0,0.0,0.0,0.0,0.0,0.0,0.0,0.0,0.0,0.0,0.0,0.0,0.0,0.0,-0.1243,0.0,-0.1671,-0.2481,-0.3997,-0.5041,-0.5671,-0.564,-0.5508,-0.5422,-0.5203,-0.535,-0.5728,-0.5769,-0.6335,-0.7242,-0.7567,-0.8639,-0.9959,-1.041,-1.1211,-1.2164,-1.2458,-1.2759,-1.3066,-1.3849,0.0,-1.2099,0.0,-0.9053,-0.9099,-0.8333,-0.8926,-1.014,-1.2207,-1.2893,-1.3439,-1.4125,-1.6344,-1.8211,-1.9371,-2.0776,-2.183,-2.245,-2.2537,-2.2194,-2.1328,-2.0796,0.0,-2.122,-1.9229,-1.8709,-1.9722,-0.8765,0.0,0.0,0.0,0.0,0.0,1.3011,1.2432,1.1173,1.0685,0.9479,0.7874,0.5844,0.4101,0.2507,0.0676,-0.1337,-0.3249,-0.3644,-0.3825,-0.386,-0.4105,-0.4848,-0.5972,-0.7561,-0.8279,-0.8877,-1.0812,-1.1911,-1.2638,-1.3351,-1.3166,-1.2929,-1.3439,-1.2859,-1.2344,-1.2783,-1.1792,-1.0501,-0.9341,-0.7169,-0.523,-0.4622,-0.2756,-0.1046,-0.0119,0.0,0.0,0.0,0.1427,0.0,0.0135,0.0,0.0,0.0,0.0,0.0,0.0,0.0,0.0,0.0,0.0,0.0,0.0,0.0,0.0,0.0,-0.1839,-0.3691,-0.5617,-0.5557,-0.5467,-0.5425,-0.5247,-0.5172,-0.5138,-0.5294,-0.5778,-0.641,-0.6672,-0.7773,-0.9363,-0.9997,-1.0701,-1.1509,-1.2094,-1.2466,-1.2763,-1.6076,-1.4873,-1.3532,-1.184,-1.1495,-1.1634,-1.2232,-1.311,-1.3967,-1.4687,-1.6713,-1.7542,-1.6044,-1.7506,-1.9,-1.9991,-2.115,-2.1588,-2.1071,-2.1033,-2.0248,0.0,0.0,-1.8152,-1.7306,-1.7054,-1.6784,-1.6563,0.0,0.0,0.8017,0.0,1.2991,1.3553,1.2948,1.2342,1.1655,1.0028,0.8667,0.7516,0.5604,0.4807,0.4526,0.1241,-0.0,-0.0223,-0.1729,-0.2237,-0.2424,-0.3729,-0.4091,-0.431,-0.6442,-0.7743,-0.8736,-1.0036,-1.1071,-1.1972,-1.2715,-1.2559,-1.2334,-1.2773,-1.2549,-1.2344,-1.2783,-1.1792,-1.0195,-0.8137,-0.767,-0.7004,-0.4867,-0.4494,-0.3445,-0.0502,0.0,0.0,0.0,0.4791,0.0,0.0333,0.0,0.0,0.0,0.0,0.0,0.0,0.0,0.0,0.0,0.0,0.0,0.0,0.0,0.0,0.0,-0.0,-0.1816,-0.5403,-0.5391,-0.5372,-0.5428,-0.5425,-0.5274,-0.5138,-0.5294,-0.5447,-0.5655,-0.6531,-0.7153,-0.7707,-0.9674,-0.9974,-0.9473,-1.0622,-1.1347,-1.1778,-1.6142,-1.5929,-1.5445,-1.3676,-1.3803,-1.4234,-1.4411,-1.4278,-1.4774,-1.6556,-1.7129,-1.7286,-1.7026,-1.8086,-1.8959,0.0,-1.9344,-1.9509,0.0,-1.9211,-1.8216,-1.6797,-1.5645,-1.5174,-1.551,-1.2547,-0.9112,-0.5274,0.0,0.0,0.0,1.0493,1.1871,1.2811,1.2907,1.2246,1.0982,1.0025,0.8735,0.7168,0.6045,0.5201,0.4379,0.2294,0.0892,-0.0056,-0.0559,-0.0711,-0.0896,-0.2137,-0.3142,-0.408,-0.4956,-0.6044,-0.7212,-0.8672,-0.9619,-1.0311,-1.1002,-1.0718,-1.0312,-1.0747,-1.0655,-1.0626,-1.1107,-1.0656,-0.9806,-0.8685,-0.8049,-0.7337,-0.614,-0.5148,-0.3825,-0.1838,-0.0632,0.0,0.0,0.0,0.4596,0.3204,0.1252,0.0,0.0,0.0,0.0,0.0,0.0,0.0,0.0,0.0,0.0,0.0,0.0,0.0,0.0,0.0,-0.1839,-0.5416,-0.5413,-0.5372,-0.5428,-0.5428,-0.5335,-0.5291,-0.5342,-0.5456,-0.5507,-0.5881,-0.653,-0.7457,-0.8166,-0.8798,-0.9402,-0.9932,-1.0237,-1.0546,-1.8267,-1.7839,-1.7329,-1.6432,-1.6265,-1.6241,-1.6189,-1.5799,-1.5818,-1.6691,-1.6588,-1.6378,-1.6233,-1.6705,0.0,-1.7922,-1.7421,-1.7225,-1.7622,-1.6957,-1.5827,-1.4157,-1.3453,-1.2403,-1.0854,0.0,0.0,0.0,0.2609,0.5075,0.7322,0.9713,1.1179,1.1823,1.2393,1.2058,1.0933,0.9685,0.8339,0.685,0.6117,0.5278,0.4421,0.3408,0.1785,0.0,0.0,0.0,-0.0159,-0.1398,-0.2761,-0.3969,-0.4066,-0.4892,-0.6196,-0.7866,-0.8707,-0.9286,-1.0295,-1.0001,-0.957,-1.0114,-0.9985,-0.978,-1.0083,-0.9969,-0.9614,-0.8956,-0.8427,-0.7883,-0.7128,-0.591,-0.459,-0.3277,-0.136,0.0694,0.27,0.0,0.5002,0.0,0.0,0.0,0.0,0.0,0.1737,0.0,0.0,0.0,0.0,0.0,0.0,0.2373,0.0862,0.0,0.0,0.0,-0.1483,-0.4423,-0.5045,-0.5372,-0.5428,-0.5428,-0.5428,-0.5428,-0.5428,-0.5463,-0.5457,-0.5606,-0.6104,-0.6836,-0.7381,-0.7824,-0.8264,-0.8843,-0.9199,-0.9404,-2.1774,-2.0179,0.0,0.0,-1.8508,0.0,-1.7309,-1.7206,-1.6653,-1.5262,-1.5171,-1.4893,-1.4003,-1.3741,-1.4219,-1.5758,0.0,0.0,0.0,-1.4405,-1.3267,-1.0904,-1.1724,-0.9651,-0.4244,-0.9234,-0.8001,0.0,0.1483,0.311,0.4863,0.8737,1.0595,1.0729,1.1424,1.1638,1.1219,0.9007,0.75,0.6534,0.576,0.5062,0.4477,0.448,0.2734,0.0279,0.0056,0.0,-0.016,-0.1279,-0.2657,-0.3823,-0.3678,-0.4348,-0.5575,-0.741,-0.8166,-0.8756,-1.0229,-1.0132,-0.9766,-1.0425,-1.0116,-0.9635,-0.9715,-0.971,-0.9562,-0.891,-0.8804,-0.8586,-0.783,-0.6779,-0.5679,-0.4648,-0.2163,-0.0169,0.029,0.0,0.4502,0.0,0.0,0.0,0.0,-0.0126,0.1673,0.0,0.0,0.0,0.0,0.0,0.6471,0.6302,0.2336,0.0154,0.0,0.0,-0.0858,-0.251,-0.449,-0.5376,-0.5428,-0.5428,-0.5428,-0.5428,-0.5439,-0.5457,-0.5603,-0.5752,-0.5901,-0.6119,-0.7255,-0.7103,-0.6443,-0.7517,-0.8091,-0.8284,0.0,0.0,-1.9431,-1.8484,-1.7726,-1.6725,-1.5208,-1.4204,-1.3456,-1.3065,-1.2713,-1.239,-1.2008,-1.1194,-1.1029,-1.1799,-1.2818,-1.3357,-1.3181,-1.2665,-1.1634,-0.9987,-0.812,-0.5558,-0.2186,-0.1983,-0.1291,0.0,0.1476,0.3007,0.4623,0.716,0.8815,0.9591,1.0082,1.0256,1.0075,0.7901,0.6851,0.648,0.5222,0.4625,0.4522,0.4477,0.403,0.3135,0.0837,0.0,-0.0053,-0.0319,-0.1403,-0.2818,-0.3745,-0.4175,-0.4607,-0.6164,-0.7112,-0.7797,-0.874,-0.863,-0.837,-0.8517,-0.863,-0.8749,-0.8971,-0.9061,-0.9008,-0.8857,-0.8804,-0.8586,-0.783,-0.7444,-0.6671,-0.4809,-0.3874,-0.2609,-0.0225,0.0673,0.0,0.0,0.0511,-0.2644,-0.3394,-0.1377,0.0618,0.0,0.0,0.0,0.0,0.6037,0.6122,0.611,0.3634,0.1574,0.0,0.0,-0.0205,-0.0677,-0.3847,-0.5393,-0.5376,-0.5376,-0.5369,-0.5435,-0.5484,-0.5555,-0.561,-0.5871,-0.5996,-0.6044,-0.6503,-0.656,-0.6507,-0.6777,-0.7047,-0.7296,-2.0469,-1.9552,-1.8406,-1.7122,-1.5978,-1.4629,-1.2661,-1.1453,-1.0614,-1.0261,-0.9769,-0.9412,-0.9317,-0.8946,-0.8765,-0.883,-0.9898,-1.0787,-1.1309,-1.0404,-0.9453,-0.8586,-0.5801,-0.2941,-0.011,0.1885,0.1912,0.0,0.1463,0.3008,0.4523,0.633,0.7628,0.8467,0.9075,0.9273,0.9169,0.7379,0.6421,0.5982,0.4952,0.4519,0.4519,0.4525,0.448,0.4203,0.1842,0.0552,0.0,0.0,-0.0538,-0.1581,-0.3649,-0.4299,-0.4369,-0.5086,-0.5793,-0.654,-0.7379,-0.7374,-0.7223,-0.753,-0.7841,-0.819,-0.8718,-0.8804,-0.8804,-0.8804,-0.8804,-0.8699,-0.8262,-0.767,-0.6794,-0.5642,-0.4941,-0.3947,-0.228,-0.0892,0.0,0.224,-0.0447,-0.2999,-0.4343,-0.3042,-0.0664,0.2699,0.0,0.0,0.5467,0.5684,0.5759,0.5837,0.481,0.3233,0.1028,0.0334,0.0,-0.0,-0.2,-0.3491,-0.4625,-0.5173,-0.541,-0.5471,-0.5552,-0.5627,-0.5705,-0.5935,-0.603,-0.6044,-0.62,-0.6346,-0.6471,-0.6471,-0.6664,-0.6929,-1.8742,-1.77,-1.6484,-1.5189,-1.3811,-1.2167,-0.9993,-0.8941,-0.8046,-0.7201,-0.6763,-0.6546,-0.6629,-0.6946,-0.6994,-0.6677,-0.699,-0.7808,-0.9123,-0.8187,-0.7427,-0.7095,-0.4235,-0.1376,0.1443,0.3466,0.3132,0.0335,0.184,0.3244,0.4553,0.5701,0.6645,0.734,0.8041,0.8364,0.8311,0.7004,0.6091,0.5433,0.4787,0.4519,0.4519,0.4519,0.4525,0.4311,0.3016,0.1451,0.0,0.0,0.0,-0.05,-0.3542,-0.4402,-0.4278,-0.4244,-0.4681,-0.5404,-0.6323,-0.6443,-0.6401,-0.703,-0.7349,-0.7723,-0.848,-0.8646,-0.8646,-0.8752,-0.8804,-0.8752,-0.8646,-0.761,-0.6707,-0.6524,-0.547,-0.4595,-0.4511,0.0,-0.0502,-0.0056,0.0,-0.1009,-0.3551,-0.382,-0.148,0.4174,0.3633,0.3658,0.0,0.5301,0.542,0.5547,0.5573,0.4621,0.2538,0.0846,0.0,0.0,0.0,-0.1071,-0.3141,-0.4718,-0.5467,-0.5562,-0.5627,-0.5711,-0.5817,-0.5989,-0.6064,-0.6078,-0.621,-0.6363,-0.6508,-0.6508,-0.6698,-0.6959,-1.6035,-1.5082,-1.3818,-1.1883,-1.1757,-1.0867,-0.7784,-0.6716,-0.5758,-0.4435,-0.4539,-0.4981,-0.5508,-0.5145,-0.5163,-0.5795,-0.5083,-0.5292,-0.6972,-0.7311,-0.7058,-0.6182,-0.3247,-0.066,0.1443,0.3458,0.3633,0.184,0.3416,0.4268,0.4494,0.4721,0.5194,0.586,0.6573,0.6902,0.6848,0.6032,0.5597,0.5433,0.4787,0.4519,0.4519,0.4519,0.4525,0.448,0.4206,0.2347,0.0,0.0,0.0,-0.0502,-0.3577,-0.391,-0.3398,-0.422,-0.4542,-0.4922,-0.6253,-0.6563,-0.6587,-0.6699,-0.6725,-0.6966,-0.7723,-0.7883,-0.8049,-0.8646,-0.8804,-0.8593,-0.799,-0.767,-0.7193,-0.6097,-0.5596,-0.5171,-0.4602,0.0,-0.2856,-0.028,0.0,-0.0168,-0.0671,-0.0673,-0.0285,0.0764,0.3084,0.46,0.4869,0.4931,0.5009,0.4998,0.5122,0.4847,0.4172,0.142,0.0,0.0,0.0,-0.0202,-0.067,-0.413,-0.5593,-0.543,-0.58,-0.5901,-0.5823,-0.6108,-0.6224,-0.6227,-0.6251,-0.6427,-0.6664,-0.6664,-0.6854,-0.7105,-1.2299,-1.1469,-1.0386,-0.8526,-0.8403,-0.7725,-0.5406,-0.4239,-0.3639,-0.3615,-0.3796,-0.406,-0.436,-0.4148,-0.4164,-0.471,-0.4133,-0.4257,-0.5386,-0.569,-0.5238,-0.3953,-0.255,-0.0276,0.3063,0.4024,0.4141,0.3413,0.4154,0.4095,0.3299,0.4125,0.4835,0.5542,0.5873,0.5982,0.5982,0.5651,0.5269,0.4948,0.4625,0.4519,0.4519,0.4525,0.4473,0.448,0.4501,0.3593,0.2184,0.056,0.0,-0.0224,-0.1625,-0.2519,-0.3188,-0.4203,-0.4477,-0.4625,-0.5281,-0.5445,-0.555,-0.5928,-0.5982,-0.6199,-0.6966,-0.7128,-0.7182,-0.7557,-0.7616,-0.7503,-0.7182,-0.6794,-0.6337,-0.5716,-0.5278,0.0,0.0,-0.4485,-0.3993,-0.2581,-0.1008,0.0615,0.224,0.2406,0.2493,0.257,0.3934,0.5008,0.5396,0.5461,0.5472,0.538,0.504,0.4829,0.4744,0.2389,0.0766,0.0,0.0,0.0,-0.0067,-0.2854,-0.4662,-0.5586,-0.5789,-0.5915,-0.5942,-0.6166,-0.6338,-0.6338,-0.6338,-0.6441,-0.6702,-0.6702,-0.6888,-0.7139,-0.9072,-0.8327,-0.751,-0.6073,-0.5343,-0.4504,-0.2984,-0.1825,-0.1425,-0.2366,-0.2818,-0.3043,-0.3034,-0.3392,-0.3552,-0.3415,-0.3288,-0.3352,-0.3868,-0.4245,-0.3978,-0.2794,-0.1728,0.0611,0.4418,0.4477,0.448,0.4494,0.4265,0.3638,0.2734,0.3968,0.4798,0.5273,0.5273,0.5273,0.5273,0.5273,0.4948,0.4519,0.4519,0.4519,0.4519,0.4473,0.4477,0.4425,0.4101,0.4169,0.4054,0.1009,0.0,0.0,0.0,-0.1569,-0.3482,-0.4274,-0.4484,-0.4522,-0.4519,-0.4519,-0.4625,-0.5164,-0.5273,-0.5437,-0.6204,-0.6367,-0.6367,-0.6588,-0.6588,-0.6588,-0.6431,-0.5991,-0.5508,-0.5282,0.0,0.0,0.0,-0.4584,-0.4228,-0.3543,-0.0784,0.1964,0.4284,0.4507,0.4548,0.4707,0.4711,0.5042,0.5856,0.5864,0.5856,0.5709,0.503,0.4679,0.4826,0.3077,0.1442,0.0,0.0,0.0,-0.0068,-0.142,-0.3353,-0.5623,-0.5786,-0.5901,-0.5989,-0.6183,-0.6338,-0.6264,-0.6298,-0.6471,-0.6705,-0.6742,-0.6915,-0.7139,-0.7356,-0.6706,-0.6095,-0.5461,-0.3814,-0.2027,-0.0489,0.0444,0.0931,0.0843,-0.0443,-0.1375,-0.1375,-0.2728,-0.3139,-0.2049,-0.1934,-0.1962,-0.1972,-0.3589,-0.4455,-0.434,-0.0334,0.2674,0.4463,0.4519,0.4525,0.448,0.3572,0.3514,0.4311,0.4421,0.4529,0.457,0.457,0.457,0.457,0.457,0.4574,0.4519,0.4519,0.4519,0.4519,0.4519,0.4525,0.4311,0.2903,0.3307,0.4054,0.1009,0.0,0.0,0.0,-0.2018,-0.4399,-0.4455,-0.4497,-0.4477,-0.4522,-0.4519,-0.4519,-0.457,-0.457,-0.4732,-0.5433,-0.5597,-0.576,-0.648,-0.6588,-0.6485,-0.6014,-0.5909,-0.5584,-0.4731,0.0,0.0,-0.5246,-0.4837,-0.3487,-0.0673,0.2355,0.4228,0.4458,0.4494,0.4487,0.4494,0.4543,0.4812,0.5529,0.5529,0.5521,0.5508,0.486,0.4515,0.451,0.2954,0.1457,0.0,0.0,0.0,-0.0,-0.0139,-0.2091,-0.5424,-0.5835,-0.5949,-0.584,-0.6139,-0.6338,-0.6352,-0.6407,-0.6556,-0.6719,-0.6861,-0.7007,-0.7139,-0.6049,-0.4405,-0.3293,-0.4124,-0.299,-0.1554,-0.0222,0.1517,0.269,0.269,0.2144,0.1202,-0.0312,-0.0996,-0.1777,-0.281,-0.2235,-0.0682,0.1916,0.1444,0.1062,0.1062,0.2736,0.391,0.4473,0.4522,0.4522,0.448,0.4135,0.4138,0.448,0.448,0.4473,0.4519,0.4519,0.4519,0.4519,0.4519,0.4519,0.4519,0.4519,0.4519,0.4519,0.4525,0.4477,0.4193,0.1729,0.1228,0.1511,0.0392,0.0,0.0,0.0,-0.0784,-0.2076,-0.3943,-0.3816,-0.3294,-0.4255,-0.4473,-0.4519,-0.4525,-0.4522,-0.4574,-0.4798,-0.4901,-0.4952,-0.5234,-0.5293,-0.5242,-0.5041,-0.4242,-0.3469,-0.3126,0.0,-0.4587,-0.4826,-0.3058,-0.1289,-0.0112,0.2639,0.4511,0.4504,0.4487,0.4695,0.5062,0.4736,0.5007,0.6145,0.5879,0.5888,0.6328,0.5324,0.4746,0.469,0.3013,0.1457,0.0,0.0,0.0,0.0,0.0,-0.1361,-0.3827,-0.5194,-0.5791,-0.5827,-0.6132,-0.6338,-0.6274,-0.6417,-0.6566,-0.6719,-0.6871,-0.7017,-0.7153,-0.4805,-0.293,-0.136,-0.1344,-0.1284,-0.0817,0.0363,0.2301,0.3605,0.3605,0.3452,0.277,0.1297,0.0878,0.0048,-0.1658,-0.103,0.0692,0.3583,0.4219,0.4504,0.4504,0.4487,0.4477,0.4473,0.4522,0.4522,0.4473,0.4473,0.4473,0.4473,0.4473,0.4525,0.4519,0.4519,0.4519,0.4519,0.4519,0.4519,0.4519,0.4519,0.4519,0.4519,0.4525,0.4477,0.4252,0.2178,0.0781,0.0,0.0,0.0,0.0,0.0,0.0,-0.0392,-0.2469,-0.2689,-0.2516,-0.4101,-0.4144,-0.3904,-0.4369,-0.4138,-0.3904,-0.4369,-0.448,-0.4477,-0.4484,-0.4141,-0.3916,-0.4386,-0.3644,-0.2627,-0.1675,-0.2408,-0.3091,-0.3091,-0.1289,0.0336,0.1289,0.2805,0.3987,0.4435,0.448,0.4688,0.5164,0.4787,0.5007,0.6204,0.6174,0.6283,0.6568,0.5719,0.5121,0.4872,0.3683,0.2045,0.0,0.0,0.0,0.0,0.0,-0.0673,-0.1972,-0.4496,-0.5676,-0.5906,-0.6215,-0.6264,-0.6281,-0.6471,-0.6607,-0.6725,-0.6922,-0.7058,-0.7163,-0.3524,-0.2594,-0.0625,0.2978,0.161,0.0425,0.1612,0.2847,0.3585,0.3585,0.3101,0.2944,0.3554,0.278,0.2193,0.2222,0.22,0.223,0.2232,0.3633,0.448,0.448,0.448,0.4473,0.4519,0.4519,0.4519,0.4519,0.4519,0.4519,0.4519,0.4519,0.4519,0.4519,0.4519,0.4519,0.4519,0.4519,0.4519,0.4519,0.4519,0.4519,0.4519,0.4519,0.4525,0.448,0.4494,0.2571,0.0,0.0,0.0,0.0,0.0,0.0,0.0,0.0,-0.1064,-0.2521,-0.4054,-0.3363,-0.2567,-0.4095,-0.3357,-0.2623,-0.4098,-0.4497,-0.4497,-0.4497,-0.3299,-0.2683,-0.4169,-0.4458,-0.3487,-0.0505,0.0,0.0,0.0,0.0,0.1121,0.4113,0.3137,0.2845,0.4366,0.4525,0.4519,0.4519,0.4519,0.4787,0.5487,0.6393,0.6568,0.5829,0.5897,0.5716,0.5131,0.497,0.3268,0.0,0.0,0.0,0.0,0.0,0.0,-0.021,-0.3824,-0.5557,-0.5995,-0.6228,-0.6271,-0.6291,-0.6586,-0.6702,-0.6736,-0.7031,-0.7139,-0.7163,0.1344,0.1513,0.1345,0.2407,0.2242,0.2268,0.332,0.3782,0.3952,0.3849,0.3684,0.3746,0.4167,0.372,0.3502,0.377,0.3794,0.3821,0.3796,0.4245,0.4522,0.4522,0.4522,0.4522,0.4519,0.4519,0.4519,0.4519,0.4519,0.4519,0.4519,0.4519,0.4519,0.4519,0.4519,0.4519,0.4519,0.4519,0.4519,0.4519,0.4519,0.4519,0.4519,0.4519,0.4519,0.4525,0.448,0.3239,0.1395,0.0335,0.0,0.0,0.0,0.0,0.0,0.0,-0.0336,-0.0784,-0.1233,-0.1738,-0.2581,-0.411,-0.336,-0.2063,-0.1452,-0.2122,-0.3188,-0.4278,-0.4107,-0.3312,-0.1625,-0.1345,-0.1065,-0.0168,0.0,0.0,0.0,0.0,0.1121,0.4113,0.4101,0.3978,0.448,0.4525,0.4677,0.5164,0.5218,0.5269,0.5483,0.5509,0.5616,0.5909,0.5716,0.5506,0.5291,0.5022,0.3858,0.1873,0.0605,0.0,0.0,0.0,0.0,-0.0072,-0.1107,-0.2388,-0.3815,-0.5579,-0.6285,-0.6302,-0.6515,-0.6622,-0.6736,-0.7031,-0.7139,-0.7163,0.3877,0.3748,0.3124,0.3086,0.3221,0.3499,0.4128,0.4177,0.4082,0.3979,0.4026,0.4144,0.4303,0.4192,0.4219,0.4365,0.4474,0.4494,0.4522,0.4522,0.4519,0.4519,0.4519,0.4519,0.4519,0.4519,0.4519,0.4519,0.4519,0.4519,0.4519,0.4519,0.4519,0.4519,0.4519,0.4519,0.4519,0.4519,0.4519,0.4519,0.4519,0.4519,0.4519,0.4519,0.4519,0.4519,0.4477,0.3913,0.2901,0.1395,0.0503,0.0,0.0,0.0,0.0,0.0,0.0,0.0,0.0,-0.0673,-0.1572,-0.2469,-0.2015,-0.1117,-0.0224,-0.0671,-0.1621,-0.2525,-0.2695,-0.2188,-0.0336,0.0,0.0,0.0,0.1009,0.1794,0.1794,0.1231,0.179,0.4216,0.4494,0.4484,0.4473,0.4522,0.468,0.5058,0.5109,0.514,0.5154,0.5015,0.5125,0.5609,0.5492,0.5459,0.545,0.5316,0.437,0.2654,0.0888,0.0,0.0,0.0,0.0,0.0,0.0,-0.0607,-0.1762,-0.3191,-0.4277,-0.5165,-0.6229,-0.6666,-0.6746,-0.7126,-0.7193,-0.718,0.4477,0.449,0.4478,0.4522,0.4324,0.4231,0.4333,0.4206,0.4157,0.4157,0.423,0.4264,0.4073,0.43,0.4409,0.4224,0.4389,0.4519,0.4519,0.4519,0.4519,0.4519,0.4519,0.4519,0.4519,0.4519,0.4519,0.4519,0.4519,0.4519,0.4519,0.4519,0.4519,0.4519,0.4519,0.4519,0.4519,0.4519,0.4519,0.4519,0.4519,0.4519,0.4519,0.4519,0.4519,0.4519,0.4473,0.4477,0.4307,0.2903,0.1338,0.0,0.0,0.0,0.0,0.0,0.0,0.0,0.0,0.0,0.0,0.0,0.0,0.0,0.0,0.0,0.0,0.0,0.0,0.0,0.0,0.0,0.0112,0.0336,0.2695,0.4514,0.4511,0.3304,0.2903,0.4311,0.448,0.4473,0.4519,0.4529,0.4539,0.4539,0.4553,0.4565,0.4704,0.4857,0.5003,0.5145,0.5301,0.5454,0.5606,0.5693,0.4702,0.2661,0.0844,0.0,0.0,0.0,0.0,0.0,0.0,0.0,0.0,0.0,-0.113,-0.3014,-0.5207,-0.6307,-0.6807,-0.7255,-0.7265,-0.7207,0.4268,0.4527,0.4517,0.4501,0.4443,0.4634,0.5112,0.5185,0.5156,0.5156,0.5193,0.4989,0.4476,0.4477,0.4505,0.4419,0.4498,0.4519,0.4519,0.4519,0.4519,0.4519,0.4519,0.4519,0.4519,0.4519,0.4519,0.4519,0.4519,0.4519,0.4519,0.4519,0.4519,0.4519,0.4519,0.4519,0.4519,0.4519,0.4519,0.4519,0.4519,0.4519,0.4519,0.4519,0.4519,0.4519,0.4522,0.4473,0.4425,0.4092,0.2235,0.0,0.0,0.0,0.0,0.0,0.0,0.0,0.0,0.0,0.0,0.0,0.0,0.0,0.0,0.0,0.0,0.0,0.0,0.0,0.0,0.0,0.0784,0.3147,0.4058,0.4511,0.4501,0.4212,0.415,0.448,0.448,0.4473,0.4519,0.4572,0.4643,0.4643,0.4752,0.4833,0.4867,0.5006,0.5155,0.5308,0.546,0.561,0.5752,0.5844,0.483,0.2663,0.0865,0.0,0.0,0.0,0.0,0.0,0.0,0.0,0.0,0.0,-0.025,-0.0755,-0.1195,-0.3624,-0.6727,-0.7068,-0.72,-0.7399,0.4336,0.4522,0.4487,0.4505,0.4519,0.4625,0.4948,0.5269,0.5487,0.5487,0.5814,0.5764,0.5058,0.5003,0.4842,0.4515,0.4519,0.4519,0.4519,0.4519,0.4519,0.4519,0.4519,0.4519,0.4519,0.4519,0.4519,0.4519,0.4519,0.4519,0.4519,0.4519,0.4519,0.4519,0.4519,0.4519,0.4519,0.4519,0.4519,0.4519,0.4519,0.4519,0.4519,0.4519,0.4519,0.4519,0.4519,0.4522,0.4473,0.4484,0.3466,0.2007,0.1282,0.1061,0.1062,0.1062,0.1062,0.1062,0.1062,0.1062,0.1062,0.1062,0.1062,0.0838,0.0168,0.0,0.0,0.0,0.0,0.0,0.0,0.1177,0.2639,0.4228,0.4504,0.4494,0.449,0.4484,0.4477,0.4473,0.4525,0.4497,0.4565,0.4643,0.4721,0.4796,0.4874,0.4948,0.5016,0.5091,0.5233,0.5464,0.5549,0.5694,0.5908,0.5991,0.5436,0.4368,0.1412,0.0,0.0,0.0,0.0,0.0,0.0,0.0,0.0,0.0,0.0,0.0,0.0,-0.218,-0.5225,-0.541,-0.6262,-0.7522,0.4477,0.4525,0.4519,0.4519,0.457,0.4736,0.4846,0.5437,0.5864,0.5864,0.6416,0.6475,0.5597,0.5378,0.5109,0.4574,0.4519,0.4519,0.4519,0.4519,0.4519,0.4519,0.4519,0.4519,0.4519,0.4519,0.4519,0.4519,0.4519,0.4519,0.4519,0.4519,0.4519,0.4519,0.4519,0.4519,0.4519,0.4519,0.4519,0.4519,0.4519,0.4519,0.4519,0.4519,0.4519,0.4519,0.4519,0.4519,0.4519,0.4473,0.4477,0.4252,0.3014,0.2567,0.2567,0.2567,0.2567,0.2567,0.2567,0.2567,0.2567,0.2567,0.2567,0.2289,0.1064,0.056,0.0392,0.0392,0.0392,0.0392,0.0392,0.2411,0.4166,0.4452,0.449,0.448,0.4477,0.4525,0.4519,0.4519,0.4539,0.4551,0.4677,0.4735,0.483,0.4982,0.502,0.5094,0.5237,0.5243,0.5376,0.5657,0.5664,0.5796,0.6067,0.6067,0.6139,0.6274,0.2758,0.0699,0.0,0.0,0.0,0.0,0.0,0.0,0.0,0.0,0.0,0.0,0.0,-0.1234,-0.2964,-0.3007,-0.4614,-0.6927,0.4519,0.4519,0.4519,0.4519,0.5003,0.5597,0.6209,0.6912,0.7396,0.7396,0.7503,0.7015,0.5651,0.5003,0.4625,0.4519,0.4519,0.4519,0.4519,0.4519,0.4519,0.4519,0.4519,0.4519,0.4519,0.4519,0.4519,0.4519,0.4519,0.4519,0.4519,0.4519,0.4519,0.4519,0.4519,0.4519,0.4519,0.4519,0.4519,0.4519,0.4519,0.4519,0.4519,0.4519,0.4519,0.4519,0.4519,0.4519,0.4519,0.4519,0.4525,0.4477,0.4252,0.4203,0.4209,0.4209,0.4209,0.4209,0.4209,0.4209,0.4209,0.4209,0.4209,0.4154,0.3928,0.2852,0.1898,0.1898,0.1898,0.1898,0.1898,0.2233,0.2961,0.4258,0.448,0.4477,0.4522,0.4519,0.4519,0.4519,0.4579,0.4667,0.4687,0.4921,0.5135,0.5291,0.5423,0.5562,0.5701,0.5711,0.5789,0.5966,0.5969,0.6054,0.6227,0.623,0.6247,0.6278,0.5705,0.3515,0.0,0.0,0.0,0.0,0.0,0.0,0.0,0.0,0.0,0.0,0.0,-0.0179,-0.0449,-0.0449,-0.2026,-0.4098,0.4519,0.4787,0.5054,0.5054,0.5655,0.6204,0.6534,0.7235,0.7723,0.7723,0.8049,0.7937,0.6848,0.6095,0.5336,0.457,0.4842,0.4893,0.4515,0.4838,0.5054,0.5054,0.5441,0.5664,0.5664,0.5664,0.5664,0.5664,0.4901,0.4519,0.4519,0.4519,0.4519,0.4519,0.4519,0.4519,0.4519,0.4519,0.4519,0.4519,0.4519,0.4519,0.4519,0.4519,0.4519,0.4519,0.4519,0.4519,0.4519,0.4519,0.4522,0.4525,0.4525,0.4473,0.4477,0.4477,0.4477,0.4477,0.4477,0.4477,0.4477,0.4477,0.4477,0.4477,0.4477,0.3965,0.3458,0.3469,0.3471,0.3471,0.3471,0.3466,0.3688,0.4366,0.4473,0.4553,0.4579,0.4573,0.4549,0.4579,0.4724,0.4884,0.505,0.5182,0.5355,0.5589,0.5671,0.5735,0.5796,0.58,0.5871,0.6023,0.603,0.6105,0.6335,0.6339,0.6383,0.6386,0.6478,0.4201,0.0,0.0,0.0,0.0,0.0,0.0,0.0,0.0,0.0,0.0,0.0,0.0,0.0,0.0,-0.065,-0.1619]}]]